[[{"header":{"parameterUnit":"m.s-1","parameterCategory":1,"la1":30.6,"la2":28.766,"lo1":-90.7593,"lo2":-88.6598,"dy":0.0162,"dx":0.0183,"nx":116,"ny":114,"refTime":"2023-10-18T06:00:00:Z","depth":0,"parameterNumber":2,"parameterNumberName":"U-component_of_WINDS"},"data":[0.0,0.0,0.0,0.0,0.0,0.0,0.0,0.0,0.0,0.0,0.0,0.0,0.0,0.0,0.0,0.0,0.0,0.0,0.0,0.0,0.0,0.0,0.0,0.0,0.0,0.0,0.0,0.0,0.0,0.0,0.0,0.0,0.0,0.0,0.0,0.0,0.0,0.0,0.0,0.0,0.0,0.0,0.0,0.0,0.0,0.0,0.0,0.0,0.0,0.0,0.0,0.0,0.0,0.0,0.0,0.0,0.0,0.0,0.0,0.0,0.0,0.0,0.0,0.0,0.0,0.0,0.0,0.0,0.0,0.0,0.0,0.0,0.0,0.0,0.0,0.0,0.0,0.0,0.0,0.0,0.0,0.0,0.0,0.0,0.0,0.0,0.0,0.0,0.0,0.0,0.0,0.0,0.0,0.0,0.0,0.0,0.0,0.0,0.0,0.0,0.0,0.0,0.0,0.0,0.0,0.0,0.0,0.0,0.0,0.0,0.0,0.0,0.0,0.0,0.0,0.0,0.0,0.0,0.0,0.0,0.0,0.0,0.0,0.0,0.0,0.0,0.0,0.0,0.0,0.0,0.0,0.0,0.0,0.0,0.0,0.0,0.0,0.0,0.0,0.0,0.0,0.0,0.0,0.0,0.0,0.0,0.0,0.0,0.0,0.0,0.0,0.0,0.0,0.0,0.0,0.0,0.0,0.0,0.0,0.0,0.0,0.0,0.0,0.0,0.0,0.0,0.0,0.0,0.0,0.0,0.0,0.0,0.0,0.0,0.0,0.0,0.0,0.0,0.0,0.0,0.0,0.0,0.0,0.0,0.0,0.0,0.0,0.0,0.0,0.0,0.0,0.0,0.0,0.0,0.0,0.0,0.0,0.0,0.0,0.0,0.0,0.0,0.0,0.0,0.0,0.0,0.0,0.0,0.0,0.0,0.0,0.0,0.0,0.0,0.0,0.0,0.0,0.0,0.0,0.0,0.0,0.0,0.0,0.0,0.0,0.0,0.0,0.0,0.0,0.0,0.0,0.0,0.0,0.0,0.0,0.0,0.0,0.0,0.0,0.0,0.0,0.0,0.0,0.0,0.0,0.0,0.0,0.0,0.0,0.0,0.0,0.0,0.0,0.0,0.0,0.0,0.0,0.0,0.0,0.0,0.0,0.0,0.0,0.0,0.0,0.0,0.0,0.0,0.0,0.0,0.0,0.0,0.0,0.0,0.0,0.0,0.0,0.0,0.0,0.0,0.0,0.0,0.0,0.0,0.0,0.0,0.0,0.0,0.0,0.0,0.0,0.0,0.0,0.0,0.0,0.0,0.0,0.0,0.0,0.0,0.0,0.0,0.0,0.0,0.0,0.0,0.0,0.0,0.0,0.0,0.0,0.0,0.0,0.0,0.0,0.0,0.0,0.0,0.0,0.0,0.0,0.0,0.0,0.0,0.0,0.0,0.0,0.0,0.0,0.0,0.0,0.0,0.0,0.0,0.0,0.0,0.0,0.0,0.0,0.0,0.0,0.0,0.0,0.0,0.0,0.0,0.0,0.0,0.0,0.0,0.0,0.0,0.0,0.0,0.0,0.0,0.0,0.0,0.0,0.0,0.0,0.0,0.0,0.0,0.0,0.0,0.0,0.0,0.0,0.0,0.0,0.0,0.0,0.0,0.0,0.0,0.0,0.0,0.0,0.0,0.0,0.0,0.0,0.0,0.0,0.0,0.0,0.0,0.0,0.0,0.0,0.0,0.0,0.0,0.0,0.0,0.0,0.0,0.0,0.0,0.0,0.0,0.0,0.0,0.0,0.0,0.0,0.0,0.0,0.0,0.0,0.0,0.0,0.0,0.0,0.0,0.0,0.0,0.0,0.0,0.0,0.0,0.0,0.0,0.0,0.0,0.0,0.0,0.0,0.0,0.0,0.0,0.0,0.0,0.0,0.0,0.0,0.0,0.0,0.0,0.0,0.0,0.0,0.0,0.0,0.0,0.0,0.0,0.0,0.0,0.0,0.0,0.0,0.0,0.0,0.0,0.0,0.0,0.0,0.0,0.0,0.0,0.0,0.0,0.0,0.0,0.0,0.0,0.0,0.0,0.0,0.0,0.0,0.0,0.0,0.0,0.0,0.0,0.0,0.0,0.0,0.0,0.0,0.0,0.0,0.0,0.0,0.0,0.0,0.0,0.0,0.0,0.0,0.0,0.0,0.0,0.0,0.0,0.0,0.0,0.0,0.0,0.0,0.0,0.0,0.0,0.0,0.0,0.0,0.0,0.0,0.0,0.0,0.0,0.0,0.0,0.0,0.0,0.0,0.0,0.0,0.0,0.0,0.0,0.0,0.0,0.0,0.0,0.0,0.0,0.0,0.0,0.0,0.0,0.0,0.0,0.0,0.0,0.0,0.0,0.0,0.0,0.0,0.0,0.0,0.0,0.0,0.0,0.0,0.0,0.0,0.0,0.0,0.0,0.0,0.0,0.0,0.0,0.0,0.0,0.0,0.0,0.0,0.0,0.0,0.0,0.0,0.0,0.0,0.0,0.0,0.0,0.0,0.0,0.0,0.0,0.0,0.0,0.0,0.0,0.0,0.0,0.0,0.0,0.0,0.0,0.0,0.0,0.0,0.0,0.0,0.0,0.0,0.0,0.0,0.0,0.0,0.0,0.0,0.0,0.0,0.0,0.0,0.0,0.0,0.0,0.0,0.0,0.0,0.0,0.0,0.0,0.0,0.0,0.0,0.0,0.0,0.0,0.0,0.0,0.0,0.0,0.0,0.0,0.0,0.0,0.0,0.0,0.0,0.0,0.0,0.0,0.0,0.0,0.0,0.0,0.0,0.0,0.0,0.0,0.0,0.0,0.0,0.0,0.0,0.0,0.0,0.0,0.0,0.0,0.0,0.0,0.0,0.0,0.0,0.0,0.0,0.0,0.0,0.0,0.0,0.0,0.0,0.0,0.0,0.0,0.0,0.0,0.0,0.0,0.0,0.0,0.0,0.0,0.0,0.0,0.0,0.0,0.0,0.0,0.0,0.0,0.0,0.0,0.0,0.0,0.0,0.0,0.0,0.0,0.0,0.0,0.0,0.0,0.0,0.0,0.0,0.0,0.0,0.0,0.0,0.0,0.0,0.0,0.0,0.0,0.0,0.0,0.0,0.0,0.0,0.0,0.0,0.0,0.0,0.0,0.0,0.0,0.0,0.0,0.0,0.0,0.0,0.0,0.0,0.0,0.0,0.0,0.0,0.0,0.0,0.0,0.0,0.0,0.0,0.0,0.0,0.0,0.0,0.0,0.0,0.0,0.0,0.0,0.0,0.0,0.0,0.0,0.0,0.0,0.0,0.0,0.0,0.0,0.0,0.0,0.0,0.0,0.0,0.0,0.0,0.0,0.0,0.0,0.0,0.0,0.0,0.0,0.0,0.0,0.0,0.0,0.0,0.0,0.0,0.0,0.0,0.0,0.0,0.0,0.0,0.0,0.0,0.0,0.0,0.0,0.0,0.0,0.0,0.0,0.0,0.0,0.0,0.0,0.0,0.0,0.0,0.0,0.0,0.0,0.0,0.0,0.0,0.0,0.0,0.0,0.0,0.0,0.0,0.0,0.0,0.0,0.0,0.0,0.0,0.0,0.0,0.0,0.0,0.0,0.0,0.0,0.0,0.0,0.0,0.0,0.0,0.0,0.0,0.0,0.0,0.0,0.0,0.0,0.0,0.0,0.0,0.0,0.0,0.0,0.0,0.0,0.0,0.0,0.0,0.0,0.0,0.0,0.0,0.0,0.0,0.0,0.0,0.0,0.0,0.0,0.0,0.0,0.0,0.0,0.0,0.0,0.0,0.0,0.0,0.0,0.0,0.0,0.0,0.0,0.0,0.0,0.0,0.0,0.0,0.0,0.0,0.0,0.0,0.0,0.0,0.0,0.0,0.0,0.0,0.0,0.0,0.0,0.0,0.0,0.0,0.0,0.0,0.0,0.0,0.0,0.0,0.0,0.0,0.0,0.0,0.0,0.0,0.0,0.0,0.0,0.0,0.0,0.0,0.0,0.0,0.0,0.0,0.0,0.0,0.0,0.0,0.0,0.0,0.0,0.0,0.0,0.0,0.0,0.0,0.0,0.0,0.0,0.0,0.0,0.0,0.0,0.0,0.0,0.0,0.0,0.0,0.0,0.0,0.0,0.0,0.0,0.0,0.0,0.0,0.0,0.0,0.0,0.0,0.0,0.0,0.0,0.0,0.0,0.0,0.0,0.0,0.0,0.0,0.0,0.0,0.0,0.0,0.0,0.0,0.0,0.0,0.0,0.0,0.0,0.0,0.0,0.0,0.0,0.0,0.0,0.0,0.0,0.0,0.0,0.0,0.0,0.0,0.0,0.0,0.0,0.0,0.0,0.0,0.0,0.0,0.0,0.0,0.0,0.0,0.0,0.0,0.0,0.0,0.0,0.0,0.0,0.0,0.0,0.0,0.0,0.0,0.0,0.0,0.0,0.0,0.0,0.0,0.0,0.0,0.0,0.0,0.0,0.0,0.0,0.0,0.0,0.0,0.0,0.0,0.0,0.0,0.0,0.0,0.0,0.0,0.0,0.0,0.0,0.0,0.0,0.0,0.0,0.0,0.0,0.0,0.0,0.0,0.0,0.0,0.0,0.0,0.0,0.0,0.0,0.0,0.0,0.0,0.0,0.0,0.0,0.0,0.0,0.0,0.0,0.0,0.0,0.0,0.0,0.0,0.0,0.0,0.0,0.0,0.0,0.0,0.0,0.0,0.0,0.0,0.0,0.0,0.0,0.0,0.0,0.0,0.0,0.0,0.0,0.0,0.0,0.0,0.0,0.0,0.0,0.0,0.0,0.0,0.0,0.0,0.0,0.0,0.0,0.0,0.0,0.0,0.0,0.0,0.0,0.0,0.0,0.0,0.0,0.0,0.0,0.0,0.0,0.0,0.0,0.0,0.0,0.0,0.0,0.0,0.0,0.0,0.0,0.0,0.0,0.0,0.0,0.0,0.0,0.0,0.0,0.0,0.0,0.0,0.0,0.0,0.0,0.0,0.0,0.0,0.0,0.0,0.0,0.0,0.0,0.0,0.0,0.0,0.0,0.0,0.0,0.0,0.0,0.0,0.0,0.0,0.0,0.0,0.0,0.0,0.0,0.0,0.0,0.0,0.0,0.0,0.0,0.0,0.0,0.0,0.0,0.0,0.0,0.0,0.0,0.0,0.0,0.0,0.0,0.0,0.0,0.0,0.0,0.0,0.0,0.0,0.0,0.0,0.0,0.0,0.0,0.0,0.0,0.0,0.0,0.0,0.0,0.0,0.0,0.0,0.0,0.0,0.0,0.0,0.0,0.0,0.0,0.0,0.0,0.0,0.0,0.0,0.0,0.0,0.0,0.0,0.0,0.0,0.0,0.0,0.0,0.0,0.0,0.0,0.0,0.0,0.0,0.0,0.0,0.0,0.0,0.0,0.0,0.0,0.0,0.0,0.0,0.0,0.0,0.0,0.0,0.0,0.0,0.0,0.0,0.0,0.0,0.0,0.0,0.0,0.0,0.0,0.0,0.0,0.0,0.0,0.0,0.0,0.0,0.0,0.0,0.0,0.0,0.0,0.0,0.0,0.0,0.0,0.0,0.0,0.0,0.0,0.0,0.0,0.0,0.0,0.0,0.0,0.0,0.0,0.0,0.0,0.0,0.0,0.0,0.0,0.0,0.0,0.0,0.0,0.0,0.0,0.0,0.0,0.0,0.0,0.0,0.0,0.0,0.0,0.0,0.0,0.0,0.0,0.0,0.0,0.0,0.0,0.0,0.0,0.0,0.0,0.0,0.0,0.0,0.0,0.0,0.0,0.0,0.0,0.0,0.0,0.0,0.0,0.0,0.0,0.0,0.0,0.0,0.0,0.0,0.0,0.0,0.0,0.0,0.0,0.0,0.0,0.0,0.0,0.0,0.0,0.0,0.0,0.0,0.0,0.0,0.0,0.0,0.0,0.0,0.0,0.0,0.0,0.0,0.0,0.0,0.0,0.0,0.0,0.0,0.0,0.0,0.0,0.0,0.0,0.0,0.0,0.0,0.0,0.0,0.0,0.0,0.0,0.0,0.0,0.0,0.0,0.0,0.0,0.0,2.9568,3.0016,0.0,0.0,0.0,0.0,0.0,0.0,0.0,0.0,0.0,0.0,0.0,0.0,0.0,0.0,0.0,0.0,0.0,0.0,0.0,0.0,0.0,0.0,0.0,0.0,0.0,0.0,0.0,0.0,0.0,0.0,0.0,0.0,0.0,0.0,0.0,0.0,0.0,0.0,0.0,0.0,0.0,0.0,0.0,0.0,0.0,0.0,0.0,0.0,0.0,0.0,0.0,0.0,0.0,0.0,0.0,0.0,0.0,0.0,0.0,0.0,0.0,0.0,0.0,0.0,0.0,0.0,0.0,0.0,0.0,0.0,0.0,0.0,0.0,0.0,0.0,0.0,0.0,0.0,0.0,0.0,0.0,0.0,0.0,0.0,0.0,0.0,0.0,0.0,0.0,0.0,0.0,0.0,0.0,0.0,0.0,0.0,0.0,0.0,0.0,0.0,0.0,0.0,0.0,0.0,0.0,0.0,0.0,0.0,0.0,0.0,0.0,0.0,0.0,0.0,3.0417,3.0137,0.0,0.0,0.0,0.0,0.0,0.0,0.0,0.0,0.0,0.0,0.0,0.0,0.0,0.0,0.0,0.0,0.0,0.0,0.0,0.0,0.0,0.0,0.0,0.0,0.0,0.0,0.0,0.0,0.0,0.0,0.0,0.0,0.0,0.0,0.0,0.0,0.0,0.0,0.0,0.0,0.0,0.0,0.0,0.0,0.0,0.0,0.0,0.0,0.0,0.0,0.0,0.0,0.0,0.0,0.0,0.0,0.0,0.0,0.0,0.0,0.0,0.0,0.0,0.0,0.0,0.0,0.0,0.0,0.0,0.0,0.0,0.0,0.0,0.0,0.0,0.0,0.0,0.0,0.0,0.0,0.0,0.0,0.0,0.0,0.0,0.0,0.0,0.0,0.0,0.0,0.0,0.0,0.0,0.0,0.0,0.0,0.0,0.0,0.0,0.0,0.0,0.0,0.0,0.0,0.0,0.0,0.0,0.0,3.0817,3.1325,3.2104,3.2349,3.2814,3.3313,3.1461,3.0453,3.011,3.0307,0.0,0.0,0.0,0.0,0.0,0.0,0.0,0.0,0.0,0.0,0.0,0.0,0.0,0.0,0.0,0.0,0.0,0.0,0.0,0.0,0.0,0.0,0.0,0.0,0.0,0.0,0.0,0.0,0.0,0.0,0.0,0.0,0.0,0.0,0.0,0.0,0.0,0.0,2.5221,2.5221,2.5319,2.555,0.0,0.0,0.0,0.0,0.0,0.0,0.0,0.0,0.0,0.0,0.0,0.0,0.0,0.0,0.0,0.0,0.0,0.0,0.0,0.0,0.0,0.0,0.0,0.0,0.0,0.0,0.0,0.0,0.0,0.0,0.0,0.0,0.0,0.0,0.0,0.0,0.0,0.0,0.0,0.0,0.0,0.0,0.0,0.0,2.745,2.7158,0.0,0.0,0.0,0.0,0.0,0.0,0.0,0.0,0.0,0.0,0.0,0.0,0.0,3.0721,3.2015,3.1441,3.1775,3.2961,3.2426,3.2527,3.3202,3.3203,3.3322,3.3389,3.309,0.0,3.2501,3.1844,0.0,0.0,0.0,0.0,0.0,0.0,0.0,0.0,0.0,0.0,0.0,0.0,0.0,0.0,0.0,0.0,0.0,0.0,0.0,0.0,0.0,0.0,0.0,0.0,0.0,0.0,0.0,0.0,0.0,0.0,0.0,0.0,0.0,0.0,0.0,0.0,2.4713,2.4592,2.4307,2.4307,2.4307,2.4307,2.4307,2.4632,2.5221,2.5449,0.0,0.0,0.0,0.0,0.0,0.0,0.0,0.0,0.0,0.0,0.0,0.0,0.0,0.0,0.0,0.0,0.0,0.0,0.0,0.0,0.0,0.0,0.0,0.0,0.0,0.0,0.0,0.0,0.0,0.0,0.0,0.0,0.0,0.0,0.0,0.0,0.0,0.0,0.0,2.7894,2.7964,2.8159,2.8468,2.878,0.0,0.0,0.0,0.0,0.0,0.0,0.0,0.0,0.0,3.0254,3.0604,3.1545,3.294,3.2245,3.2604,3.401,3.3716,3.3931,3.4625,3.5088,3.5537,3.591,3.5487,3.523,3.5002,3.3362,3.299,3.3384,0.0,0.0,0.0,0.0,3.3384,3.3347,0.0,0.0,0.0,0.0,0.0,0.0,0.0,0.0,0.0,0.0,0.0,0.0,0.0,0.0,0.0,2.0829,0.0,0.0,0.0,0.0,0.0,0.0,0.0,0.0,0.0,0.0,0.0,0.0,2.4199,2.3997,2.357,2.357,2.3659,2.3822,2.3822,2.4167,2.4776,2.495,2.5297,0.0,0.0,0.0,0.0,0.0,0.0,0.0,0.0,0.0,0.0,0.0,0.0,0.0,0.0,0.0,0.0,0.0,0.0,0.0,0.0,0.0,0.0,0.0,0.0,0.0,0.0,0.0,0.0,0.0,0.0,0.0,0.0,0.0,0.0,0.0,0.0,0.0,0.0,2.8417,2.8319,2.8782,2.858,2.8615,0.0,0.0,0.0,0.0,0.0,0.0,3.0544,3.0792,3.0895,3.0895,3.1516,3.2465,3.3713,3.2969,3.332,3.4756,3.4588,3.4864,3.5622,3.6208,3.6786,3.7269,3.6719,3.6469,3.6367,3.4678,3.4159,3.4455,3.4289,3.4406,3.4606,3.4098,3.3928,3.3865,0.0,0.0,0.0,0.0,0.0,0.0,0.0,0.0,0.0,0.0,0.0,0.0,0.0,0.0,1.9909,2.0314,2.0348,2.0516,0.0,0.0,0.0,0.0,0.0,0.0,0.0,0.0,0.0,2.3638,2.3638,0.0,2.3493,2.3493,2.3856,2.4431,2.4431,2.4195,2.3709,2.4225,2.4752,2.5362,0.0,0.0,0.0,0.0,0.0,0.0,0.0,0.0,0.0,0.0,0.0,0.0,0.0,0.0,0.0,0.0,0.0,0.0,0.0,0.0,0.0,0.0,0.0,0.0,0.0,0.0,0.0,0.0,0.0,0.0,0.0,0.0,0.0,0.0,0.0,0.0,0.0,0.0,0.0,2.8442,2.8966,0.0,0.0,0.0,0.0,3.0332,3.035,3.0607,3.131,3.1899,3.2215,3.2215,3.2847,3.3582,3.4319,3.3661,3.4091,3.5521,3.4804,3.4877,3.5623,3.5623,3.5694,3.5726,3.5694,3.5678,3.5674,3.5538,3.5504,3.5436,3.4752,3.4464,3.4423,3.3702,3.3448,3.3448,0.0,0.0,0.0,0.0,0.0,0.0,0.0,0.0,0.0,0.0,0.0,0.0,0.0,1.9266,1.9229,1.9398,1.9383,1.9615,2.0139,0.0,0.0,0.0,0.0,0.0,0.0,0.0,0.0,0.0,0.0,2.3124,2.3431,2.3431,2.3543,2.3803,2.3803,2.3666,2.3538,2.47,2.5477,2.5994,2.6456,2.7026,0.0,0.0,0.0,0.0,0.0,0.0,0.0,0.0,0.0,0.0,0.0,0.0,0.0,0.0,0.0,0.0,0.0,0.0,0.0,0.0,0.0,0.0,0.0,0.0,0.0,0.0,0.0,0.0,0.0,0.0,0.0,0.0,0.0,0.0,0.0,0.0,0.0,2.9585,2.9564,0.0,3.0624,3.0337,3.0383,3.1007,3.0709,3.0757,3.1388,3.2083,3.2435,3.2435,3.3077,3.3967,3.518,3.4482,3.4834,3.6244,3.6007,3.6007,3.6244,3.6784,3.7013,3.7013,3.7013,3.7013,3.7038,3.7021,3.6486,3.557,3.531,3.5514,3.5874,3.5625,3.586,3.6299,0.0,0.0,0.0,0.0,0.0,0.0,0.0,0.0,0.0,0.0,0.0,1.8817,1.865,1.8612,1.8612,1.8612,1.8612,1.8941,1.973,0.0,0.0,0.0,0.0,0.0,0.0,0.0,0.0,0.0,0.0,0.0,0.0,0.0,2.3838,2.423,2.423,2.4273,2.4433,2.5392,2.5897,2.6031,2.6306,2.6957,2.7834,0.0,0.0,0.0,0.0,0.0,0.0,0.0,0.0,0.0,0.0,0.0,0.0,0.0,0.0,0.0,0.0,0.0,0.0,0.0,0.0,0.0,0.0,0.0,0.0,0.0,0.0,0.0,0.0,0.0,0.0,0.0,0.0,0.0,0.0,2.9218,2.9245,3.0306,3.0061,3.0181,3.1009,3.0926,3.112,3.1743,3.1399,3.1426,3.2059,3.2779,3.317,3.317,3.3829,3.4602,3.5554,3.5102,3.5329,3.6228,3.6228,3.6228,3.6228,3.6768,3.7011,3.7011,3.7011,3.7011,3.7011,3.7011,3.6479,3.5576,3.5895,3.6281,3.6662,3.6434,3.668,3.7136,0.0,0.0,0.0,0.0,0.0,0.0,0.0,0.0,0.0,0.0,1.8855,1.865,1.8145,1.8066,1.8066,1.8066,1.8066,1.8567,1.9789,1.988,0.0,0.0,0.0,0.0,2.1677,0.0,0.0,0.0,0.0,0.0,0.0,0.0,2.4721,2.5844,2.5844,2.5968,2.6164,2.6164,2.583,2.5349,2.6072,2.6673,2.7227,0.0,0.0,0.0,0.0,0.0,0.0,0.0,0.0,0.0,0.0,0.0,0.0,0.0,0.0,0.0,0.0,0.0,0.0,0.0,0.0,0.0,0.0,0.0,0.0,0.0,0.0,0.0,0.0,0.0,0.0,0.0,0.0,0.0,3.0307,2.9908,2.9794,3.0423,3.0531,3.0567,3.0597,3.121,3.1795,3.2497,3.2557,3.2856,3.3499,3.4158,3.4502,3.4502,3.516,3.5504,3.5504,3.5504,3.5504,3.5504,3.5504,3.5519,3.5534,3.5534,3.5549,3.5564,3.5564,3.5564,3.5564,3.5549,3.5534,3.5589,3.6393,3.6669,3.6589,3.5864,3.5625,3.579,0.0,0.0,0.0,0.0,0.0,0.0,0.0,0.0,0.0,0.0,1.7987,1.7666,1.7544,1.7504,1.7504,1.7504,1.7504,1.8004,1.91,0.0,0.0,0.0,0.0,0.0,2.1592,0.0,0.0,0.0,0.0,0.0,0.0,0.0,0.0,2.5103,2.5103,2.5141,2.5189,2.5189,2.5182,2.5201,2.5518,2.6006,2.6629,0.0,0.0,0.0,0.0,0.0,0.0,0.0,0.0,0.0,0.0,0.0,0.0,0.0,0.0,0.0,0.0,0.0,0.0,0.0,0.0,0.0,0.0,0.0,0.0,0.0,0.0,0.0,0.0,0.0,0.0,0.0,2.9924,3.0114,2.9855,3.0031,3.0483,3.1177,3.167,3.2153,3.2632,3.2841,3.3036,3.3215,3.3664,3.4008,3.4203,3.4846,3.522,3.522,3.54,3.5504,3.5504,3.5504,3.5504,3.5504,3.5504,3.5744,3.6222,3.6222,3.6462,3.6881,3.6881,3.6881,3.6851,3.6402,3.6222,3.6214,3.5958,3.6138,3.6591,3.6419,3.6711,3.7246,0.0,0.0,0.0,0.0,0.0,0.0,0.0,0.0,0.0,0.0,1.7286,1.6925,1.6951,1.6727,1.6672,1.6951,1.7183,1.7804,1.8922,0.0,0.0,0.0,0.0,2.0157,2.1211,0.0,0.0,0.0,0.0,0.0,0.0,0.0,2.5272,2.5511,2.5511,2.5372,2.5146,2.5146,2.5077,2.4955,2.509,2.5472,2.5955,2.6395,2.6784,2.7149,2.7579,2.792,2.8209,2.8209,0.0,0.0,0.0,0.0,0.0,0.0,0.0,0.0,0.0,0.0,0.0,0.0,0.0,0.0,0.0,0.0,0.0,0.0,0.0,0.0,0.0,0.0,0.0,0.0,3.0203,3.044,3.0631,3.104,3.1599,3.2273,3.2931,3.3484,3.3858,3.4158,3.4337,3.4337,3.4696,3.4906,3.4906,3.5295,3.5504,3.5504,3.5504,3.5504,3.5504,3.5774,3.5923,3.5923,3.6178,3.6507,3.6881,3.6881,3.7075,3.7404,3.7404,3.7404,3.7375,3.7015,3.6881,3.6791,0.0,0.0,0.0,0.0,3.6631,3.7279,0.0,0.0,0.0,0.0,0.0,0.0,0.0,0.0,0.0,0.0,0.0,1.6318,1.6281,1.582,1.5732,1.625,1.6814,1.7634,0.0,0.0,0.0,1.8608,1.9128,1.978,2.0523,2.0863,0.0,0.0,0.0,0.0,0.0,0.0,2.5895,2.6533,2.6383,2.6108,2.5686,2.5686,2.5385,2.4908,2.4908,2.5,2.5271,2.5327,2.5355,2.5287,2.5342,2.5837,2.6404,2.6404,0.0,0.0,0.0,0.0,0.0,0.0,0.0,0.0,0.0,0.0,0.0,0.0,0.0,0.0,0.0,0.0,0.0,0.0,0.0,0.0,0.0,0.0,0.0,0.0,3.0405,3.085,3.189,3.2295,3.2763,3.3406,3.4125,3.4592,3.445,3.5066,3.5424,3.5359,3.5439,3.5504,3.5504,3.5504,0.0,0.0,0.0,3.5609,3.5609,3.6267,3.6596,3.6596,3.715,3.7449,3.7524,3.7524,3.7554,3.7644,3.7644,3.7644,3.7629,3.7554,3.7479,3.7285,3.6088,3.5609,3.5609,3.5534,3.5879,3.6508,0.0,0.0,0.0,0.0,0.0,0.0,0.0,0.0,0.0,1.6015,1.584,1.5576,1.5107,1.4926,1.4926,1.5028,1.5475,1.6138,0.0,0.0,1.7346,1.7797,1.8407,1.892,1.9377,2.0801,0.0,0.0,0.0,0.0,0.0,0.0,2.5624,2.6452,2.5664,2.5673,2.6302,2.6302,2.5963,2.5448,2.5448,2.4975,2.4356,2.4932,2.4864,2.4567,2.5175,2.5508,2.5618,2.5618,2.5728,2.5837,2.5837,0.0,0.0,0.0,0.0,0.0,0.0,0.0,0.0,0.0,0.0,0.0,0.0,0.0,0.0,0.0,0.0,0.0,0.0,0.0,0.0,3.0394,3.1001,3.139,3.1625,3.2193,3.2715,3.3122,3.441,3.5005,3.4205,3.4978,3.5133,3.4327,3.5052,3.5504,3.5504,3.5504,3.5504,3.5504,3.6013,3.6297,3.6297,3.6926,3.724,3.724,3.7345,0.0,3.8197,3.8197,3.8497,3.9035,3.9035,3.9035,3.899,3.8437,3.7883,3.7345,3.6582,3.6297,3.6237,3.5699,3.5619,3.5733,0.0,0.0,0.0,0.0,0.0,0.0,0.0,0.0,0.0,0.0,1.532,1.5005,1.4744,1.4422,1.4376,1.4652,1.5322,0.0,0.0,1.6581,1.6757,1.7381,1.7973,1.8632,1.9398,2.0306,0.0,0.0,0.0,0.0,0.0,2.4352,2.4552,2.4992,2.448,2.4552,2.4981,2.4981,2.4826,2.4576,2.4576,2.4342,2.4136,2.4418,2.4403,2.418,2.421,2.4496,2.4851,2.4851,2.5063,2.5453,2.5701,2.5797,2.5964,0.0,0.0,0.0,0.0,0.0,0.0,0.0,0.0,0.0,0.0,0.0,0.0,0.0,0.0,2.9347,2.9173,0.0,2.9821,3.0427,3.0778,3.106,3.1343,3.2058,3.2638,3.2847,3.3568,3.3837,3.331,3.3754,3.3837,3.331,3.4177,3.4758,3.4758,3.5525,3.577,3.5204,3.6327,3.6737,3.6226,3.7362,3.7898,3.7898,3.8257,3.8586,3.8901,3.8901,3.9095,3.9424,3.9424,3.9424,3.9394,3.905,3.8706,3.8347,3.7689,3.7045,3.6447,3.6118,3.5789,3.5504,0.0,0.0,0.0,0.0,0.0,0.0,0.0,0.0,0.0,0.0,0.0,1.4606,1.4387,1.392,1.39,0.0,0.0,0.0,0.0,1.6265,1.6471,1.6984,1.7622,1.8382,1.9206,1.9783,0.0,0.0,0.0,0.0,0.0,2.3294,2.3294,2.3514,2.3294,2.3294,2.3514,2.3514,2.3514,2.3514,2.3514,2.3667,2.3906,2.3721,2.3753,2.3916,2.3339,2.3543,2.406,2.406,2.4532,2.5208,2.5639,2.5869,2.6072,2.6748,2.6971,0.0,0.0,0.0,0.0,0.0,0.0,0.0,0.0,2.9212,2.8848,2.8733,2.9077,2.9322,2.8677,2.8956,2.9549,3.015,3.0255,3.0398,3.0843,3.1609,3.2046,3.2046,3.2393,3.2522,3.2321,3.2464,3.2522,3.2321,3.3269,3.3856,3.3856,3.5277,3.5711,3.4825,3.638,3.6787,3.5766,3.7432,3.8186,3.7956,3.8517,3.8767,3.8767,3.8767,3.8767,3.8782,3.9017,3.9104,3.9104,3.9337,3.9424,3.9364,3.8811,3.7883,3.6836,3.6582,3.6148,3.5684,0.0,0.0,0.0,0.0,0.0,0.0,0.0,0.0,0.0,0.0,0.0,0.0,0.0,0.0,0.0,0.0,0.0,0.0,0.0,1.5526,1.5723,1.6226,1.7379,1.7905,1.768,1.9517,0.0,0.0,0.0,0.0,0.0,2.2627,2.2627,2.3441,2.2553,2.2627,2.3514,2.3514,2.3514,2.3514,2.3514,2.3307,2.2953,2.2445,2.2977,2.3916,2.3339,2.3138,2.3245,2.3245,2.3659,2.4151,2.4215,2.457,2.5192,2.6551,0.0,2.721,2.8551,2.8906,2.873,2.8168,2.8492,2.862,0.0,2.7782,2.8326,2.7646,2.7893,2.8439,2.8785,2.8924,2.9164,2.9744,2.9845,2.9871,2.9921,3.0075,3.0075,3.0075,3.1623,3.2249,3.1462,3.2105,3.2249,3.1389,3.2668,3.3467,3.3467,3.415,3.4497,3.4347,3.5963,3.6365,3.5398,3.7021,3.7396,3.6415,3.6484,3.6526,3.6526,3.6526,3.6526,3.6604,3.7587,3.7994,3.8069,3.9017,3.9424,3.9409,3.9334,3.8841,3.8048,3.6911,3.6432,3.6297,0.0,0.0,0.0,0.0,0.0,0.0,0.0,0.0,0.0,0.0,0.0,0.0,0.0,0.0,0.0,0.0,0.0,0.0,1.5352,1.541,1.5605,1.6105,1.6847,1.7306,1.7373,1.8715,1.9455,0.0,0.0,0.0,0.0,2.1253,2.1375,2.1821,2.1375,2.1451,2.1821,2.1821,2.1821,2.18,2.153,2.1671,2.1923,2.1096,2.1831,2.3225,2.2931,2.317,0.0,0.0,2.428,2.4531,2.4833,2.5084,2.5438,2.6394,2.6681,0.0,2.7419,2.7537,2.7537,2.767,2.7853,2.7968,2.7695,2.7996,2.8137,2.783,2.8197,2.8649,2.8888,2.9202,2.9515,2.9754,2.9792,2.9792,2.9792,2.9792,2.9792,2.9792,3.0495,3.0846,3.0419,3.0709,3.0914,3.0881,3.1906,3.2702,3.3037,3.4244,3.4599,3.399,3.5612,3.5995,3.4929,3.6258,3.6604,3.6198,3.6198,3.6198,3.6198,3.6198,3.6198,3.6198,3.6682,3.6852,3.693,3.7329,3.7558,3.7558,3.7558,3.7401,3.7132,3.7479,3.7135,3.6447,0.0,0.0,0.0,0.0,0.0,0.0,0.0,0.0,0.0,0.0,0.0,0.0,0.0,0.0,0.0,0.0,0.0,0.0,0.0,1.5352,1.5605,1.6105,1.6377,0.0,1.7197,1.8027,1.8467,1.8467,0.0,0.0,1.9746,2.0059,2.0215,2.0215,2.0215,2.0215,2.0215,2.0215,2.0215,2.0185,1.9863,2.0092,2.0555,1.9825,2.0504,2.1989,2.2521,2.3262,0.0,0.0,2.4921,2.5096,2.5473,2.5699,2.5912,2.6339,2.6533,2.6533,2.6533,2.6634,2.6886,2.7462,2.7557,2.7708,2.8278,2.8316,2.8335,2.8335,2.8775,2.9164,2.9164,2.9515,2.9792,2.9792,2.9792,2.9792,2.9792,2.9792,2.9792,2.9792,2.9792,2.9854,3.0005,3.0018,3.0181,3.0583,3.1536,3.2241,3.2577,3.394,3.4353,3.358,3.4982,3.5278,3.4275,3.5278,3.5668,3.5346,3.5346,3.5346,3.5346,3.5346,3.5346,3.5346,3.5668,3.5814,3.5814,3.6132,3.6198,3.6198,3.6198,3.6198,3.63,3.743,3.7124,3.6157,0.0,0.0,0.0,0.0,0.0,0.0,0.0,0.0,0.0,0.0,0.0,0.0,0.0,0.0,0.0,0.0,0.0,0.0,0.0,1.5186,1.5605,1.6105,1.6135,1.6289,1.6685,1.7588,1.8027,1.8027,0.0,0.0,0.0,1.9316,1.9326,1.9326,1.9326,1.9326,1.9326,1.9326,1.9326,1.9326,1.9307,1.9053,1.8672,1.8643,1.9173,2.0243,2.2055,0.0,0.0,0.0,2.5159,2.5573,2.5586,2.5988,0.0,2.6521,2.6533,2.6533,2.6533,2.6854,2.7256,2.7326,2.767,2.8072,2.8084,2.8511,2.89,2.89,2.9365,2.9767,2.9767,2.9779,2.9792,2.9792,2.9792,2.9792,2.9792,2.9792,2.9792,2.9792,2.9792,3.0005,3.0545,3.0595,3.0595,3.062,3.1574,3.2164,3.219,3.2814,3.3129,3.3142,3.4178,3.4191,3.3154,3.4191,3.4191,3.3154,3.3154,3.3154,3.3154,3.3154,3.3154,3.3227,3.4262,3.4746,3.4815,3.5814,3.6198,3.6198,3.6198,3.6198,3.6198,3.6263,3.5875,3.512,0.0,0.0,0.0,0.0,0.0,0.0,0.0,0.0,0.0,0.0,0.0,0.0,0.0,0.0,0.0,0.0,0.0,0.0,0.0,1.5176,1.5478,1.5625,1.5908,1.6133,1.6289,1.6865,1.7158,1.7158,0.0,0.0,0.0,0.0,0.0,1.9287,1.9287,1.9287,1.9287,1.9287,1.9287,1.9268,1.8975,1.8769,1.8533,1.833,1.9322,2.1029,0.0,0.0,0.0,0.0,2.6025,2.6163,2.6163,2.637,2.6533,2.6533,2.6533,2.6609,2.6904,2.7143,2.7369,2.7733,2.8247,2.8649,2.8649,2.9089,2.9503,2.9503,2.9654,2.9792,2.9792,2.9792,2.9792,2.9792,2.9792,2.9792,2.9792,2.9792,2.9792,2.9792,3.0118,3.0407,3.0595,3.062,3.0909,3.1625,3.2014,3.2378,3.2767,3.2968,3.3081,3.3081,3.3484,3.3471,3.3081,3.3484,3.3484,3.3081,3.3081,3.3081,3.3081,3.3081,3.3081,3.3167,3.3471,3.3641,3.3628,3.4024,3.4178,3.4178,3.4178,3.4178,3.4178,3.4178,3.3978,3.3953,0.0,0.0,0.0,0.0,0.0,0.0,0.0,0.0,0.0,0.0,0.0,0.0,0.0,0.0,0.0,0.0,0.0,0.0,0.0,0.0,1.5254,1.54,1.5684,1.583,1.583,1.6269,1.6494,1.6494,0.0,0.0,0.0,0.0,0.0,0.0,1.8769,1.8828,1.8828,1.8828,1.8828,1.8809,1.8525,1.8418,1.8389,1.8115,1.8995,0.0,0.0,0.0,0.0,2.5908,2.6533,2.6533,2.6533,2.6533,2.6533,2.6533,2.637,2.6313,2.711,2.7329,2.7483,2.8237,2.8825,2.9239,2.9239,2.9528,2.9792,2.9792,2.9792,2.9792,2.9792,2.9792,2.9792,2.9792,2.9792,2.9792,2.9792,2.9792,2.9867,3.0068,3.0407,3.0771,3.1148,3.1185,3.1474,3.2164,3.2403,3.2692,3.3056,3.3081,3.3081,3.3081,3.3081,3.3081,3.3081,3.3081,3.3081,3.3081,3.3081,3.3081,3.3081,3.3081,3.3081,3.3081,3.3081,3.3081,3.3081,3.3081,3.3081,3.3081,3.3081,3.3081,3.3081,3.3081,3.3081,3.3237,0.0,0.0,0.0,0.0,0.0,0.0,0.0,0.0,0.0,0.0,0.0,0.0,0.0,0.0,0.0,0.0,0.0,0.0,0.0,0.0,0.0,1.5391,1.541,1.541,1.541,1.582,1.6086,0.0,0.0,0.0,0.0,0.0,0.0,0.0,0.0,0.0,1.8008,1.8008,1.8008,1.8008,1.8008,1.8008,1.8008,1.8076,0.0,0.0,0.0,0.0,0.0,2.562,2.6383,2.6383,2.6383,2.6383,2.6383,2.6383,2.5958,2.5777,2.6865,2.7174,2.7478,2.8484,2.9224,2.9702,2.9702,2.9792,2.9792,2.9792,2.9792,2.9792,2.9792,2.9792,2.9792,2.9792,2.9792,2.9792,2.9792,2.9792,2.9993,3.0557,3.0633,3.106,3.2114,3.224,3.2252,3.2252,3.2767,3.3081,3.3081,3.3081,3.3081,3.3081,3.3081,3.3081,3.3081,3.3081,3.3081,3.3081,3.3081,3.3081,3.3081,3.3081,3.3081,3.3081,3.3081,3.3081,3.3081,3.3081,3.3081,3.3081,3.3081,3.3081,3.3081,3.3081,3.3081,3.3006,0.0,0.0,0.0,0.0,0.0,0.0,0.0,0.0,0.0,0.0,0.0,0.0,0.0,0.0,0.0,0.0,0.0,0.0,0.0,0.0,0.0,0.0,0.0,0.0,0.0,0.0,0.0,0.0,0.0,0.0,0.0,0.0,0.0,0.0,0.0,0.0,1.8008,1.8008,1.8008,1.8008,0.0,1.8008,1.8076,0.0,0.0,0.0,0.0,0.0,0.0,0.0,2.537,2.5229,2.448,2.4253,2.4253,2.4253,2.4391,2.4721,2.5401,2.5799,2.6211,2.6921,2.7853,2.8518,2.8518,2.9197,2.9792,2.9792,2.9792,2.9792,2.9792,2.9792,2.9792,2.9792,2.9792,2.9792,2.9792,2.9792,2.9993,3.0557,3.0959,3.1461,3.2139,3.2604,3.2855,3.2855,3.2993,3.3081,3.3081,3.3081,3.3081,3.3081,3.3081,3.3081,3.3081,3.3081,3.3081,3.3081,3.3081,3.3081,3.3081,3.3081,3.3081,3.3081,3.3081,3.3081,3.3081,3.3081,3.3081,3.3081,3.3081,3.3081,3.3081,3.3081,3.3081,3.3056,0.0,0.0,0.0,0.0,0.0,0.0,0.0,0.0,0.0,0.0,0.0,0.0,0.0,0.0,0.0,0.0,0.0,0.0,0.0,0.0,0.0,0.0,0.0,0.0,0.0,0.0,0.0,0.0,0.0,0.0,0.0,0.0,0.0,0.0,0.0,0.0,0.0,0.0,0.0,0.0,0.0,0.0,0.0,0.0,0.0,0.0,0.0,0.0,0.0,0.0,0.0,2.4264,2.3672,2.3514,2.3559,2.3783,2.3808,2.3983,2.5015,2.5264,2.5448,2.6322,2.729,2.8096,2.8096,2.8937,2.9792,2.9792,2.9792,2.9792,2.9792,2.9792,2.9792,2.9792,2.9792,2.9792,2.9792,2.9792,3.008,3.0859,3.121,3.17,3.2516,3.288,3.3081,3.3081,3.3081,3.3081,3.3081,3.3081,3.3081,3.3081,3.3081,3.3081,3.3081,3.3081,3.3081,3.3081,3.3081,3.3081,3.3081,3.3081,3.3081,3.3081,3.3081,3.3081,3.3081,3.3081,3.3081,3.3081,3.3081,3.3081,3.3081,3.3081,3.3081,3.3081,0.0,0.0,0.0,0.0,0.0,0.0,0.0,0.0,0.0,0.0,0.0,0.0,0.0,0.0,0.0,0.0,0.0,0.0,0.0,0.0,0.0,0.0,0.0,0.0,0.0,0.0,0.0,0.0,0.0,0.0,0.0,0.0,0.0,0.0,0.0,0.0,0.0,0.0,0.0,0.0,0.0,0.0,0.0,0.0,0.0,0.0,0.0,0.0,0.0,0.0,2.2424,2.3294,2.3147,2.3158,2.3172,2.3666,2.3449,2.3437,2.4784,2.493,2.4798,2.5808,2.6871,2.7683,2.7844,2.8767,2.9624,2.9792,2.9792,2.9792,2.9792,2.9792,2.9792,2.9792,2.9792,2.9792,2.9792,2.9792,3.0193,3.126,3.1386,3.1838,3.2968,3.3081,3.3081,3.3081,3.3081,3.3081,3.3081,3.3081,3.3081,3.3081,3.3081,3.3081,3.3081,3.3081,3.3081,3.3081,3.3081,3.2982,3.2884,3.2982,3.2982,3.2884,3.3068,3.3081,3.3081,3.3081,3.3081,3.3081,3.3081,3.3081,3.3081,3.3081,3.3081,3.3081,0.0,0.0,0.0,0.0,0.0,0.0,0.0,0.0,0.0,0.0,0.0,0.0,0.0,0.0,0.0,0.0,0.0,0.0,0.0,0.0,0.0,0.0,0.0,0.0,0.0,0.0,0.0,0.0,0.0,0.0,0.0,0.0,0.0,0.0,0.0,0.0,0.0,0.0,0.0,0.0,0.0,0.0,0.0,0.0,0.0,0.0,0.0,0.0,0.0,0.0,2.1135,2.2103,2.1385,2.1078,2.1178,2.1629,2.1929,2.2284,2.2878,2.3222,2.3474,2.3637,2.4553,2.5619,2.6543,2.7614,2.8688,2.9624,2.9792,2.9792,2.9792,2.9792,2.9792,2.9792,2.9792,2.9792,2.9792,2.9792,3.0193,3.126,3.1386,3.1838,3.2968,3.3081,3.3081,3.3081,3.3081,3.3081,3.3081,3.3081,3.3081,3.3081,3.3081,3.3081,3.3081,3.3081,3.3081,3.3081,3.3081,3.2525,3.1589,3.2612,3.2513,3.1589,3.2612,3.3081,3.3081,3.3081,3.3081,3.3081,3.3081,3.3081,3.3081,3.3081,3.3081,3.3081,0.0,0.0,0.0,0.0,0.0,0.0,0.0,0.0,0.0,0.0,0.0,0.0,0.0,0.0,0.0,0.0,0.0,0.0,0.0,0.0,0.0,0.0,0.0,0.0,0.0,0.0,1.541,1.541,0.0,1.541,1.541,1.541,1.5527,1.5723,0.0,0.0,0.0,0.0,0.0,0.0,0.0,0.0,0.0,0.0,0.0,0.0,0.0,0.0,0.0,0.0,2.049,2.1155,2.0712,2.0566,2.0654,2.1103,2.1543,2.1982,2.2402,2.2822,2.3135,2.3135,2.3963,2.5126,2.6224,2.7371,2.8426,2.9534,2.9792,2.9792,2.9792,2.9792,2.9792,2.9792,2.9275,2.8937,2.8937,2.8937,2.923,3.0,3.086,3.1712,3.2541,3.2905,3.2797,3.214,3.214,3.2426,3.3068,3.2426,3.1777,3.1146,3.1146,3.1146,3.1146,3.1146,3.1146,3.1146,3.1146,3.0866,3.0305,3.0866,3.0866,3.0316,3.0866,3.1146,3.1146,3.1146,3.1146,3.1146,3.1146,3.1146,3.1146,3.1146,3.1146,3.1146,0.0,0.0,0.0,0.0,0.0,0.0,0.0,0.0,0.0,0.0,0.0,0.0,0.0,0.0,0.0,0.0,0.0,0.0,0.0,0.0,0.0,0.0,0.0,0.0,0.0,0.0,0.0,1.541,1.541,0.0,0.0,0.0,0.0,0.0,1.541,1.5596,1.5988,0.0,0.0,0.0,0.0,1.7767,0.0,0.0,0.0,0.0,0.0,0.0,0.0,0.0,2.0068,2.0439,2.0537,2.0566,2.0654,2.1103,2.1475,2.1846,2.2266,2.2685,2.2998,2.2998,2.373,2.4798,2.6141,2.7128,2.8187,2.9534,2.9792,2.9792,2.9792,2.9792,2.9792,2.9792,2.9028,2.8347,2.8096,2.8096,2.8205,2.8563,3.0031,3.1174,3.1454,3.2191,3.2152,3.0944,3.0765,3.1223,3.2239,3.1323,3.0406,2.9407,2.9407,2.9407,2.9407,2.9407,2.9407,2.9407,2.9407,2.9223,2.9039,2.9315,2.9223,2.9039,2.9315,2.9407,2.9407,2.9407,2.9407,2.9407,2.9407,2.9407,2.9407,2.9407,2.9407,2.9407,0.0,0.0,0.0,0.0,0.0,0.0,0.0,0.0,0.0,0.0,0.0,0.0,0.0,0.0,0.0,0.0,0.0,0.0,0.0,0.0,0.0,0.0,0.0,0.0,0.0,0.0,0.0,1.541,1.541,0.0,0.0,0.0,0.0,0.0,0.0,1.543,1.5498,1.5898,0.0,0.0,0.0,0.0,0.0,0.0,0.0,0.0,0.0,0.0,0.0,0.0,0.0,2.0049,2.0439,2.0566,2.0654,2.1103,0.0,0.0,2.1826,2.2246,2.2568,2.2568,2.2938,2.381,2.5975,2.6554,2.7221,2.9378,2.9792,2.9792,2.9792,2.9792,2.9792,2.9792,2.9702,2.9275,2.8267,2.8096,2.7963,2.7481,2.8937,2.9709,2.9178,3.0472,3.0855,2.9681,2.959,2.959,2.9772,2.959,2.9498,2.9407,2.9407,2.9407,2.9407,2.9407,2.9407,2.9407,2.9407,2.8866,2.7767,2.8866,2.8773,2.7861,2.8947,2.9407,2.9407,2.9407,2.9407,2.9407,2.9407,2.9407,2.9407,2.9407,2.9407,2.9407,0.0,0.0,0.0,0.0,0.0,0.0,0.0,0.0,0.0,0.0,0.0,0.0,0.0,0.0,0.0,0.0,0.0,0.0,0.0,0.0,0.0,0.0,0.0,0.0,0.0,0.0,1.5808,1.6036,1.6036,0.0,0.0,0.0,0.0,0.0,0.0,1.541,1.542,1.5596,0.0,0.0,0.0,0.0,0.0,0.0,0.0,0.0,0.0,0.0,1.8701,1.9141,0.0,0.0,2.043,2.0566,0.0,0.0,2.1025,2.1269,2.1445,2.1992,2.251,2.251,2.2822,2.3551,2.5126,2.5462,2.588,2.7464,2.8371,2.8767,2.8767,2.9365,2.9792,2.9792,2.9197,2.8359,2.729,2.7128,2.6775,2.589,2.7446,2.8528,2.8296,2.9397,2.959,2.8412,2.7579,2.721,2.721,2.7851,2.7945,2.721,2.721,2.721,2.721,2.721,2.721,2.721,2.721,2.6935,2.6476,2.6935,2.6935,2.6476,2.6935,2.721,2.721,2.721,2.721,2.721,2.721,2.721,2.721,2.721,2.721,2.721,0.0,0.0,0.0,0.0,0.0,0.0,0.0,0.0,0.0,0.0,0.0,0.0,0.0,0.0,0.0,0.0,0.0,0.0,0.0,0.0,0.0,0.0,0.0,0.0,0.0,0.0,1.5784,1.6283,1.6193,1.5921,0.0,0.0,1.541,1.541,0.0,0.0,0.0,0.0,0.0,0.0,0.0,0.0,0.0,0.0,0.0,0.0,0.0,0.0,0.0,0.0,0.0,0.0,0.0,0.0,0.0,0.0,2.0791,2.1035,2.1035,2.1572,2.2168,2.2295,2.2646,2.3229,2.4511,2.4787,2.5126,2.6307,2.7128,2.7683,2.8004,2.853,2.8961,0.0,0.0,2.7279,2.613,2.5975,2.5557,2.4457,2.613,2.7316,2.6875,2.7748,2.7945,2.7125,2.6197,2.5742,2.5742,2.6572,2.6668,2.5732,2.5742,2.5742,2.5742,2.5742,2.5742,2.5742,2.5742,2.5742,2.5742,2.5742,2.5742,2.5742,2.5742,2.5742,2.5742,2.5742,2.5742,2.5742,2.5742,2.5742,2.5742,2.5742,2.5742,2.5742,0.0,0.0,0.0,0.0,0.0,0.0,0.0,0.0,0.0,0.0,0.0,0.0,0.0,0.0,0.0,0.0,0.0,0.0,0.0,0.0,0.0,0.0,0.0,0.0,0.0,0.0,0.0,1.5704,1.5481,1.541,1.541,1.541,1.541,1.541,0.0,0.0,0.0,0.0,0.0,0.0,0.0,0.0,0.0,0.0,0.0,0.0,0.0,0.0,0.0,0.0,0.0,0.0,0.0,2.0215,0.0,0.0,2.0566,2.0576,2.0576,2.0898,2.1357,2.1787,2.2207,2.2948,2.4438,2.4787,2.5126,2.6307,2.6472,2.6883,2.7924,2.7197,2.6883,2.7936,2.7209,2.6141,2.4957,2.4787,2.4372,2.3212,2.5009,2.5823,2.4588,2.5215,2.5732,2.5742,2.5732,2.5742,2.5742,2.5732,2.5732,2.5742,2.5742,2.5742,2.5742,2.5742,2.5742,2.5742,2.5742,2.5742,2.5742,2.5742,2.5742,2.5742,2.5742,2.5742,2.5742,2.5742,2.5742,2.5742,2.5742,2.5742,2.5742,2.5742,2.5742,2.5742,0.0,0.0,0.0,0.0,0.0,0.0,0.0,0.0,0.0,0.0,0.0,0.0,0.0,0.0,0.0,0.0,0.0,0.0,0.0,0.0,0.0,0.0,0.0,0.0,0.0,0.0,0.0,0.0,1.6407,1.6057,1.541,1.541,1.57,1.6151,1.6379,1.6652,0.0,0.0,0.0,0.0,0.0,0.0,1.7326,0.0,0.0,0.0,0.0,0.0,0.0,0.0,0.0,0.0,0.0,0.0,0.0,2.0566,2.0566,2.0566,2.0566,2.0889,2.1338,2.1777,2.2197,2.2703,2.3451,2.3637,2.3714,2.4145,2.4798,2.5452,2.5775,2.6213,2.6637,2.6964,2.6719,2.6141,2.4957,2.4787,2.4382,2.3222,2.4237,2.5103,2.5254,2.5576,2.5742,2.5742,2.5742,2.5742,2.5742,2.5742,2.5742,2.5742,2.5742,2.5742,2.5742,2.5742,2.5742,2.5742,2.5742,2.5742,2.5742,2.5742,2.5742,2.5742,2.5742,2.5742,2.5742,2.5742,2.5742,2.5742,2.5742,2.5742,2.5742,2.5742,2.5742,2.5742,0.0,0.0,0.0,0.0,0.0,0.0,0.0,0.0,0.0,0.0,0.0,0.0,0.0,0.0,0.0,0.0,0.0,0.0,0.0,0.0,0.0,0.0,0.0,0.0,0.0,0.0,0.0,0.0,0.0,0.0,1.541,1.541,1.5806,1.6482,1.6821,1.7191,0.0,0.0,0.0,0.0,0.0,0.0,1.6758,0.0,0.0,0.0,0.0,0.0,0.0,0.0,0.0,0.0,0.0,0.0,0.0,0.0,2.0566,2.0566,2.0566,2.0771,2.1133,2.1738,2.209,0.0,2.3008,2.3135,2.3135,2.3135,2.3627,2.4296,2.4702,2.5052,2.5389,2.5797,2.5473,2.4978,2.4296,2.4125,2.3947,2.3448,2.3994,2.4697,2.542,2.5635,2.5742,2.5742,2.5742,2.5742,2.5742,2.5742,2.5742,2.5742,2.5742,2.5742,2.5742,2.5742,2.5742,2.5742,2.5742,2.5742,2.5742,2.5742,2.5742,2.5742,2.5742,2.5742,0.0,2.5742,2.5742,2.5742,2.5742,2.5742,2.5742,2.5742,2.5742,2.5742,0.0,0.0,0.0,0.0,0.0,0.0,0.0,0.0,0.0,0.0,0.0,0.0,0.0,0.0,0.0,0.0,0.0,0.0,0.0,0.0,0.0,0.0,0.0,0.0,0.0,0.0,0.0,1.6065,1.585,1.5624,1.5468,0.0,1.5864,1.6595,1.7357,1.7688,1.7688,1.7688,1.7633,1.7468,1.6765,1.6565,0.0,0.0,0.0,0.0,0.0,0.0,0.0,0.0,0.0,0.0,0.0,0.0,0.0,0.0,0.0,0.0,0.0,2.0566,2.0771,2.1631,2.1865,2.21,2.291,0.0,0.0,2.3135,2.3135,2.3377,2.4457,2.38,2.3474,2.4542,2.38,2.3135,2.3135,2.3135,2.3301,2.374,2.416,2.459,2.5029,2.5478,2.5742,2.5742,2.5742,2.5742,2.5742,2.5742,2.5742,2.5742,2.5742,2.5742,2.5742,2.5742,2.5742,2.5742,2.5742,2.5742,2.5742,2.5742,2.5742,2.5742,2.5742,2.5742,2.5742,2.5742,2.5742,2.5742,2.5742,2.5742,2.5742,2.5742,2.5742,2.5742,0.0,0.0,0.0,0.0,0.0,0.0,0.0,0.0,0.0,0.0,0.0,0.0,0.0,0.0,0.0,0.0,0.0,0.0,0.0,0.0,0.0,0.0,0.0,0.0,0.0,0.0,0.0,1.6863,1.6227,1.6053,1.6255,1.6255,0.0,0.0,0.0,1.8447,1.8447,1.8447,1.7797,1.6765,1.6539,1.6372,0.0,0.0,0.0,0.0,1.79,1.8008,0.0,0.0,0.0,0.0,0.0,0.0,0.0,0.0,2.0566,2.0566,2.0566,0.0,2.0693,2.125,2.1641,2.2021,0.0,0.0,0.0,0.0,0.0,0.0,0.0,2.3299,2.3222,2.3474,2.3299,2.3135,2.3135,2.3135,2.3301,2.374,2.416,2.459,2.5029,2.5478,2.5742,2.5742,2.5742,2.5742,2.5742,2.5742,2.5742,2.5742,2.5742,2.5742,2.5742,2.5742,2.5742,2.5742,2.5742,2.5742,2.5742,2.5742,2.5742,2.5742,2.5742,2.5742,2.5742,2.5742,2.5742,2.5742,2.5742,2.5742,2.5742,2.5742,2.5742,2.5742,0.0,0.0,0.0,0.0,0.0,0.0,0.0,0.0,0.0,0.0,0.0,0.0,0.0,0.0,0.0,0.0,0.0,0.0,0.0,0.0,0.0,0.0,0.0,0.0,0.0,0.0,0.0,0.0,0.0,1.6146,0.0,0.0,0.0,0.0,0.0,1.9044,1.8661,1.8328,1.7523,1.6492,1.6151,0.0,0.0,0.0,0.0,0.0,1.7861,1.8008,0.0,1.8008,1.8291,1.8711,0.0,0.0,0.0,0.0,2.0566,2.0566,2.0566,2.0566,2.0674,2.1123,2.1562,2.1992,0.0,0.0,0.0,0.0,0.0,0.0,0.0,2.3135,2.3135,2.3135,2.3135,2.3135,2.3135,2.3135,2.3301,2.374,2.416,2.459,2.5029,2.5478,2.5742,2.5742,2.5742,2.5742,2.5742,2.5742,2.5742,2.5742,2.5742,2.5742,2.5742,2.5742,2.5742,2.5742,2.5742,2.5742,2.5742,2.5742,2.5742,2.5742,2.5742,2.5742,2.5742,2.5742,2.5742,2.5742,2.5742,2.5605,2.543,2.543,2.5303,2.5127,0.0,0.0,0.0,0.0,0.0,0.0,0.0,0.0,0.0,0.0,0.0,0.0,0.0,0.0,0.0,0.0,0.0,0.0,0.0,0.0,0.0,0.0,0.0,0.0,0.0,0.0,0.0,0.0,0.0,0.0,0.0,0.0,1.7468,0.0,1.9423,1.9202,1.8501,1.7743,1.7034,1.6265,1.5642,0.0,0.0,0.0,0.0,0.0,0.0,0.0,0.0,1.8008,1.8252,1.8623,1.9131,0.0,0.0,0.0,0.0,0.0,2.0566,2.0566,2.0654,2.1035,2.1514,2.1982,0.0,0.0,0.0,0.0,0.0,0.0,0.0,2.3135,2.3135,2.3135,2.3135,2.3135,2.3135,2.3135,2.3301,2.374,2.416,2.459,2.5029,2.5478,2.5742,2.5742,2.5742,2.5742,2.5742,2.5742,2.5742,2.5742,2.5742,2.5742,2.5742,2.5742,2.5742,2.5742,2.5742,2.5742,2.5742,2.5742,2.5742,2.5742,2.5742,2.5742,2.5742,2.5742,2.5693,2.5635,2.5635,2.5361,2.4971,2.4971,2.4736,2.4414,0.0,0.0,0.0,0.0,0.0,0.0,0.0,0.0,0.0,0.0,0.0,0.0,0.0,0.0,0.0,0.0,0.0,0.0,0.0,0.0,0.0,0.0,0.0,0.0,0.0,0.0,0.0,0.0,0.0,0.0,1.7413,1.7413,1.8232,1.9592,1.9097,1.8447,1.7743,1.6978,1.6255,1.5584,1.5468,0.0,0.0,0.0,0.0,0.0,0.0,0.0,0.0,1.8008,1.8057,1.8242,1.9033,0.0,0.0,0.0,0.0,0.0,2.0566,2.0566,2.0576,2.0654,2.1279,2.1904,0.0,0.0,0.0,0.0,0.0,0.0,0.0,2.3135,2.3135,2.3135,2.3135,2.3135,2.3135,2.3135,2.3301,2.374,2.416,2.459,2.5029,2.5478,2.5742,2.5742,2.5742,2.5742,2.5742,2.5742,2.5742,2.5742,2.5742,2.5742,2.5742,2.5742,2.5742,2.5742,2.5742,2.5742,2.5742,2.5742,2.5742,2.5742,2.5742,2.5742,2.5742,2.5742,2.5518,2.5166,2.5166,2.4902,2.4521,2.4521,2.4473,2.4414,0.0,0.0,0.0,0.0,0.0,0.0,0.0,0.0,0.0,0.0,0.0,0.0,0.0,0.0,0.0,0.0,0.0,0.0,0.0,0.0,0.0,0.0,0.0,0.0,0.0,0.0,0.0,0.0,0.0,1.6577,1.8221,1.8608,1.8939,1.9202,1.8874,1.807,1.6978,1.6652,1.6093,1.541,0.0,0.0,0.0,0.0,0.0,0.0,0.0,0.0,0.0,0.0,1.8008,1.8164,1.9014,0.0,0.0,0.0,0.0,0.0,2.0566,2.0566,2.0566,2.0566,2.123,2.1885,0.0,0.0,0.0,0.0,0.0,0.0,0.0,2.3135,2.3135,2.3135,2.3135,2.3135,2.3135,2.3135,2.3301,2.374,2.3965,2.4336,2.5,2.5254,2.5478,2.5723,2.5742,2.5742,2.5742,2.5742,2.5742,2.5742,2.5742,2.5742,2.5742,2.5742,2.5742,2.5742,2.5742,2.5742,2.5742,2.5742,2.5742,2.5742,2.5742,2.5742,2.5723,2.5478,2.5254,2.5039,2.4805,2.4453,2.4053,2.3818,2.373,2.373,0.0,0.0,0.0,0.0,0.0,0.0,0.0,0.0,0.0,0.0,0.0,0.0,0.0,0.0,0.0,0.0,0.0,0.0,0.0,0.0,0.0,0.0,0.0,0.0,0.0,0.0,1.5612,1.6188,1.6136,1.699,1.8715,1.9254,1.9254,1.8715,1.8501,1.7743,1.6492,1.6492,1.6093,1.541,0.0,0.0,0.0,0.0,0.0,0.0,0.0,0.0,0.0,0.0,0.0,0.0,0.0,0.0,0.0,2.0312,2.0566,2.0566,2.0566,2.0566,2.0566,2.0566,2.1152,0.0,0.0,0.0,0.0,0.0,0.0,0.0,2.3135,2.3135,2.3135,2.3135,2.3135,2.3135,2.3135,2.3135,2.3301,2.374,2.3789,2.4082,2.4844,2.4912,2.5098,2.5547,2.5586,2.5625,2.5732,2.5742,2.5742,2.5742,2.5742,2.5742,2.5742,2.5742,2.5742,2.5742,2.5742,2.5742,2.5742,2.5742,2.5742,2.5732,2.5625,2.5586,2.5547,2.5098,2.4853,2.4736,2.4394,2.4014,2.3594,2.3262,2.3135,2.3135,0.0,0.0,0.0,0.0,0.0,0.0,0.0,0.0,0.0,0.0,0.0,0.0,0.0,0.0,0.0,0.0,0.0,0.0,0.0,0.0,0.0,0.0,0.0,0.0,0.0,1.4876,1.5038,1.6188,1.5998,1.6882,1.8715,1.8768,1.8768,1.8661,1.795,1.7246,1.6492,1.6492,1.6093,1.541,1.541,0.0,0.0,0.0,0.0,0.0,0.0,0.0,0.0,0.0,0.0,0.0,0.0,0.0,1.9453,2.0312,2.0566,2.0566,2.0566,2.0566,2.0566,2.0566,2.0928,0.0,2.1787,2.2236,0.0,2.3057,0.0,2.3135,2.3135,2.3135,2.3135,2.3135,2.3135,2.3135,2.3135,2.3135,2.3301,2.374,2.3789,2.3965,2.4414,2.4463,2.4648,2.5088,2.5117,2.5293,2.5713,2.5742,2.5742,2.5742,2.5742,2.5742,2.5742,2.5742,2.5742,2.5742,2.5742,2.5742,2.5742,2.5742,2.5742,2.5713,2.5293,2.5117,2.5088,2.4648,2.4238,2.3877,2.3848,2.3574,2.3184,2.3154,2.3135,2.3135,0.0,0.0,0.0,0.0,0.0,0.0,0.0,0.0,0.0,0.0,0.0,0.0,0.0,0.0,0.0,0.0,0.0,0.0,0.0,0.0,0.0,0.0,0.0,1.4107,1.4446,1.4451,1.5031,1.63,1.7641,1.846,1.8715,1.8715,0.0,0.0,1.7034,1.6539,1.5816,1.5816,1.5642,1.5439,1.5703,1.6084,0.0,0.0,0.0,0.0,0.0,0.0,0.0,0.0,1.8008,1.8164,1.9014,1.9287,1.9453,2.0312,2.0566,2.0566,2.0566,2.0566,2.0566,2.0566,2.0693,0.0,0.0,2.1052,2.1277,2.0962,2.1489,2.2217,2.296,2.3135,2.3135,2.3135,2.3135,2.2862,2.212,2.2589,2.292,2.2335,2.2917,2.3555,2.3984,2.4033,2.4199,2.4629,2.4668,2.4736,2.4902,2.4912,2.4912,2.4912,2.4912,2.4912,2.4912,2.5185,2.5185,2.4922,2.5469,2.5742,2.5742,2.5742,2.5586,2.5312,2.5137,2.4912,2.4629,2.4199,2.3935,2.376,2.3496,2.2821,2.2031,2.2862,2.3135,2.3135,0.0,0.0,0.0,0.0,0.0,0.0,0.0,0.0,0.0,0.0,0.0,0.0,0.0,0.0,0.0,0.0,0.0,0.0,0.0,0.0,0.0,0.0,0.0,1.3563,1.3815,1.412,1.4879,1.6025,1.8319,1.9202,1.8715,0.0,0.0,0.0,1.6765,1.6312,1.541,1.5642,1.5633,1.5449,1.5889,1.6328,0.0,0.0,0.0,0.0,0.0,0.0,0.0,0.0,1.8008,1.8164,1.9014,1.9287,1.9453,2.0312,2.0566,2.0566,2.0566,2.0566,2.0489,2.0167,0.0,0.0,1.9082,1.972,2.0323,1.9669,2.0486,2.1569,2.2403,2.2492,2.2492,2.2492,2.2217,2.1765,2.1391,2.1667,2.1676,2.0845,2.1489,2.2063,2.2441,2.2839,2.319,2.362,2.4026,2.4277,2.4414,2.4414,2.4414,2.4414,2.4414,2.4414,2.4414,2.4717,2.4717,2.4424,2.464,2.4929,2.5322,2.5322,2.5146,2.4853,2.4727,2.4307,2.362,2.319,2.2839,2.2441,2.2517,2.1756,2.0845,2.2129,2.2315,2.205,0.0,0.0,0.0,0.0,0.0,0.0,0.0,0.0,0.0,0.0,0.0,0.0,0.0,0.0,0.0,0.0,0.0,0.0,0.0,0.0,0.0,0.0,0.0,1.4422,1.3826,1.3991,1.4493,1.5247,1.7565,1.8715,1.8715,1.8661,0.0,0.0,1.7246,1.6743,1.5468,1.6208,1.6093,1.5459,1.5889,1.6338,1.6787,0.0,0.0,0.0,0.0,0.0,0.0,0.0,1.8008,1.8164,1.9014,1.9287,1.9453,2.0312,2.0566,2.0566,2.0566,2.0566,2.0323,1.9283,0.0,0.0,1.696,1.8313,1.9909,1.952,2.0395,2.1293,2.1293,2.1293,2.1293,2.1293,2.0305,1.9943,2.1114,2.0215,1.9497,1.9497,1.9488,1.9497,1.9497,2.0576,2.1473,2.1897,2.3038,2.3965,2.4293,2.4312,2.4312,2.4312,2.4404,2.4404,2.4312,2.4404,2.4404,2.4312,2.3168,2.3177,2.4414,2.4414,2.4414,2.4385,2.3965,2.3047,2.1897,2.1464,2.0567,1.9579,2.0845,2.0576,1.967,2.0845,2.0576,1.9861,0.0,0.0,0.0,0.0,0.0,0.0,0.0,0.0,0.0,0.0,0.0,0.0,0.0,0.0,0.0,0.0,0.0,0.0,0.0,0.0,0.0,0.0,0.0,0.0,0.0,0.0,1.6384,1.6873,1.807,1.8436,0.0,0.0,0.0,1.5758,0.0,0.0,1.541,1.5633,1.5821,1.5908,1.6357,1.6797,1.7236,0.0,0.0,0.0,0.0,0.0,0.0,0.0,0.0,0.0,1.9014,1.9287,1.9453,2.0312,2.0566,2.0566,2.0566,2.0566,2.0323,1.9283,0.0,0.0,0.0,1.7106,0.0,0.0,1.8503,1.9047,1.9852,2.0034,2.0034,2.0034,1.9761,1.9314,1.8864,1.9222,1.9222,1.8319,1.8956,1.9497,1.9497,1.9852,2.0085,2.0203,2.0577,2.0811,2.0915,2.0924,2.0924,2.0924,2.1744,2.1835,2.0924,2.2135,2.2135,2.0924,2.0916,2.2128,2.4322,2.268,2.216,2.2658,2.1675,2.0819,2.0203,2.0085,1.9314,1.8319,1.9579,1.9314,1.8503,2.0576,2.0576,1.9761,0.0,0.0,0.0,0.0,0.0,0.0,0.0,0.0,0.0,0.0,0.0,0.0,0.0,0.0,0.0,0.0,0.0,0.0,0.0,0.0,0.0,0.0,0.0,0.0,0.0,1.6399,1.7364,0.0,0.0,0.0,0.0,0.0,0.0,1.541,0.0,1.57,1.542,1.5596,1.582,1.6184,1.6738,1.7148,1.7432,0.0,0.0,0.0,0.0,0.0,0.0,0.0,0.0,0.0,1.9072,0.0,1.9668,2.0361,2.0566,2.0566,2.0566,2.0323,1.9678,1.863,1.798,1.7351,1.6191,1.6095,1.6562,1.7509,1.7692,1.7963,1.868,1.8772,1.8772,1.8772,1.8403,1.7948,1.7684,1.7855,1.7762,1.7037,1.7576,1.8033,1.8033,1.8495,1.8772,1.8772,1.9222,1.9497,1.9497,1.9497,1.9497,1.9497,2.0215,2.0215,1.9497,2.0454,2.0454,1.9497,1.9257,2.0306,2.2401,2.0984,2.0594,2.0942,1.9734,1.9055,1.8772,1.8772,1.8041,1.7037,1.8319,1.8041,1.7217,1.9131,1.9123,1.8303,0.0,0.0,0.0,0.0,0.0,0.0,0.0,0.0,0.0,0.0,1.2425,0.0,0.0,0.0,0.0,0.0,0.0,0.0,0.0,0.0,0.0,0.0,0.0,0.0,0.0,0.0,0.0,0.0,0.0,0.0,0.0,0.0,1.6687,1.541,0.0,1.6056,1.5498,1.5898,1.6174,1.6311,1.7061,1.7402,1.748,1.7861,0.0,0.0,0.0,0.0,0.0,0.0,0.0,0.0,1.915,1.958,2.0,2.0439,2.0566,2.0566,2.0479,1.9756,1.8718,1.7496,1.6378,1.55,1.5096,1.5391,1.6075,1.7311,1.7505,1.7505,1.7505,1.7505,1.7505,1.7505,1.6574,1.6197,1.7318,1.6574,1.5832,1.5832,1.5832,1.5832,1.5832,1.685,1.7505,1.7505,1.8588,1.9123,1.9123,1.9123,1.9123,1.9123,1.9314,1.9314,1.9123,1.9314,1.9314,1.9131,1.8048,1.8141,1.9123,1.9123,1.9123,1.9131,1.8048,1.7505,1.7505,1.7505,1.685,1.592,1.7037,1.685,1.592,1.7225,1.685,1.6103,0.0,0.0,0.0,0.0,0.0,0.0,0.0,0.0,0.0,0.0,0.0,0.0,0.0,0.0,0.0,0.0,0.0,0.0,0.0,0.0,0.0,0.0,0.0,0.0,0.0,0.0,0.0,0.0,0.0,0.0,0.0,0.0,0.0,1.541,0.0,1.5772,1.5988,1.6086,1.6465,1.7119,1.7305,1.7578,1.7881,1.7978,1.8008,0.0,0.0,0.0,0.0,0.0,0.0,0.0,1.915,1.958,2.0,2.0439,2.0566,2.0401,1.9599,1.9195,0.0,1.6511,1.5408,1.477,1.4966,1.5237,1.5644,1.6156,1.6204,1.6204,1.6204,1.6204,1.6204,1.6204,1.6015,1.592,1.6197,1.6015,1.5832,1.5832,1.5832,1.5832,1.5832,1.6015,1.6204,1.6204,1.6473,1.656,1.656,1.656,1.656,1.656,1.7591,1.7584,1.656,1.7584,1.7584,1.656,1.6292,1.6386,1.656,1.656,1.656,1.656,1.6292,1.6204,1.6204,1.6204,1.6015,1.5832,1.6109,1.6015,1.592,1.7225,1.685,1.6015,0.0,0.0,0.0,0.0,0.0,0.0,0.0,0.0,0.0,0.0,0.0,0.0,0.0,0.0,0.0,0.0,0.0,0.0,0.0,0.0,0.0,0.0,0.0,0.0,0.0,0.0,0.0,0.0,0.0,0.0,0.0,0.0,0.0,1.542,0.0,1.585,1.6154,1.6576,1.6963,1.7402,1.7598,1.7812,1.8008,1.8008,1.8008,1.8008,1.8008,0.0,0.0,0.0,0.0,0.0,0.0,0.0,2.0273,2.0498,2.0566,2.0401,1.9274,1.8638,0.0,1.5462,1.4606,1.4429,1.4863,1.5077,1.5311,1.5738,1.5832,1.5832,1.5832,1.5832,1.5832,1.5832,1.5832,1.5832,1.5832,1.5832,1.5832,1.5832,1.5832,1.5832,1.5832,1.5832,1.5832,1.5832,1.5832,1.5832,1.5832,1.5832,1.5832,1.5832,1.648,1.648,1.5832,1.648,1.648,1.5832,1.5832,1.5832,1.5832,1.5832,1.5832,1.5832,1.5832,1.5832,1.5832,1.5832,1.5832,1.5832,1.5832,1.5832,1.5927,1.6574,1.6386,1.592,0.0,0.0,0.0,0.0,0.0,0.0,0.0,0.0,0.0,0.0,0.0,0.0,0.0,0.0,0.0,0.0,0.0,0.0,0.0,0.0,0.0,0.0,0.0,0.0,0.0,0.0,0.0,0.0,0.0,0.0,0.0,0.0,0.0,1.5537,0.0,1.6213,1.64,1.707,1.7422,1.7519,1.7871,1.8008,1.8008,1.8008,1.8008,1.8008,1.8008,1.8008,1.8076,1.8496,0.0,0.0,0.0,0.0,2.0566,2.0566,2.0566,2.0401,1.9274,1.806,1.6527,1.458,1.4088,1.4242,1.483,1.4963,1.513,1.5712,1.5832,1.5832,1.5832,1.5832,1.5832,1.5832,1.5832,1.5832,1.5832,1.5832,1.5832,1.5832,1.5832,1.5832,1.5832,1.5832,1.5832,1.5832,1.5832,1.5832,1.5832,1.5832,1.5832,1.5832,1.5832,1.5832,1.5832,1.5832,1.5832,1.5832,1.5832,1.5832,1.5832,1.5832,1.5832,1.5832,1.5832,1.5832,1.5832,1.5832,1.5832,1.5832,1.5832,1.5832,1.5832,1.5832,1.5832,1.5832,0.0,0.0,0.0,0.0,0.0,0.0,0.0,0.0,0.0,0.0,1.1945,0.0,0.0,0.0,0.0,0.0,0.0,0.0,0.0,0.0,0.0,0.0,0.0,0.0,0.0,0.0,0.0,0.0,0.0,0.0,0.0,0.0,0.0,1.6037,0.0,0.0,1.7217,1.7334,1.7598,1.793,1.7988,1.8008,1.8008,1.8008,1.8008,1.8008,1.8008,1.8008,1.8076,1.8496,1.8926,0.0,0.0,0.0,2.0566,2.0566,2.0566,2.0401,1.9274,0.0,1.5621,1.4412,1.4088,1.4242,1.483,1.4963,1.513,1.5712,1.5832,1.5832,1.5832,1.5832,1.5832,1.5832,1.5832,1.5832,1.5832,1.5832,1.5832,1.5832,1.5832,1.5832,1.5832,1.5832,1.5832,1.5832,1.5832,1.5832,1.5832,1.5832,1.5832,1.5832,1.5832,1.5832,1.5832,1.5832,1.5832,1.5832,1.5832,1.5832,1.5832,1.5832,1.5832,1.5832,1.5832,1.5832,1.5832,1.5832,1.5832,1.5832,1.5832,1.5832,1.5832,1.5832,1.5832,1.5832,0.0,0.0,0.0,0.0,0.0,0.0,0.0,0.0,0.0,0.0,0.0,1.1814,0.0,0.0,0.0,0.0,0.0,0.0,0.0,0.0,0.0,0.0,0.0,0.0,0.0,0.0,0.0,0.0,0.0,0.0,0.0,1.5664,1.5879,0.0,0.0,0.0,0.0,1.7637,1.7842,1.8008,1.8008,1.7647,1.7217,1.7217,1.7217,1.7217,1.7217,1.7722,1.8428,1.8857,1.9287,1.9717,2.0137,0.0,0.0,0.0,2.0566,2.0235,1.855,1.6919,1.5455,1.4328,1.4088,1.4195,1.4616,1.4843,1.5084,1.5504,1.5718,1.5832,1.5832,1.5832,1.5832,1.5832,1.5832,1.5832,1.5832,1.5832,1.5832,1.5832,1.5832,1.5832,1.5832,1.5832,1.5832,1.5832,1.5832,1.5832,1.5832,1.5832,1.5832,1.5832,1.5832,1.5832,1.5832,1.5832,1.5832,1.5832,1.5832,1.5832,1.5832,1.5832,1.5832,1.5832,1.5832,1.5832,1.5832,1.5832,1.5832,1.5832,1.5832,1.5832,1.5832,1.5832,1.5832,1.5832,0.0,0.0,0.0,0.0,0.0,0.0,0.0,0.0,0.0,0.0,0.0,0.0,0.0,0.0,0.0,0.0,0.0,0.0,0.0,0.0,0.0,0.0,0.0,0.0,0.0,0.0,0.0,0.0,0.0,0.0,1.5586,1.6025,1.6289,0.0,1.709,1.7441,0.0,0.0,0.0,1.8008,1.7725,1.7207,1.6558,1.6349,1.621,1.6228,1.6325,1.7131,1.8356,1.8883,1.9425,1.999,2.043,2.0566,0.0,0.0,0.0,2.0157,1.8221,1.6927,1.5869,1.4734,1.4334,1.4162,1.4456,1.475,1.505,1.5337,1.5625,1.5832,1.5832,1.5832,1.5832,1.5832,1.5832,1.5832,1.5832,1.5832,1.5832,1.5832,1.5832,1.5832,1.5832,1.5832,1.5832,1.5832,1.5832,1.5832,1.5832,1.5832,1.5832,1.5832,1.5832,1.5832,1.5832,1.5832,1.5832,1.5832,1.5832,1.5832,1.5832,1.5832,1.5832,1.5832,1.5832,1.5832,1.5832,1.5832,1.5832,1.5832,1.5832,1.5832,1.5832,1.5832,1.5832,1.5832,0.0,0.0,0.0,0.0,0.0,0.0,0.0,0.0,0.0,0.0,0.0,0.0,0.0,0.0,1.2881,1.2881,1.3242,1.3652,1.4019,1.4502,1.4756,1.4785,0.0,0.0,1.541,0.0,0.0,0.0,0.0,0.0,1.6096,1.6484,1.6924,1.7314,1.7363,1.7607,1.7978,0.0,0.0,1.794,1.7001,1.6636,1.6498,1.5579,1.5305,1.5275,1.5543,1.6349,1.737,1.8073,1.9041,1.999,2.043,2.0566,2.0566,0.0,0.0,0.0,1.9204,1.8069,1.6927,1.5861,1.481,1.4162,1.4456,1.475,1.505,1.5337,1.5625,1.5832,1.5832,1.5832,1.5832,1.5832,1.5832,1.5832,1.5832,1.5832,1.5832,1.5832,1.5832,1.5832,1.5832,1.5832,1.5832,1.5832,1.5832,1.5832,1.5832,1.5832,1.5832,1.5832,1.5832,1.5832,1.5832,1.5832,1.5832,1.5832,1.5832,1.5832,1.5832,1.5832,1.5832,1.5832,1.5832,1.5832,1.5832,1.5832,1.5832,1.5832,1.5832,1.5832,1.5832,1.5832,1.5832,1.5832,0.0,0.0,0.0,0.0,0.0,0.0,0.0,0.0,0.0,0.0,0.0,0.0,0.0,1.2429,1.3281,1.3281,1.3926,1.4394,1.4541,1.4951,1.5186,1.5186,1.5332,1.541,1.541,0.0,0.0,0.0,0.0,1.5908,1.6145,1.6807,1.7236,1.7393,1.7666,1.7871,1.8008,1.8008,0.0,0.0,1.7001,1.621,1.5579,1.4593,1.4243,1.4281,1.4556,1.5476,1.6721,1.7943,1.8291,1.8364,1.9307,1.9599,1.9687,2.0401,2.0566,2.0401,1.9274,1.8718,1.798,1.6191,1.5372,1.5006,1.4385,1.4469,1.4763,1.5057,1.5351,1.5611,1.5792,1.5832,1.5832,1.5832,1.5832,1.5832,1.5832,1.5832,1.5832,1.5832,1.5832,1.5832,1.5832,1.5832,1.5832,1.5832,1.5832,1.5832,1.5832,1.5832,1.5832,1.5832,1.5832,1.5832,1.5832,1.5832,1.5832,1.5832,1.5832,1.5832,1.5832,1.5832,1.5832,1.5832,1.5832,1.5832,1.5832,1.5832,1.5832,1.5832,1.5832,1.5832,1.5832,1.5832,1.5832,1.5832,0.0,0.0,0.0,0.0,0.0,0.0,0.0,0.0,0.0,0.0,0.0,0.0,0.0,0.0,1.2963,1.3111,1.3663,1.4147,1.4573,1.4839,1.5108,1.541,1.541,1.541,1.541,1.541,0.0,0.0,0.0,0.0,0.0,1.7109,1.7461,1.7607,1.7881,1.8008,0.0,0.0,1.8008,1.7872,1.6645,1.579,1.5037,1.3865,1.3402,1.346,1.3815,1.4857,1.6081,1.7083,1.7376,1.7423,1.823,1.839,1.863,1.9756,2.0079,2.0001,1.9599,0.0,1.8069,1.6601,1.5703,1.4977,1.425,1.4309,1.4603,1.4903,1.5197,1.5484,1.5772,1.5832,1.5832,1.5832,1.5832,1.5832,1.5832,1.5832,1.5832,1.5832,1.5832,1.5832,1.5832,1.5832,1.5832,1.5832,1.5832,1.5832,1.5832,1.5832,1.5832,1.5832,1.5832,1.5832,1.5832,1.5832,1.5832,1.5832,1.5832,1.5832,1.5832,1.5832,1.5832,1.5832,1.5832,1.5832,1.5832,1.5832,1.5832,1.5832,1.5832,1.5832,1.5832,1.5832,1.5832,1.5832,0.0,0.0,0.0,0.0,0.0,0.0,0.0,0.0,0.0,0.0,0.0,0.0,0.0,0.0,0.0,1.2406,1.2438,1.2932,1.4127,1.4213,1.4569,1.5352,1.541,1.542,1.5371,1.543,0.0,0.0,0.0,0.0,0.0,0.0,1.7617,1.8008,1.8008,1.8008,1.794,1.8008,1.8008,1.7794,1.5939,1.5234,1.4982,1.344,1.2822,1.2903,1.3427,1.4272,1.5262,1.5591,1.6355,1.7172,1.7261,1.7253,1.7496,1.8638,1.9036,1.9204,0.0,0.0,0.0,1.7253,1.5718,1.4173,1.4088,1.4302,1.4589,1.489,1.5177,1.5471,1.5765,1.5818,1.5832,1.5832,1.5832,1.5832,1.5832,1.5832,1.5832,1.5832,1.5832,1.5832,1.5832,1.5832,1.5832,1.5832,1.5832,1.5832,1.5832,1.5832,1.5832,1.5832,1.5832,1.5832,1.5832,1.5832,1.5832,1.5832,1.5832,1.5832,1.5832,1.5832,1.5832,1.5832,1.5832,1.5832,1.5832,1.5832,1.5832,1.5832,1.5832,1.5832,1.5832,1.5832,1.5832,1.5832,0.0,0.0,0.0,0.0,0.0,0.0,0.0,0.0,0.0,0.0,0.0,0.0,0.0,0.0,1.2406,1.2767,1.28,1.3202,1.4145,1.4213,1.4332,1.451,1.5108,1.5321,1.5065,1.5629,0.0,0.0,0.0,0.0,0.0,0.0,0.0,0.0,1.8008,1.7647,1.706,1.7716,1.7579,1.6853,1.5658,1.5234,1.4982,1.344,1.2822,1.2903,1.3427,1.3797,1.4239,1.5352,1.5379,1.5144,1.5869,1.6108,1.6511,1.847,1.9036,1.9036,1.9362,0.0,0.0,0.0,0.0,0.0,1.425,1.4148,1.4289,1.4583,1.4877,1.517,1.5464,1.5691,1.5832,1.5832,1.5832,1.5832,1.5832,1.5832,1.5832,1.5832,1.5832,1.5832,1.5832,1.5832,1.5832,1.5832,1.5832,1.5832,1.5832,1.5832,1.5832,1.5832,1.5832,1.5832,1.5832,1.5832,1.5832,1.5832,1.5832,1.5832,1.5832,1.5832,1.5832,1.5832,1.5832,1.5832,1.5832,1.5832,1.5832,1.5832,1.5832,1.5832,1.5832,1.5832,1.5832,1.5832,0.0,0.0,0.0,0.0,0.0,0.0,0.0,0.0,0.0,0.0,0.0,0.0,0.0,0.0,0.0,1.195,1.1973,1.2458,1.3606,1.3726,1.3925,1.4387,1.5257,1.5518,1.5106,1.5894,0.0,0.0,0.0,0.0,0.0,0.0,0.0,0.0,0.0,0.0,0.0,1.6576,1.6507,1.5939,1.5446,1.5039,1.4637,1.3425,1.3013,1.318,1.3661,1.3828,1.3931,1.4754,1.4657,1.4166,1.481,1.5054,1.5379,1.7082,1.7658,0.0,0.0,0.0,0.0,1.6026,0.0,0.0,1.425,1.4088,1.4168,1.4456,1.4656,1.4903,1.5317,1.5531,1.5691,1.5812,1.5832,1.5832,1.5832,1.5832,1.5832,1.5832,1.5832,1.5832,1.5832,1.5832,1.5832,1.5832,1.5832,1.5832,1.5832,1.5832,1.5832,1.5832,1.5832,1.5832,1.5832,1.5832,1.5832,1.5832,1.5832,1.5832,1.5832,1.5832,1.5832,1.5832,1.5832,1.5832,1.5832,1.5832,1.5832,1.5832,1.5832,1.5832,1.5832,1.5832,1.5832,1.5832,0.0,0.0,0.0,0.0,0.0,0.0,0.0,0.0,0.0,0.0,0.0,0.0,0.0,0.0,0.0,0.0,1.0651,1.129,1.2821,1.2923,1.3397,1.4416,1.5439,1.5751,1.5245,1.6268,0.0,0.0,0.0,0.0,0.0,0.0,0.0,0.0,0.0,0.0,0.0,1.5163,1.5117,1.4935,1.5078,1.4718,1.4184,1.3526,1.342,1.3599,1.3981,1.4088,1.4088,1.4088,1.4088,1.4088,1.4088,1.4088,1.4328,1.5379,1.5696,0.0,0.0,0.0,0.0,1.5538,1.4817,0.0,1.4088,1.4088,1.4162,1.4422,1.4496,1.4683,1.5204,1.5351,1.5478,1.5738,1.5805,1.5832,1.5832,1.5832,1.5832,1.5832,1.5832,1.5832,1.5832,1.5832,1.5832,1.5832,1.5832,1.5832,1.5832,1.5832,1.5832,1.5832,1.5832,1.5832,1.5832,1.5832,1.5832,1.5832,1.5832,1.5832,1.5832,1.5832,1.5832,1.5832,1.5832,1.5832,1.5832,1.5832,1.5832,1.5832,1.5832,1.5832,1.5832,1.5832,1.5832,1.5832,0.8804,0.0,0.0,0.0,0.0,0.0,0.0,0.0,0.0,0.0,0.0,0.0,0.0,0.0,0.0,0.0,1.0775,1.1351,1.2289,1.2626,1.2882,1.3076,1.4625,1.5263,1.4841,1.643,0.0,0.0,0.0,0.0,0.0,0.0,0.0,0.0,0.0,0.0,0.0,1.4879,1.447,1.3325,1.4067,1.4411,1.4432,1.3755,1.3512,1.3599,1.3981,1.4088,1.4088,1.4088,1.4088,1.4088,1.4088,1.4088,1.4328,1.5379,1.5696,1.5779,1.5944,1.5861,1.5455,1.4657,1.425,0.0,1.4088,1.4088,1.4102,1.4162,1.4355,1.4556,1.4669,1.5077,1.5418,1.5471,1.5678,1.5832,1.5832,1.5832,1.5832,1.5832,1.5832,1.5832,1.5832,1.5832,1.5832,1.5832,1.5832,1.5832,1.5832,1.5832,1.5832,1.5832,1.5832,1.5832,1.5832,1.5832,1.5832,1.5832,1.5832,1.5832,1.5832,1.5832,1.5832,1.5832,1.5832,1.5832,1.5832,1.5832,1.5832,1.5832,1.5832,1.5832,1.5832,1.5832,1.5832,1.5832,0.8991,0.0,0.0,0.0,0.0,0.0,0.0,0.0,0.0,0.0,0.0,0.0,0.0,0.0,0.0,0.0,0.0,0.0,0.0,0.0,1.2788,1.2883,1.422,1.4926,1.4952,1.6278,0.0,0.0,0.0,0.0,0.0,0.0,0.0,0.0,0.0,0.0,0.0,1.3917,1.3586,1.3044,1.386,1.4154,1.4055,1.3743,1.3734,1.3881,1.4035,1.4088,1.4088,1.4088,1.4088,1.4088,1.4088,1.4088,1.4166,1.4734,1.4894,1.4894,1.4894,1.4894,1.4734,1.425,1.4088,0.0,0.0,1.4088,1.4088,1.4088,1.4202,1.4349,1.4496,1.4763,1.5057,1.5351,1.5518,1.5665,1.5805,1.5832,1.5832,1.5832,1.5832,1.5832,1.5832,1.5832,1.5832,1.5832,1.5832,1.5832,1.5832,1.5832,1.5832,1.5832,1.5832,1.5832,1.5832,1.5832,1.5832,1.5832,1.5832,1.5832,1.5832,1.5832,1.5832,1.5832,1.5832,1.5832,1.5832,1.5832,1.5832,1.5832,1.5832,1.5832,1.5832,1.5832,1.5832,1.5832,0.9261,0.0,0.0,0.0,0.0,0.0,0.0,0.0,0.0,0.0,0.0,0.0,0.0,0.0,0.0,0.0,0.0,0.0,1.2183,1.2308,1.2527,1.2926,1.3832,1.4517,1.4871,1.6,0.0,0.0,0.0,0.0,0.0,0.0,0.0,0.0,0.0,0.0,0.0,1.3017,1.2959,1.3346,1.386,1.3944,1.3728,1.3728,1.3874,1.4088,1.4088,1.4088,1.4088,1.4088,1.4088,1.4088,1.4088,1.4088,1.4088,1.4088,1.4088,1.4088,1.4088,1.4088,1.4088,1.4088,1.4088,1.4088,0.0,0.0,0.0,1.4088,1.4088,1.4162,1.4396,1.4482,1.4676,1.515,1.5324,1.5478,1.5712,1.5792,1.5832,1.5832,1.5832,1.5832,1.5832,1.5832,1.5832,1.5832,1.5832,1.5832,1.5832,1.5832,1.5832,1.5832,1.5832,1.5832,1.5832,1.5832,1.5832,1.5832,1.5832,1.5832,1.5832,1.5832,1.5832,1.5832,1.5832,1.5832,1.5832,1.5832,1.5832,1.5832,1.5832,1.5832,1.5832,1.5832,1.5832,1.5832,0.9631,0.9632,0.0,0.0,0.0,0.0,0.0,0.0,0.0,0.0,0.0,0.0,0.0,0.8952,0.8581,0.8697,0.8918,0.9558,1.0575,1.0864,1.1458,1.2318,1.3252,1.3845,1.3882,1.5649,1.621,0.0,0.0,0.0,0.0,0.0,0.0,0.0,1.2879,0.0,0.0,1.2808,1.3073,1.3587,1.3635,1.3823,1.4035,1.4035,1.4055,1.4088,1.4088,1.4088,1.4088,1.4088,1.4088,1.4088,1.4088,1.4088,1.4088,1.4088,1.4088,1.4088,1.4088,1.4088,1.4088,1.4088,1.4088,1.4088,1.4088,0.0,1.4088,1.4088,0.0,1.4095,1.4128,0.0,0.0,1.4609,1.5057,1.5404,1.5438,1.5665,1.5832,1.5832,1.5832,1.5832,1.5832,1.5832,1.5832,1.5832,1.5832,1.5832,1.5832,1.5832,1.5832,1.5832,1.5832,1.5832,1.5832,1.5832,1.5832,1.5832,1.5832,1.5832,1.5832,1.5832,1.5832,1.5832,1.5832,1.5832,1.5832,1.5832,1.5832,1.5832,1.5832,1.5832,1.5832,1.5832,1.5832,1.5832,0.9937,0.9921,0.0,0.0,0.0,0.0,0.0,0.0,0.0,0.0,0.0,0.0,1.0609,1.0416,1.0131,0.9586,0.9812,1.0177,1.0625,1.0724,0.0,1.2224,1.2666,1.3171,1.3673,1.4522,1.5021,0.0,1.5579,0.0,0.0,0.0,0.0,0.0,1.2898,1.2899,1.3026,1.3193,1.3414,1.3661,1.3834,1.3975,1.4088,1.4088,1.4088,1.4088,1.4088,1.4088,1.4088,1.4088,1.4088,1.4088,1.4088,1.4088,1.4088,1.4088,1.4088,1.4088,1.4088,1.4088,1.4088,1.4088,1.4088,1.4088,1.4088,1.4088,1.4088,1.4088,0.0,0.0,0.0,0.0,0.0,0.0,1.473,1.5003,1.5351,1.5504,1.5645,1.5805,1.5832,1.5832,1.5832,1.5832,1.5832,1.5832,1.5832,1.5832,1.5832,1.5832,1.5832,1.5832,1.5832,1.5832,1.5832,1.5832,1.5832,1.5832,1.5832,1.5832,1.5832,1.5832,1.5439,1.4657,1.4657,1.4268,1.3499,1.3499,1.3499,1.3499,1.3499,1.4465,1.5832,1.5832,1.5832,1.5832,1.0221,0.0,0.0,0.0,0.0,0.0,0.0,0.0,1.1022,1.1102,1.1086,1.1037,1.1108,1.087,1.0437,0.9772,0.9638,0.9658,0.9959,1.0265,1.0714,1.1477,1.2003,1.2512,1.2931,1.3448,1.3954,0.0,0.0,0.0,0.0,0.0,0.0,0.0,1.3113,1.3253,1.3347,1.3554,1.3687,1.3781,1.4001,1.4088,1.4088,1.4088,1.4088,1.4088,1.4088,1.4088,1.4088,1.4088,1.4088,1.4088,1.4088,1.4088,1.4088,1.4088,1.4088,1.4088,1.4088,1.4088,1.4088,1.4088,1.4088,1.4088,1.4088,1.4088,1.4088,1.4088,1.4088,0.0,0.0,0.0,1.4155,1.4369,0.0,1.4669,1.5097,1.5224,1.5418,1.5785,1.5832,1.5832,1.5832,1.5832,1.5832,1.5832,1.5832,1.5832,1.5832,1.5832,1.5832,1.5832,1.5832,1.5832,1.5832,1.5439,1.5242,1.5242,1.4956,1.4758,1.4758,1.4758,1.4268,1.3392,1.3392,1.2813,1.1945,1.1945,1.1945,1.1945,1.1945,1.3011,1.4758,1.5146,1.5534,1.5832,1.0604,1.0598,0.0,0.0,1.0624,0.0,0.0,1.0982,1.1096,1.1376,1.0654,1.0195,1.0438,0.8729,0.7716,0.7833,0.7019,0.6872,0.7859,0.8841,0.9372,0.9372,1.1248,1.1848,1.0932,1.2705,1.3237,1.2372,0.0,0.0,0.0,0.0,0.0,0.0,1.3206,1.3367,1.3627,1.3641,1.3808,1.4075,1.4082,1.4088,1.4088,1.4088,1.4088,1.4088,1.4088,1.4088,1.4088,1.4088,1.4088,1.4088,1.4088,1.4088,1.4088,1.4088,1.4088,1.4088,1.4088,1.4088,1.4088,1.4088,1.4088,1.4088,1.4088,1.4088,1.4088,1.4088,1.4088,1.4088,1.4088,1.4088,1.4088,1.4095,1.4335,0.0,0.0,1.4796,1.519,1.5758,1.5832,1.5832,1.5832,1.5832,1.5832,1.5832,1.5832,1.5832,1.5832,1.5832,1.5832,1.5832,1.5832,1.5832,1.5832,1.4561,1.3968,1.3974,1.2624,1.2042,1.2042,1.2042,1.2042,1.1945,1.1945,1.1945,1.1945,1.1945,1.1945,1.1945,1.1945,1.195,1.2139,1.3494,1.4752,1.5832,0.0,0.0,0.0,0.9758,1.0356,1.0942,1.1195,1.088,1.0606,1.0762,1.0069,0.9617,0.9697,0.9105,0.8463,0.7855,0.748,0.7403,0.7783,0.877,0.9296,0.9296,1.1248,1.1848,1.0783,1.2131,1.2762,1.2592,1.2969,0.0,0.0,0.0,0.0,0.0,0.0,1.3848,1.3935,1.3935,1.3995,1.4088,1.4088,1.4088,1.3997,1.3203,1.3379,1.3913,1.2345,1.2778,1.3997,1.3203,1.347,1.4088,1.4088,1.4088,1.4088,1.4088,1.4088,1.4088,1.4088,1.4088,1.4088,1.4088,1.4088,1.4088,1.4088,1.4088,1.4088,1.4088,1.4088,1.4088,1.4088,1.4088,1.4088,1.4088,1.4168,1.4302,0.0,1.4776,1.5037,1.5237,1.5591,1.5832,1.5832,1.5832,1.5832,1.5832,1.5832,1.5832,1.5832,1.5832,1.5832,1.5832,1.4949,1.4555,1.4555,1.3204,1.2624,1.2528,1.2139,1.1945,1.1945,1.1945,1.1458,1.0681,1.0681,1.0096,0.9312,0.9312,0.9312,0.9312,0.9312,0.9899,1.0779,1.2139,1.2818,1.321,0.992,0.9658,0.9456,0.9432,1.0405,1.1093,1.1064,1.0657,1.0292,1.0019,0.9579,0.9296,0.9296,0.8998,0.8542,0.7859,0.748,0.7249,0.7249,0.8237,0.8613,0.8237,1.0196,1.0795,0.9734,1.119,1.2017,1.2203,1.2698,1.3066,0.0,0.0,0.0,0.0,0.0,1.4088,1.4088,1.4088,1.4088,1.4088,1.4088,1.4088,1.3913,1.2334,1.2425,1.3209,1.13,1.1821,1.3294,1.2072,1.2772,1.4004,1.3561,1.3737,1.4088,1.4088,1.4088,1.4088,1.4088,1.4088,1.4088,1.4088,1.4088,1.4088,1.4088,1.4088,1.4088,1.4088,1.4088,1.4088,1.4088,1.4088,1.4088,1.4088,1.4088,1.4155,0.0,1.4623,1.4803,1.4803,1.5231,1.5565,1.5665,1.5671,1.5718,1.5818,1.5832,1.5832,1.5832,1.5832,1.5629,1.514,1.4364,1.368,1.3199,1.1848,1.1268,1.1268,1.0779,1.0485,1.0485,1.0485,1.0092,0.9316,0.9316,0.8825,0.8038,0.8038,0.8038,0.8038,0.8038,0.8531,0.941,1.0779,1.1556,1.1945,1.0624,1.0074,0.9434,0.9553,1.0485,1.0975,1.0456,1.028,1.0003,0.9346,0.9145,0.9145,0.9145,0.8313,0.7706,0.7706,0.6872,0.6338,0.6338,0.7249,0.7326,0.6338,0.8237,0.8846,0.7859,1.0055,1.12,1.1212,1.2523,1.338,0.0,0.0,0.0,0.0,1.4088,1.4088,1.4088,1.3997,1.3997,1.3913,1.3997,1.3997,1.3652,1.1391,1.1214,1.198,1.0869,1.1209,1.2072,1.0864,1.1997,1.3737,1.2589,1.3027,1.3913,1.3913,1.3913,1.3913,1.3997,1.3997,1.4004,1.4088,1.4088,1.4088,1.4088,1.4088,1.4088,1.4088,1.4088,1.4088,1.4088,1.4088,1.4088,1.4088,1.4088,1.4088,1.4088,1.4322,1.4496,1.4496,1.475,1.5037,1.5344,1.5391,1.5511,1.5785,1.5818,1.5832,1.5832,1.573,1.5146,1.3974,1.3776,1.3102,1.1848,1.0583,0.9899,0.9899,0.8627,0.8038,0.8038,0.8038,0.8038,0.8038,0.8038,0.8038,0.8038,0.8038,0.8038,0.8038,0.8038,0.8038,0.8137,0.941,1.0681,1.175,0.817,0.8077,0.8067,0.8262,0.8415,0.8724,0.9468,0.898,0.8401,0.8232,0.7557,0.7099,0.7099,0.6872,0.6721,0.6721,0.6412,0.6338,0.6338,0.7249,0.7326,0.6338,0.8237,0.8846,0.7859,1.0055,1.1288,1.1561,1.2891,1.3681,1.3975,0.0,0.0,0.0,0.0,1.4088,1.3997,1.3118,1.2248,1.1563,1.2419,1.2248,1.1305,0.9927,0.9492,0.9575,0.8444,0.9309,1.0864,0.9753,1.0269,1.1477,1.1128,1.1214,1.1477,1.1477,1.1477,1.1649,1.251,1.2766,1.2942,1.3906,1.4088,1.4088,1.4088,1.4088,1.4088,1.4088,1.4088,1.4088,1.4088,1.4088,1.4088,1.4088,1.4088,1.4088,1.4088,1.4155,1.4202,1.4202,1.4269,1.4516,1.5023,1.5271,1.5431,1.5504,1.5705,1.5832,1.5832,1.4854,1.4262,1.3878,1.2032,1.0872,1.0485,0.9213,0.8531,0.8528,0.8137,0.8038,0.8038,0.8038,0.8038,0.8038,0.8038,0.8038,0.8038,0.8038,0.8038,0.8038,0.8038,0.8038,0.8038,0.8432,0.8726,0.9019,0.7826,0.773,0.7545,0.7223,0.7034,0.7358,0.8447,0.8161,0.7629,0.7176,0.6644,0.6338,0.6338,0.6338,0.6338,0.6338,0.6338,0.6338,0.6338,0.6795,0.6868,0.6338,0.7403,0.7744,0.7282,0.902,1.0354,1.1165,1.2419,1.34,1.4088,0.0,0.0,0.0,0.0,1.4088,1.3997,1.2851,1.1895,1.1381,1.1472,1.1209,0.0,0.9323,0.889,0.8715,0.7489,0.8273,0.9666,0.8536,0.9226,1.0524,1.0009,1.0183,1.0611,1.0611,1.0611,1.0783,1.1381,1.1552,1.1815,1.3033,1.3294,1.3464,1.3997,1.4088,1.4088,1.4088,1.4088,1.4088,1.4088,1.4088,1.4088,1.4088,1.4088,1.4088,1.4088,1.4088,1.4088,1.4088,1.4088,1.4215,1.4549,1.4843,1.507,1.5197,1.5478,1.535,1.4766,1.4201,1.3392,1.2226,1.0774,0.9706,0.9118,0.8333,0.8038,0.8038,0.8038,0.8038,0.8038,0.8038,0.8038,0.8038,0.8038,0.8038,0.8038,0.8038,0.8038,0.8038,0.8038,0.8038,0.8038,0.8038,0.8038,0.8038,0.8264,0.797,0.7305,0.6419,0.6338,0.6567,0.748,0.7629,0.7326,0.6416,0.6338,0.6338,0.6338,0.6338,0.6338,0.6338,0.6338,0.6338,0.6338,0.6338,0.6338,0.6338,0.6278,0.6346,0.6468,0.7768,0.9092,1.0439,1.1691,1.2942,1.4088,0.0,0.0,0.0,0.0,1.3913,1.3561,1.2681,1.2066,1.1552,1.0692,1.0265,1.0005,0.9061,0.8627,0.854,0.7492,0.7753,0.854,0.7489,0.8444,1.0005,0.8973,0.9318,1.0178,1.0178,1.0178,1.0178,1.0351,1.0351,1.0611,1.1809,1.2072,1.2328,1.3385,1.3737,1.3822,1.3822,1.3997,1.4088,1.4088,1.4088,1.4088,1.4088,1.4088,1.4088,1.4088,1.4088,1.4088,1.4088,1.4088,0.0,1.4088,1.4349,1.4629,1.4883,1.5177,1.4785,1.3485,1.3507,1.2485,1.0096,0.9801,0.9217,0.8038,0.8038,0.8038,0.8038,0.8038,0.8038,0.8038,0.8038,0.8038,0.8038,0.8038,0.8038,0.8038,0.8038,0.8038,0.8038,0.8038,0.8038,0.8038,0.8038,0.8038,0.8038,0.667,0.6612,0.65,0.6338,0.6338,0.6338,0.6567,0.6567,0.649,0.6338,0.6338,0.6338,0.6338,0.6338,0.6338,0.6338,0.6338,0.6338,0.6338,0.6338,0.6338,0.6338,0.6373,0.6447,0.6471,0.7891,0.9237,1.0439,1.1691,1.2942,1.4088,1.4088,0.0,0.0,0.0,1.3039,1.1305,1.1986,1.06,0.8093,0.8886,0.8623,0.7661,0.7489,0.7404,0.7404,0.7139,0.7228,0.7404,0.7139,0.7401,0.7661,0.7489,0.7577,0.7749,0.7749,0.7749,0.7921,0.8886,0.9235,0.9492,1.0611,1.0864,1.0956,1.1128,1.1906,1.2589,1.2589,1.3379,1.4088,1.4088,1.4088,1.4088,1.4088,1.4088,1.4088,1.4088,1.4088,1.4088,1.4088,1.4088,1.4088,1.4088,1.4349,1.4543,1.4596,1.4877,1.4578,1.3479,1.2487,1.136,0.9993,0.892,0.8233,0.8038,0.8038,0.8038,0.8038,0.8038,0.8038,0.8038,0.8038,0.8038,0.8038,0.8038,0.8038,0.8038,0.8038,0.8038,0.8038,0.8038,0.8038,0.8038,0.8038,0.8038,0.8038,0.6318,0.6338,0.6264,0.6271,0.6271,0.6271,0.6278,0.6274,0.6268,0.6338,0.6338,0.6338,0.6338,0.6338,0.6338,0.6338,0.6338,0.6338,0.6338,0.6338,0.6295,0.6366,0.6434,0.6546,0.6705,0.7436,0.8653,1.0529,1.1155,1.2339,1.4088,1.4088,1.4088,1.4088,1.347,1.2254,1.0611,1.0524,0.9575,0.8013,0.8013,0.7577,0.7139,0.7139,0.7139,0.7139,0.7139,0.7139,0.7139,0.7139,0.7139,0.7139,0.7139,0.7139,0.7139,0.7139,0.7139,0.7228,0.7841,0.7929,0.8277,0.9405,0.9753,0.9836,1.0438,1.1042,1.1552,1.2157,1.2766,1.3379,1.3997,1.4088,1.4088,1.4088,1.4088,1.4088,1.4088,1.4088,1.3906,1.3203,1.3203,1.3203,1.3203,1.3322,1.3582,1.421,1.4569,1.397,1.2171,1.1646,1.0594,0.8882,0.821,0.796,0.8038,0.8038,0.8038,0.8038,0.8038,0.8038,0.8038,0.8038,0.8038,0.8038,0.8038,0.8038,0.8038,0.8038,0.8038,0.8038,0.8038,0.8038,0.8038,0.8038,0.8038,0.8038,0.6338,0.6264,0.6271,0.6278,0.5957,0.5643,0.5652,0.5724,0.5954,0.6264,0.6264,0.6338,0.6338,0.6338,0.6338,0.6338,0.6338,0.6338,0.6338,0.6288,0.6356,0.6468,0.6532,0.6681,0.6922,0.6959,0.8056,1.0269,1.0524,1.1649,1.3737,1.3737,1.3561,1.33,1.2334,1.1295,1.0178,0.9323,0.8715,0.8452,0.7489,0.7139,0.7139,0.7139,0.7139,0.7139,0.7139,0.7139,0.7139,0.7139,0.7139,0.7139,0.7139,0.7139,0.7139,0.7139,0.7139,0.7139,0.7139,0.7139,0.7316,0.8277,0.854,0.8711,0.9657,1.0091,1.0524,1.1381,1.1815,1.2334,1.347,1.3737,1.3822,1.4088,1.4088,1.4088,1.4088,1.4088,1.3646,1.2413,1.2504,1.2504,1.198,1.2419,1.2942,1.3646,1.4124,1.3386,1.0949,1.1026,1.0297,0.8137,0.7887,0.7966,0.8283,0.812,0.8038,0.8038,0.8038,0.8038,0.8038,0.8038,0.8038,0.8038,0.8038,0.8038,0.8038,0.8038,0.8038,0.8038,0.8038,0.8038,0.8038,0.8038,0.8038,0.8038,0.6338,0.6278,0.6288,0.6281,0.4693,0.3437,0.3437,0.3982,0.4846,0.6116,0.6268,0.6338,0.6338,0.6338,0.6338,0.6338,0.6338,0.6338,0.6338,0.638,0.6458,0.6471,0.6736,0.6898,0.6929,0.7054,0.7738,0.9061,1.0096,1.1214,1.2498,1.2498,1.1901,1.0956,1.0783,1.0096,0.9065,0.8978,0.8277,0.7228,0.7139,0.7139,0.7139,0.7139,0.7139,0.7139,0.7139,0.7139,0.7139,0.7139,0.7139,0.7139,0.7139,0.7139,0.7139,0.7139,0.7139,0.7139,0.7139,0.7139,0.7139,0.7228,0.7228,0.7312,0.7401,0.8277,0.9061,0.9235,1.0009,1.1123,1.2242,1.2498,1.2851,1.3913,1.4088,1.4088,1.4088,1.4088,1.3646,1.2413,1.3294,1.3124,1.0956,1.2693,1.3555,1.2504,1.3496,1.3188,1.0939,1.0791,1.0357,0.9177,0.8306,0.8297,0.9364,0.8456,0.8038,0.8038,0.8038,0.8038,0.8038,0.8038,0.8038,0.8038,0.8038,0.8038,0.8038,0.8038,0.8038,0.8038,0.8038,0.8038,0.8038,0.8038,0.8038,0.8038,0.6278,0.5266,0.48,0.6071,0.559,0.4557,0.3295,0.3765,0.4711,0.6149,0.6281,0.6264,0.6271,0.6264,0.6338,0.6338,0.6338,0.6295,0.6383,0.6441,0.6556,0.6736,0.6865,0.697,0.7054,0.7112,0.7665,0.889,1.0009,1.0869,1.1295,1.198,1.13,0.9579,0.9579,0.8882,0.7841,0.7841,0.7577,0.7139,0.7139,0.7139,0.7139,0.7139,0.7139,0.7139,0.7139,0.7139,0.7139,0.7139,0.7139,0.7139,0.7139,0.7139,0.7139,0.7139,0.7139,0.7139,0.7139,0.7139,0.7139,0.7139,0.7139,0.7139,0.7139,0.7492,0.8013,0.8715,0.9836,1.0783,1.1209,1.1815,1.2498,1.2942,1.3027,1.3027,1.3027,1.2425,1.1563,1.0438,1.0707,1.0621,0.9666,1.1047,1.2077,1.2242,1.3379,1.3089,1.0829,1.066,0.9874,0.818,0.7791,0.7778,0.8343,0.8021,0.7902,0.7902,0.7994,0.8038,0.8038,0.8038,0.8038,0.8038,0.8038,0.8038,0.8038,0.8038,0.8038,0.8038,0.8038,0.8038,0.8038,0.8038,0.8038,0.8038,0.6149,0.5045,0.4101,0.4413,0.4413,0.3938,0.2438,0.2592,0.3775,0.6012,0.5973,0.587,0.6274,0.6268,0.6338,0.6338,0.6338,0.6322,0.6464,0.6515,0.6658,0.6919,0.697,0.7037,0.7139,0.7139,0.7489,0.8364,0.9488,1.0096,1.0096,1.095,1.0265,0.8364,0.8364,0.7929,0.7139,0.7139,0.7139,0.7139,0.7139,0.7139,0.7139,0.7139,0.7139,0.7139,0.7139,0.7139,0.7139,0.7139,0.7139,0.7139,0.7139,0.7139,0.7139,0.7139,0.7139,0.7139,0.7139,0.7139,0.7139,0.7139,0.7139,0.7139,0.7139,0.7139,0.7316,0.8193,0.8969,0.9657,1.0005,1.0783,1.1381,1.1724,1.1809,1.1809,1.1809,1.1123,1.0178,0.9065,0.9235,0.9148,0.8452,0.9749,1.0778,1.1295,1.2431,1.2345,1.0697,1.0265,0.938,0.7926,0.7528,0.7604,0.808,0.7865,0.777,0.7814,0.7919,0.7994,0.8038,0.8038,0.8038,0.8038,0.8038,0.8038,0.8038,0.8038,0.8038,0.8038,0.8038,0.8038,0.8038,0.8038,0.8038,0.8038,0.5865,0.6267,0.498,0.0786,0.0079,0.0079,0.0079,0.0078,0.1568,0.578,0.5107,0.4766,0.6119,0.6268,0.6338,0.6338,0.6338,0.6322,0.6464,0.6614,0.6766,0.6922,0.7061,0.7139,0.7139,0.7139,0.7139,0.7139,0.8364,0.889,0.889,0.8978,0.8277,0.7139,0.7139,0.7139,0.7139,0.7139,0.7139,0.7139,0.7139,0.7139,0.7139,0.7139,0.7139,0.7139,0.7139,0.7139,0.7139,0.7139,0.7139,0.7139,0.7139,0.7139,0.7139,0.7139,0.7139,0.7139,0.7139,0.7139,0.7139,0.7139,0.7139,0.7139,0.7139,0.7139,0.7139,0.7139,0.7139,0.7489,0.8715,0.889,0.9323,1.0438,1.0611,1.0611,1.0611,1.0611,1.0178,0.9065,0.9923,0.9657,0.7312,0.9222,1.0183,0.9061,1.0009,1.0611,1.0611,0.9492,0.889,0.8894,0.7919,0.7909,0.9066,0.8073,0.7672,0.7811,0.7814,0.7892,0.8038,0.8038,0.8038,0.8038,0.8038,0.8038,0.8038,0.8038,0.8038,0.8038,0.8038,0.8038,0.8038,0.8038,0.8038,0.8038,0.1887,0.2044,0.1572,0.0236,-0.0,-0.0,-0.0,-0.0,0.0471,0.1808,0.3297,0.4709,0.6132,0.6274,0.6338,0.6338,0.6338,0.6366,0.661,0.6675,0.681,0.7061,0.7115,0.7139,0.7139,0.7139,0.7139,0.7139,0.8277,0.889,0.889,0.8017,0.7492,0.7139,0.7139,0.7139,0.7139,0.7139,0.7139,0.7139,0.7139,0.7139,0.7139,0.7139,0.7139,0.7139,0.7139,0.7139,0.7139,0.7139,0.7139,0.7139,0.7139,0.7139,0.7139,0.7139,0.7139,0.7139,0.7139,0.7139,0.7139,0.7139,0.7139,0.7139,0.7139,0.7139,0.7139,0.7139,0.7139,0.7228,0.7577,0.8364,0.8978,0.941,0.9405,0.9405,0.9405,0.8707,0.8097,0.7753,0.8013,0.7921,0.7139,0.8536,0.9323,0.889,0.9235,0.9405,0.9405,0.9061,0.854,0.7665,0.7364,0.7389,0.7738,0.7545,0.7465,0.7512,0.7617,0.7743,0.7885,0.7991,0.8038,0.8038,0.8038,0.8038,0.8038,0.8038,0.8038,0.8038,0.8038,0.8038,0.8038,0.8038,0.8038,0.8038,-0.0,-0.0,-0.0,-0.0,-0.0,-0.0,-0.0,-0.0,-0.0,-0.0,0.1569,0.3534,0.6067,0.6288,0.6271,0.6338,0.6338,0.6386,0.6681,0.6702,0.6831,0.7129,0.7139,0.7139,0.7139,0.7139,0.7139,0.7139,0.7841,0.8189,0.8189,0.7489,0.7139,0.7139,0.7139,0.7139,0.7139,0.7139,0.7139,0.7139,0.7139,0.7139,0.7139,0.7139,0.7139,0.7139,0.7139,0.7139,0.7139,0.7139,0.7139,0.7139,0.7139,0.7139,0.7139,0.7139,0.7139,0.7139,0.7139,0.7139,0.7139,0.7139,0.7139,0.7139,0.7139,0.7139,0.7139,0.7139,0.7139,0.7139,0.7139,0.7753,0.8189,0.8189,0.8189,0.8189,0.8189,0.7577,0.7139,0.7139,0.7139,0.7139,0.7139,0.7753,0.8189,0.8189,0.8189,0.8189,0.8189,0.8189,0.7841,0.7139,0.7139,0.7139,0.7139,0.7238,0.7316,0.7373,0.7526,0.7675,0.7814,0.7909,0.7984,0.8038,0.8038,0.8038,0.8038,0.8038,0.8038,0.8038,0.8038,0.8038,0.8038,0.8038,0.8038,0.8038,-0.0,-0.0,-0.0,-0.0,-0.0,-0.0,-0.0,-0.0,-0.0,-0.0,-0.0,0.1489,0.5445,0.6149,0.621,0.6106,0.6183,0.6386,0.6681,0.6702,0.6831,0.7129,0.7139,0.7139,0.7139,0.7139,0.7139,0.7139,0.7139,0.7139,0.7139,0.7139,0.7139,0.7139,0.7139,0.7139,0.7139,0.7139,0.7139,0.7139,0.7139,0.7139,0.7139,0.7139,0.7139,0.7139,0.7139,0.7139,0.7139,0.7139,0.7139,0.7139,0.7139,0.7139,0.7139,0.7139,0.7139,0.7139,0.7139,0.7139,0.7139,0.7139,0.7139,0.7139,0.7139,0.7139,0.7139,0.7139,0.7139,0.7139,0.7139,0.7139,0.7139,0.7139,0.7139,0.7139,0.7139,0.7139,0.7139,0.7139,0.7139,0.7139,0.7139,0.7139,0.7139,0.7139,0.7139,0.7139,0.7139,0.7139,0.7139,0.7139,0.7139,0.7139,0.7139,0.7139,0.7214,0.7356,0.7509,0.7651,0.778,0.779,0.7875,0.8011,0.8021,0.8024,0.8024,0.8035,0.8038,0.8038,0.8038,0.8038,0.8038,0.8038,0.8038,0.8038,-0.0,-0.0,-0.0,-0.0,-0.0,-0.0,-0.0,-0.0,-0.0,-0.0,-0.0,0.0392,0.1411,0.4403,0.5671,0.3984,0.5323,0.6396,0.6681,0.6702,0.6831,0.7129,0.7139,0.7139,0.7139,0.7139,0.7139,0.7139,0.7139,0.7139,0.7139,0.7139,0.7139,0.7139,0.7139,0.7139,0.7139,0.7139,0.7139,0.7139,0.7139,0.7139,0.7139,0.7139,0.7139,0.7139,0.7139,0.7139,0.7139,0.7139,0.7139,0.7139,0.7139,0.7139,0.7139,0.7139,0.7139,0.7139,0.7139,0.7139,0.7139,0.7139,0.7139,0.7139,0.7139,0.7139,0.7139,0.7139,0.7139,0.7139,0.7139,0.7139,0.7139,0.7139,0.7139,0.7139,0.7139,0.7139,0.7139,0.7139,0.7139,0.7139,0.7139,0.7139,0.7139,0.7139,0.7139,0.7139,0.7139,0.7139,0.7139,0.7139,0.7139,0.7139,0.7139,0.7139,0.7156,0.7197,0.7353,0.7444,0.7478,0.7597,0.7672,0.7709,0.7818,0.7865,0.7875,0.7991,0.8038,0.8038,0.8038,0.8038,0.8038,0.8038,0.8038,0.8038,-0.0,-0.0,-0.0,-0.0,-0.0,-0.0,-0.0,-0.0,-0.0,-0.0,-0.0,-0.0,-0.0,0.2042,0.3299,0.3132,0.5096,0.6407,0.6605,0.6709,0.6837,0.7129,0.7139,0.7139,0.7139,0.7139,0.7139,0.7139,0.7139,0.7139,0.7139,0.7139,0.7139,0.7139,0.7139,0.7139,0.7139,0.7139,0.7139,0.7139,0.7139,0.7139,0.7139,0.7139,0.7139,0.7139,0.7139,0.7139,0.7139,0.7139,0.7139,0.7139,0.7139,0.7139,0.7139,0.7139,0.7139,0.7139,0.7139,0.7139,0.7139,0.7139,0.7139,0.7139,0.7139,0.7139,0.7139,0.7139,0.7139,0.7139,0.7139,0.7139,0.7139,0.7139,0.7139,0.7139,0.7139,0.7139,0.7139,0.7139,0.7139,0.7139,0.7139,0.7139,0.7139,0.7139,0.7139,0.7139,0.7139,0.7139,0.7139,0.7139,0.7139,0.7139,0.7139,0.7139,0.7139,0.7143,0.7224,0.7302,0.7373,0.7458,0.7533,0.7604,0.7682,0.7716,0.7726,0.7875,0.7936,0.7943,0.8011,0.8038,0.8038,0.8038,0.8038,0.8038,-0.0,-0.0,-0.0,-0.0,-0.0,-0.0,-0.0,-0.0,-0.0,-0.0,-0.0,-0.0,-0.0,-0.0,0.0707,0.2511,0.4318,0.5524,0.6025,0.6549,0.6848,0.7132,0.7143,0.7139,0.7139,0.7139,0.7139,0.7139,0.7139,0.7139,0.7139,0.7139,0.7139,0.7139,0.7139,0.7139,0.7139,0.7139,0.7139,0.7139,0.7139,0.7139,0.7139,0.7139,0.7139,0.7139,0.7139,0.7139,0.7139,0.7139,0.7139,0.7139,0.7139,0.7139,0.7139,0.7139,0.7139,0.7139,0.7139,0.7139,0.7139,0.7139,0.7139,0.7139,0.7139,0.7139,0.7139,0.7139,0.7139,0.7139,0.7139,0.7139,0.7139,0.7139,0.7139,0.7139,0.7139,0.7139,0.7139,0.7139,0.7139,0.7139,0.7139,0.7139,0.7139,0.7139,0.7139,0.7139,0.7139,0.7139,0.7139,0.7139,0.7139,0.7139,0.7139,0.7139,0.7139,0.7139,0.7139,0.721,0.7336,0.7336,0.7407,0.7529,0.7556,0.7563,0.7577,0.7719,0.778,0.779,0.7923,0.7974,0.7977,0.7997,0.8004,0.8007,-0.0,-0.0,-0.0,-0.0,-0.0,-0.0,-0.0,-0.0,-0.0,-0.0,-0.0,-0.0,-0.0,-0.0,0.0157,0.0471,0.0785,0.1759,0.3508,0.5618,0.6854,0.7068,0.7061,0.7139,0.7139,0.7139,0.7139,0.7139,0.7139,0.7139,0.7139,0.7139,0.7139,0.7139,0.7139,0.7139,0.7139,0.7139,0.7139,0.7139,0.7139,0.7139,0.7139,0.7139,0.7139,0.7139,0.7139,0.7139,0.7139,0.7139,0.7139,0.7139,0.7139,0.7139,0.7139,0.7139,0.7139,0.7139,0.7139,0.7139,0.7139,0.7139,0.7139,0.7139,0.7139,0.7139,0.7139,0.7139,0.7139,0.7139,0.7139,0.7139,0.7139,0.7139,0.7139,0.7139,0.7139,0.7139,0.7139,0.7139,0.7139,0.7139,0.7139,0.7139,0.7139,0.7139,0.7139,0.7139,0.7139,0.7139,0.7139,0.7139,0.7139,0.7139,0.7139,0.7139,0.7139,0.7139,0.7139,0.7153,0.7177,0.7177,0.719,0.7217,0.735,0.7407,0.7417,0.757,0.7634,0.7634,0.7658,0.7668,0.7682,0.7801,0.7845,0.7865,-0.0,-0.0,-0.0,-0.0,-0.0,-0.0,-0.0,-0.0,-0.0,-0.0,-0.0,-0.0,-0.0,-0.0,-0.0,-0.0,-0.0,0.0398,0.1398,0.3746,0.5704,0.7044,0.7109,0.7139,0.7139,0.7139,0.7139,0.7139,0.7139,0.7139,0.7139,0.7139,0.7139,0.7139,0.7139,0.7139,0.7139,0.7139,0.7139,0.7139,0.7139,0.7139,0.7139,0.7139,0.7139,0.7139,0.7139,0.7139,0.7139,0.7139,0.7139,0.7139,0.7139,0.7139,0.7139,0.7139,0.7139,0.7139,0.7139,0.7139,0.7139,0.7139,0.7139,0.7139,0.7139,0.7139,0.7139,0.7139,0.7139,0.7139,0.7139,0.7139,0.7139,0.7139,0.7139,0.7139,0.7139,0.7139,0.7139,0.7139,0.7139,0.7139,0.7139,0.7139,0.7139,0.7139,0.7139,0.7139,0.7139,0.7139,0.7139,0.7139,0.7139,0.7139,0.7139,0.7139,0.7139,0.7139,0.7139,0.7139,0.7139,0.7139,0.7139,0.7143,0.7217,0.7248,0.7258,0.7414,0.7478,0.7485,0.7567,0.76,0.7607,0.7675,0.7695,0.7706,-0.0,-0.0,-0.0,-0.0,-0.0,-0.0,-0.0,-0.0,-0.0,-0.0,-0.0,-0.0,-0.0,-0.0,-0.0,-0.0,-0.0,-0.0,-0.0,0.2811,0.5178,0.7042,0.7082,0.7061,0.7061,0.7143,0.7139,0.7139,0.7139,0.7139,0.7139,0.7139,0.7139,0.7139,0.7139,0.7139,0.7139,0.7139,0.7139,0.7139,0.7139,0.7139,0.7139,0.7139,0.7139,0.7139,0.7139,0.7139,0.7139,0.7139,0.7139,0.7139,0.7139,0.7139,0.7139,0.7139,0.7139,0.7139,0.7139,0.7139,0.7139,0.7139,0.7139,0.7139,0.7139,0.7139,0.7139,0.7139,0.7139,0.7139,0.7139,0.7139,0.7139,0.7139,0.7139,0.7139,0.7139,0.7139,0.7139,0.7139,0.7139,0.7139,0.7139,0.7139,0.7139,0.7139,0.7139,0.7139,0.7139,0.7139,0.7139,0.7139,0.7139,0.7139,0.7139,0.7139,0.7139,0.7139,0.7139,0.7139,0.7139,0.7139,0.7139,0.7139,0.7139,0.7139,0.7149,0.7268,0.7319,0.7329,0.7448,0.7492,0.7499,0.7533,0.7546,0.7553,-0.0,-0.0,-0.0,-0.0,-0.0,-0.0,-0.0,-0.0,-0.0,-0.0,-0.0,-0.0,-0.0,-0.0,-0.0,-0.0,-0.0,-0.0,-0.0,0.4278,0.6925,0.708,0.7109,0.7084,0.7084,0.7061,0.7139,0.7139,0.7139,0.7139,0.7139,0.7139,0.7139,0.7139,0.7139,0.7139,0.7139,0.7139,0.7139,0.7139,0.7139,0.7139,0.7139,0.7139,0.7139,0.7139,0.7139,0.7139,0.7139,0.7139,0.7139,0.7139,0.7139,0.7139,0.7139,0.7139,0.7139,0.7139,0.7139,0.7139,0.7139,0.7139,0.7139,0.7139,0.7139,0.7139,0.7139,0.7139,0.7139,0.7139,0.7139,0.7139,0.7139,0.7139,0.7139,0.7139,0.7139,0.7139,0.7139,0.7139,0.7139,0.7139,0.7139,0.7139,0.7139,0.7139,0.7139,0.7139,0.7139,0.7139,0.7139,0.7139,0.7139,0.7139,0.7139,0.7139,0.7139,0.7139,0.7139,0.7139,0.7139,0.7139,0.7139,0.7139,0.7139,0.7139,0.7139,0.7153,0.7156,0.7156,0.717,0.7173,0.719,0.7336,0.739,0.7407,-0.0,-0.0,-0.0,-0.0,-0.0,-0.0,-0.0,-0.0,-0.0,-0.0,-0.0,-0.0,-0.0,-0.0,-0.0,-0.0,-0.0,-0.0,-0.0,0.17,0.337,0.4858,0.5435,0.6083,0.7084,0.7064,0.7139,0.7139,0.7139,0.7139,0.7139,0.7139,0.7139,0.7139,0.7139,0.7139,0.7139,0.7139,0.7139,0.7139,0.7139,0.7139,0.7139,0.7139,0.7139,0.7139,0.7139,0.7139,0.7139,0.7139,0.7139,0.7139,0.7139,0.7139,0.7139,0.7139,0.7139,0.7139,0.7139,0.7139,0.7139,0.7139,0.7139,0.7139,0.7139,0.7139,0.7139,0.7139,0.7139,0.7139,0.7139,0.7139,0.7139,0.7139,0.7139,0.7139,0.7139,0.7139,0.7139,0.7139,0.7139,0.7139,0.7139,0.7139,0.7139,0.7139,0.7139,0.7139,0.7139,0.7139,0.7139,0.7139,0.7139,0.7139,0.7139,0.7139,0.7139,0.7139,0.7139,0.7139,0.7139,0.7139,0.7139,0.7139,0.7139,0.7139,0.7139,0.7139,0.7139,0.7139,0.7139,0.7139,0.7146,0.7207,0.7227,0.7238,-0.0,-0.0,-0.0,-0.0,-0.0,-0.0,-0.0,-0.0,-0.0,-0.0,-0.0,-0.0,-0.0,-0.0,-0.0,-0.0,-0.0,-0.0,-0.0,-0.0,0.143,0.4599,0.4539,0.527,0.7084,0.7064,0.7139,0.7139,0.7139,0.7139,0.7139,0.7139,0.7139,0.7139,0.7139,0.7139,0.7139,0.7139,0.7139,0.7139,0.7139,0.7139,0.7139,0.7139,0.7139,0.7139,0.7139,0.7139,0.7139,0.7139,0.7139,0.7139,0.7139,0.7139,0.7139,0.7139,0.7139,0.7139,0.7139,0.7139,0.7139,0.7139,0.7139,0.7139,0.7139,0.7139,0.7139,0.7139,0.7139,0.7139,0.7139,0.7139,0.7139,0.7139,0.7139,0.7139,0.7139,0.7139,0.7139,0.7139,0.7139,0.7139,0.7139,0.7139,0.7139,0.7139,0.7139,0.7139,0.7139,0.7139,0.7139,0.7139,0.7139,0.7139,0.7139,0.7139,0.7139,0.7139,0.7139,0.7139,0.7139,0.7139,0.7139,0.7139,0.7139,0.7139,0.7139,0.7139,0.7139,0.7139,0.7139,0.7139,0.7139,0.7139,0.7139,0.7139,-0.0,-0.0,-0.0,-0.0,-0.0,-0.0,-0.0,-0.0,-0.0,-0.0,-0.0,-0.0,-0.0,-0.0,-0.0,-0.0,-0.0,-0.0,-0.0,-0.0,0.2125,0.6817,0.487,0.4734,0.7084,0.7064,0.7139,0.7139,0.7139,0.7139,0.7139,0.7139,0.7139,0.7139,0.7139,0.7139,0.7139,0.7139,0.7139,0.7139,0.7139,0.7139,0.7139,0.7139,0.7139,0.7139,0.7139,0.7139,0.7139,0.7139,0.7139,0.7139,0.7139,0.7139,0.7139,0.7139,0.7139,0.7139,0.7139,0.7139,0.7139,0.7139,0.7139,0.7139,0.7139,0.7139,0.7139,0.7139,0.7139,0.7139,0.7139,0.7139,0.7139,0.7139,0.7139,0.7139,0.7139,0.7139,0.7139,0.7139,0.7139,0.7139,0.7139,0.7139,0.7139,0.7139,0.7139,0.7139,0.7139,0.7139,0.7139,0.7139,0.7139,0.7139,0.7139,0.7139,0.7139,0.7139,0.7139,0.7139,0.7139,0.7139,0.7139,0.7139,0.7139,0.7139,0.7139,0.7139,0.7139,0.7139,0.7139,0.7139,0.7139,0.7139,0.7139,0.7139,-0.0,-0.0,-0.0,-0.0,-0.0,-0.0,-0.0,-0.0,-0.0,-0.0,-0.0,-0.0,-0.0,-0.0,-0.0,-0.0,-0.0,-0.0,-0.0,-0.0,0.0664,0.2031,0.4664,0.6385,0.7098,0.7081,0.7068,0.7139,0.7139,0.7139,0.7139,0.7139,0.7139,0.7139,0.7139,0.7139,0.7139,0.7139,0.7139,0.7139,0.7139,0.7139,0.7139,0.7139,0.7139,0.7139,0.7139,0.7139,0.7139,0.7139,0.7139,0.7139,0.7139,0.7139,0.7139,0.7139,0.7139,0.7139,0.7139,0.7139,0.7139,0.7139,0.7139,0.7139,0.7139,0.7139,0.7139,0.7139,0.7139,0.7139,0.7139,0.7139,0.7139,0.7139,0.7139,0.7139,0.7139,0.7139,0.7139,0.7139,0.7139,0.7139,0.7139,0.7139,0.7139,0.7139,0.7139,0.7139,0.7139,0.7139,0.7139,0.7139,0.7139,0.7139,0.7139,0.7139,0.7139,0.7139,0.7139,0.7139,0.7139,0.7139,0.7139,0.7139,0.7139,0.7139,0.7139,0.7139,0.7139,0.7139,0.7139,0.7139,0.7139,0.7139,0.7139,0.7139,-0.0,-0.0,-0.0,-0.0,-0.0,-0.0,-0.0,-0.0,-0.0,-0.0,-0.0,-0.0,-0.0,-0.0,-0.0,-0.0,-0.0,-0.0,-0.0,-0.0,-0.0,-0.0,0.2785,0.4721,0.5733,0.6637,0.7084,0.7071,0.7068,0.7064,0.7064,0.7143,0.7139,0.7139,0.7139,0.7139,0.7139,0.7139,0.7139,0.7139,0.7139,0.7139,0.7139,0.7139,0.7139,0.7139,0.7139,0.7139,0.7139,0.7139,0.7139,0.7139,0.7139,0.7139,0.7139,0.7139,0.7139,0.7139,0.7139,0.7139,0.7139,0.7139,0.7139,0.7139,0.7139,0.7139,0.7139,0.7139,0.7139,0.7139,0.7139,0.7139,0.7139,0.7139,0.7139,0.7139,0.7139,0.7139,0.7139,0.7139,0.7139,0.7139,0.7139,0.7139,0.7139,0.7139,0.7139,0.7139,0.7139,0.7139,0.7139,0.7139,0.7139,0.7139,0.7139,0.7139,0.7139,0.7139,0.7139,0.7139,0.7139,0.7139,0.7139,0.7139,0.7139,0.7139,0.7139,0.7139,0.7139,0.7139,0.7139,0.7139,0.7139,0.7139,0.7139,0.7139,-0.0,-0.0,-0.0,-0.0,-0.0,-0.0,-0.0,-0.0,-0.0,-0.0,-0.0,-0.0,-0.0,-0.0,-0.0,-0.0,-0.0,-0.0,-0.0,-0.0,-0.0,-0.0,-0.0,0.105,0.3204,0.5369,0.6554,0.6828,0.6818,0.6992,0.7084,0.7061,0.7139,0.7139,0.7139,0.7139,0.7139,0.7139,0.7139,0.7139,0.7139,0.7139,0.7139,0.7139,0.7139,0.7139,0.7139,0.7139,0.7139,0.7139,0.7139,0.7139,0.7139,0.7139,0.7139,0.7139,0.7139,0.7139,0.7139,0.7139,0.7139,0.7139,0.7139,0.7139,0.7139,0.7139,0.7139,0.7139,0.7139,0.7139,0.7139,0.7139,0.7139,0.7139,0.7139,0.7139,0.7139,0.7139,0.7139,0.7139,0.7139,0.7139,0.7139,0.7139,0.7139,0.7139,0.7139,0.7139,0.7139,0.7139,0.7139,0.7139,0.7139,0.7139,0.7139,0.7139,0.7139,0.7139,0.7139,0.7139,0.7139,0.7139,0.7139,0.7139,0.7139,0.7139,0.7139,0.7139,0.7139,0.7139,0.7139,0.7139,0.7139,0.7228,0.7228,0.7316,-0.0,-0.0,-0.0,-0.0,-0.0,-0.0,-0.0,-0.0,-0.0,-0.0,-0.0,-0.0,-0.0,-0.0,-0.0,-0.0,-0.0,-0.0,-0.0,-0.0,-0.0,-0.0,-0.0,0.0257,0.0787,0.1242,0.2502,0.4378,0.5001,0.5902,0.7084,0.7061,0.7139,0.7139,0.7139,0.7139,0.7139,0.7139,0.7139,0.7139,0.7139,0.7139,0.7139,0.7139,0.7139,0.7139,0.7139,0.7139,0.7139,0.7139,0.7139,0.7139,0.7139,0.7139,0.7139,0.7139,0.7139,0.7139,0.7139,0.7139,0.7139,0.7139,0.7139,0.7139,0.7139,0.7139,0.7139,0.7139,0.7139,0.7139,0.7139,0.7139,0.7139,0.7139,0.7139,0.7139,0.7139,0.7139,0.7139,0.7139,0.7139,0.7139,0.7139,0.7139,0.7139,0.7139,0.7139,0.7139,0.7139,0.7139,0.7139,0.7139,0.7139,0.7139,0.7139,0.7139,0.7139,0.7139,0.7139,0.7139,0.7139,0.7139,0.7139,0.7139,0.7139,0.7139,0.7139,0.7139,0.7139,0.7139,0.7139,0.7139,0.7228,0.8189,0.854,0.8627,-0.0,-0.0,-0.0,-0.0,-0.0,-0.0,-0.0,-0.0,-0.0,-0.0,-0.0,-0.0,-0.0,-0.0,-0.0,-0.0,-0.0,-0.0,-0.0,-0.0,-0.0,-0.0,-0.0,-0.0,-0.0,-0.0,0.0627,0.1879,0.2322,0.4109,0.7094,0.7074,0.7061,0.7139,0.7139,0.7139,0.7139,0.7139,0.7139,0.7139,0.7139,0.7139,0.7139,0.7139,0.7139,0.7139,0.7139,0.7139,0.7139,0.7139,0.7139,0.7139,0.7139,0.7139,0.7139,0.7139,0.7139,0.7139,0.7139,0.7139,0.7126,0.7054,0.7041,0.7058,0.7126,0.7088,0.7041,0.7041,0.6983,0.6932,0.6932,0.699,0.7041,0.7041,0.7095,0.7139,0.7139,0.7139,0.7139,0.7139,0.7139,0.7139,0.7139,0.7139,0.7139,0.7139,0.7139,0.7139,0.7139,0.7139,0.7139,0.7139,0.7139,0.7139,0.7139,0.7139,0.7139,0.7139,0.7139,0.7139,0.7139,0.7139,0.7139,0.7139,0.7139,0.7139,0.7139,0.7139,0.7139,0.7139,0.7139,0.7489,0.8013,0.8627,0.9235,0.984,-0.0,-0.0,-0.0,-0.0,-0.0,-0.0,-0.0,-0.0,-0.0,-0.0,-0.0,-0.0,-0.0,-0.0,-0.0,-0.0,-0.0,-0.0,-0.0,-0.0,-0.0,-0.0,-0.0,-0.0,-0.0,-0.0,-0.0,-0.0,-0.0,0.2235,0.6551,0.6907,0.7074,0.7139,0.7139,0.7139,0.7139,0.7139,0.7139,0.7139,0.7139,0.7139,0.7139,0.7139,0.7139,0.7139,0.7139,0.7139,0.7139,0.7139,0.7139,0.7139,0.7139,0.7139,0.7139,0.7139,0.7139,0.7136,0.7109,0.7102,0.7068,0.6926,0.6892,0.6919,0.7037,0.6973,0.6892,0.6892,0.679,0.6702,0.6702,0.6803,0.6892,0.6892,0.699,0.7075,0.7099,0.7102,0.7112,0.7136,0.7139,0.7139,0.7139,0.7139,0.7139,0.7139,0.7139,0.7139,0.7139,0.7139,0.7139,0.7139,0.7139,0.7139,0.7139,0.7139,0.7139,0.7139,0.7139,0.7139,0.7139,0.7139,0.7139,0.7139,0.7139,0.7139,0.7139,0.7139,0.7139,0.7139,0.7316,0.8017,0.8978,0.9323,1.0183,1.1219,-0.0,-0.0,-0.0,-0.0,-0.0,-0.0,-0.0,-0.0,-0.0,-0.0,-0.0,-0.0,-0.0,-0.0,-0.0,-0.0,-0.0,-0.0,-0.0,-0.0,-0.0,-0.0,-0.0,-0.0,-0.0,-0.0,-0.0,-0.0,-0.0,0.1429,0.4109,0.6177,0.7074,0.7139,0.7139,0.7139,0.7139,0.7139,0.7139,0.7139,0.7139,0.7139,0.7139,0.7139,0.7139,0.7139,0.7139,0.7139,0.7139,0.7139,0.7139,0.7139,0.7139,0.7139,0.7139,0.7139,0.7139,0.7112,0.699,0.6956,0.6922,0.677,0.6732,0.6736,0.6756,0.6746,0.6732,0.6732,0.6715,0.6702,0.6702,0.6719,0.6732,0.6732,0.6749,0.6807,0.6939,0.6956,0.7004,0.7126,0.7139,0.7139,0.7139,0.7139,0.7139,0.7139,0.7139,0.7139,0.7139,0.7139,0.7139,0.7139,0.7139,0.7139,0.7139,0.7139,0.7139,0.7139,0.7139,0.7139,0.7139,0.7139,0.7139,0.7139,0.7139,0.7139,0.7139,0.7139,0.7139,0.7228,0.8277,0.8715,0.9148,1.1123,1.2595,1.3652,-0.0,-0.0,-0.0,-0.0,-0.0,-0.0,-0.0,-0.0,-0.0,-0.0,-0.0,-0.0,-0.0,-0.0,-0.0,-0.0,-0.0,-0.0,-0.0,-0.0,-0.0,-0.0,-0.0,-0.0,-0.0,-0.0,-0.0,-0.0,-0.0,0.1253,0.3659,0.6002,0.7078,0.7139,0.7139,0.7139,0.7139,0.7139,0.7139,0.7139,0.7139,0.7139,0.7139,0.7139,0.7139,0.7139,0.7139,0.7139,0.7139,0.7139,0.7139,0.7139,0.7139,0.7139,0.7126,0.7044,0.7021,0.699,0.6841,0.68,0.6763,0.661,0.6573,0.6552,0.6474,0.6454,0.6478,0.6556,0.6512,0.6454,0.6454,0.6519,0.6573,0.6573,0.6644,0.6722,0.6793,0.68,0.6858,0.7004,0.7092,0.7139,0.7139,0.7139,0.7139,0.7139,0.7139,0.7139,0.7139,0.7139,0.7139,0.7139,0.7139,0.7139,0.7139,0.7139,0.7139,0.7139,0.7139,0.7139,0.7139,0.7139,0.7139,0.7139,0.7139,0.7139,0.7139,0.7139,0.7489,0.8189,0.8715,0.9666,1.1042,1.2687,1.3646,1.4088]},{"header":{"parameterUnit":"m.s-1","parameterCategory":1,"la1":30.6,"la2":28.766,"lo1":-90.7593,"lo2":-88.6598,"dy":0.0162,"dx":0.0183,"nx":116,"ny":114,"refTime":"2023-10-18T06:00:00:Z","depth":0,"parameterNumber":3,"parameterNumberName":"V-component_of_WINDS"},"data":[0.0,0.0,0.0,0.0,0.0,0.0,0.0,0.0,0.0,0.0,0.0,0.0,0.0,0.0,0.0,0.0,0.0,0.0,0.0,0.0,0.0,0.0,0.0,0.0,0.0,0.0,0.0,0.0,0.0,0.0,0.0,0.0,0.0,0.0,0.0,0.0,0.0,0.0,0.0,0.0,0.0,0.0,0.0,0.0,0.0,0.0,0.0,0.0,0.0,0.0,0.0,0.0,0.0,0.0,0.0,0.0,0.0,0.0,0.0,0.0,0.0,0.0,0.0,0.0,0.0,0.0,0.0,0.0,0.0,0.0,0.0,0.0,0.0,0.0,0.0,0.0,0.0,0.0,0.0,0.0,0.0,0.0,0.0,0.0,0.0,0.0,0.0,0.0,0.0,0.0,0.0,0.0,0.0,0.0,0.0,0.0,0.0,0.0,0.0,0.0,0.0,0.0,0.0,0.0,0.0,0.0,0.0,0.0,0.0,0.0,0.0,0.0,0.0,0.0,0.0,0.0,0.0,0.0,0.0,0.0,0.0,0.0,0.0,0.0,0.0,0.0,0.0,0.0,0.0,0.0,0.0,0.0,0.0,0.0,0.0,0.0,0.0,0.0,0.0,0.0,0.0,0.0,0.0,0.0,0.0,0.0,0.0,0.0,0.0,0.0,0.0,0.0,0.0,0.0,0.0,0.0,0.0,0.0,0.0,0.0,0.0,0.0,0.0,0.0,0.0,0.0,0.0,0.0,0.0,0.0,0.0,0.0,0.0,0.0,0.0,0.0,0.0,0.0,0.0,0.0,0.0,0.0,0.0,0.0,0.0,0.0,0.0,0.0,0.0,0.0,0.0,0.0,0.0,0.0,0.0,0.0,0.0,0.0,0.0,0.0,0.0,0.0,0.0,0.0,0.0,0.0,0.0,0.0,0.0,0.0,0.0,0.0,0.0,0.0,0.0,0.0,0.0,0.0,0.0,0.0,0.0,0.0,0.0,0.0,0.0,0.0,0.0,0.0,0.0,0.0,0.0,0.0,0.0,0.0,0.0,0.0,0.0,0.0,0.0,0.0,0.0,0.0,0.0,0.0,0.0,0.0,0.0,0.0,0.0,0.0,0.0,0.0,0.0,0.0,0.0,0.0,0.0,0.0,0.0,0.0,0.0,0.0,0.0,0.0,0.0,0.0,0.0,0.0,0.0,0.0,0.0,0.0,0.0,0.0,0.0,0.0,0.0,0.0,0.0,0.0,0.0,0.0,0.0,0.0,0.0,0.0,0.0,0.0,0.0,0.0,0.0,0.0,0.0,0.0,0.0,0.0,0.0,0.0,0.0,0.0,0.0,0.0,0.0,0.0,0.0,0.0,0.0,0.0,0.0,0.0,0.0,0.0,0.0,0.0,0.0,0.0,0.0,0.0,0.0,0.0,0.0,0.0,0.0,0.0,0.0,0.0,0.0,0.0,0.0,0.0,0.0,0.0,0.0,0.0,0.0,0.0,0.0,0.0,0.0,0.0,0.0,0.0,0.0,0.0,0.0,0.0,0.0,0.0,0.0,0.0,0.0,0.0,0.0,0.0,0.0,0.0,0.0,0.0,0.0,0.0,0.0,0.0,0.0,0.0,0.0,0.0,0.0,0.0,0.0,0.0,0.0,0.0,0.0,0.0,0.0,0.0,0.0,0.0,0.0,0.0,0.0,0.0,0.0,0.0,0.0,0.0,0.0,0.0,0.0,0.0,0.0,0.0,0.0,0.0,0.0,0.0,0.0,0.0,0.0,0.0,0.0,0.0,0.0,0.0,0.0,0.0,0.0,0.0,0.0,0.0,0.0,0.0,0.0,0.0,0.0,0.0,0.0,0.0,0.0,0.0,0.0,0.0,0.0,0.0,0.0,0.0,0.0,0.0,0.0,0.0,0.0,0.0,0.0,0.0,0.0,0.0,0.0,0.0,0.0,0.0,0.0,0.0,0.0,0.0,0.0,0.0,0.0,0.0,0.0,0.0,0.0,0.0,0.0,0.0,0.0,0.0,0.0,0.0,0.0,0.0,0.0,0.0,0.0,0.0,0.0,0.0,0.0,0.0,0.0,0.0,0.0,0.0,0.0,0.0,0.0,0.0,0.0,0.0,0.0,0.0,0.0,0.0,0.0,0.0,0.0,0.0,0.0,0.0,0.0,0.0,0.0,0.0,0.0,0.0,0.0,0.0,0.0,0.0,0.0,0.0,0.0,0.0,0.0,0.0,0.0,0.0,0.0,0.0,0.0,0.0,0.0,0.0,0.0,0.0,0.0,0.0,0.0,0.0,0.0,0.0,0.0,0.0,0.0,0.0,0.0,0.0,0.0,0.0,0.0,0.0,0.0,0.0,0.0,0.0,0.0,0.0,0.0,0.0,0.0,0.0,0.0,0.0,0.0,0.0,0.0,0.0,0.0,0.0,0.0,0.0,0.0,0.0,0.0,0.0,0.0,0.0,0.0,0.0,0.0,0.0,0.0,0.0,0.0,0.0,0.0,0.0,0.0,0.0,0.0,0.0,0.0,0.0,0.0,0.0,0.0,0.0,0.0,0.0,0.0,0.0,0.0,0.0,0.0,0.0,0.0,0.0,0.0,0.0,0.0,0.0,0.0,0.0,0.0,0.0,0.0,0.0,0.0,0.0,0.0,0.0,0.0,0.0,0.0,0.0,0.0,0.0,0.0,0.0,0.0,0.0,0.0,0.0,0.0,0.0,0.0,0.0,0.0,0.0,0.0,0.0,0.0,0.0,0.0,0.0,0.0,0.0,0.0,0.0,0.0,0.0,0.0,0.0,0.0,0.0,0.0,0.0,0.0,0.0,0.0,0.0,0.0,0.0,0.0,0.0,0.0,0.0,0.0,0.0,0.0,0.0,0.0,0.0,0.0,0.0,0.0,0.0,0.0,0.0,0.0,0.0,0.0,0.0,0.0,0.0,0.0,0.0,0.0,0.0,0.0,0.0,0.0,0.0,0.0,0.0,0.0,0.0,0.0,0.0,0.0,0.0,0.0,0.0,0.0,0.0,0.0,0.0,0.0,0.0,0.0,0.0,0.0,0.0,0.0,0.0,0.0,0.0,0.0,0.0,0.0,0.0,0.0,0.0,0.0,0.0,0.0,0.0,0.0,0.0,0.0,0.0,0.0,0.0,0.0,0.0,0.0,0.0,0.0,0.0,0.0,0.0,0.0,0.0,0.0,0.0,0.0,0.0,0.0,0.0,0.0,0.0,0.0,0.0,0.0,0.0,0.0,0.0,0.0,0.0,0.0,0.0,0.0,0.0,0.0,0.0,0.0,0.0,0.0,0.0,0.0,0.0,0.0,0.0,0.0,0.0,0.0,0.0,0.0,0.0,0.0,0.0,0.0,0.0,0.0,0.0,0.0,0.0,0.0,0.0,0.0,0.0,0.0,0.0,0.0,0.0,0.0,0.0,0.0,0.0,0.0,0.0,0.0,0.0,0.0,0.0,0.0,0.0,0.0,0.0,0.0,0.0,0.0,0.0,0.0,0.0,0.0,0.0,0.0,0.0,0.0,0.0,0.0,0.0,0.0,0.0,0.0,0.0,0.0,0.0,0.0,0.0,0.0,0.0,0.0,0.0,0.0,0.0,0.0,0.0,0.0,0.0,0.0,0.0,0.0,0.0,0.0,0.0,0.0,0.0,0.0,0.0,0.0,0.0,0.0,0.0,0.0,0.0,0.0,0.0,0.0,0.0,0.0,0.0,0.0,0.0,0.0,0.0,0.0,0.0,0.0,0.0,0.0,0.0,0.0,0.0,0.0,0.0,0.0,0.0,0.0,0.0,0.0,0.0,0.0,0.0,0.0,0.0,0.0,0.0,0.0,0.0,0.0,0.0,0.0,0.0,0.0,0.0,0.0,0.0,0.0,0.0,0.0,0.0,0.0,0.0,0.0,0.0,0.0,0.0,0.0,0.0,0.0,0.0,0.0,0.0,0.0,0.0,0.0,0.0,0.0,0.0,0.0,0.0,0.0,0.0,0.0,0.0,0.0,0.0,0.0,0.0,0.0,0.0,0.0,0.0,0.0,0.0,0.0,0.0,0.0,0.0,0.0,0.0,0.0,0.0,0.0,0.0,0.0,0.0,0.0,0.0,0.0,0.0,0.0,0.0,0.0,0.0,0.0,0.0,0.0,0.0,0.0,0.0,0.0,0.0,0.0,0.0,0.0,0.0,0.0,0.0,0.0,0.0,0.0,0.0,0.0,0.0,0.0,0.0,0.0,0.0,0.0,0.0,0.0,0.0,0.0,0.0,0.0,0.0,0.0,0.0,0.0,0.0,0.0,0.0,0.0,0.0,0.0,0.0,0.0,0.0,0.0,0.0,0.0,0.0,0.0,0.0,0.0,0.0,0.0,0.0,0.0,0.0,0.0,0.0,0.0,0.0,0.0,0.0,0.0,0.0,0.0,0.0,0.0,0.0,0.0,0.0,0.0,0.0,0.0,0.0,0.0,0.0,0.0,0.0,0.0,0.0,0.0,0.0,0.0,0.0,0.0,0.0,0.0,0.0,0.0,0.0,0.0,0.0,0.0,0.0,0.0,0.0,0.0,0.0,0.0,0.0,0.0,0.0,0.0,0.0,0.0,0.0,0.0,0.0,0.0,0.0,0.0,0.0,0.0,0.0,0.0,0.0,0.0,0.0,0.0,0.0,0.0,0.0,0.0,0.0,0.0,0.0,0.0,0.0,0.0,0.0,0.0,0.0,0.0,0.0,0.0,0.0,0.0,0.0,0.0,0.0,0.0,0.0,0.0,0.0,0.0,0.0,0.0,0.0,0.0,0.0,0.0,0.0,0.0,0.0,0.0,0.0,0.0,0.0,0.0,0.0,0.0,0.0,0.0,0.0,0.0,0.0,0.0,0.0,0.0,0.0,0.0,0.0,0.0,0.0,0.0,0.0,0.0,0.0,0.0,0.0,0.0,0.0,0.0,0.0,0.0,0.0,0.0,0.0,0.0,0.0,0.0,0.0,0.0,0.0,0.0,0.0,0.0,0.0,0.0,0.0,0.0,0.0,0.0,0.0,0.0,0.0,0.0,0.0,0.0,0.0,0.0,0.0,0.0,0.0,0.0,0.0,0.0,0.0,0.0,0.0,0.0,0.0,0.0,0.0,0.0,0.0,0.0,0.0,0.0,0.0,0.0,0.0,0.0,0.0,0.0,0.0,0.0,0.0,0.0,0.0,0.0,0.0,0.0,0.0,0.0,0.0,0.0,0.0,0.0,0.0,0.0,0.0,0.0,0.0,0.0,0.0,0.0,0.0,0.0,0.0,0.0,0.0,0.0,0.0,0.0,0.0,0.0,0.0,0.0,0.0,0.0,0.0,0.0,0.0,0.0,0.0,0.0,0.0,0.0,0.0,0.0,0.0,0.0,0.0,0.0,0.0,0.0,0.0,0.0,0.0,0.0,0.0,0.0,0.0,0.0,0.0,0.0,0.0,0.0,0.0,0.0,0.0,0.0,0.0,0.0,0.0,0.0,0.0,0.0,0.0,0.0,0.0,0.0,0.0,0.0,0.0,0.0,0.0,0.0,0.0,0.0,0.0,0.0,0.0,0.0,0.0,0.0,0.0,0.0,0.0,0.0,0.0,0.0,0.0,0.0,0.0,0.0,0.0,0.0,0.0,0.0,0.0,0.0,0.0,0.0,0.0,0.0,0.0,0.0,0.0,0.0,0.0,0.0,0.0,0.0,0.0,0.0,0.0,0.0,0.0,0.0,0.0,0.0,0.0,0.0,0.0,0.0,0.0,0.0,0.0,0.0,0.0,0.0,0.0,0.0,0.0,0.0,0.0,0.0,0.0,0.0,0.0,0.0,0.0,0.0,0.0,0.0,0.0,0.0,0.0,0.0,0.0,0.0,0.0,0.0,0.0,0.0,0.0,0.0,0.0,0.0,0.0,0.0,0.0,0.0,0.0,0.0,0.0,0.0,0.0,0.0,0.0,0.0,0.0,0.0,0.0,0.0,0.0,0.0,0.0,0.0,0.0,0.0,0.0,0.0,0.0,0.0,0.0,0.0,0.0,0.0,0.0,0.0,0.0,0.0,0.0,0.0,0.0,0.0,0.0,0.0,0.0,0.0,0.0,-1.4182,-1.3207,0.0,0.0,0.0,0.0,0.0,0.0,0.0,0.0,0.0,0.0,0.0,0.0,0.0,0.0,0.0,0.0,0.0,0.0,0.0,0.0,0.0,0.0,0.0,0.0,0.0,0.0,0.0,0.0,0.0,0.0,0.0,0.0,0.0,0.0,0.0,0.0,0.0,0.0,0.0,0.0,0.0,0.0,0.0,0.0,0.0,0.0,0.0,0.0,0.0,0.0,0.0,0.0,0.0,0.0,0.0,0.0,0.0,0.0,0.0,0.0,0.0,0.0,0.0,0.0,0.0,0.0,0.0,0.0,0.0,0.0,0.0,0.0,0.0,0.0,0.0,0.0,0.0,0.0,0.0,0.0,0.0,0.0,0.0,0.0,0.0,0.0,0.0,0.0,0.0,0.0,0.0,0.0,0.0,0.0,0.0,0.0,0.0,0.0,0.0,0.0,0.0,0.0,0.0,0.0,0.0,0.0,0.0,0.0,0.0,0.0,0.0,0.0,0.0,0.0,-1.5331,-1.4213,0.0,0.0,0.0,0.0,0.0,0.0,0.0,0.0,0.0,0.0,0.0,0.0,0.0,0.0,0.0,0.0,0.0,0.0,0.0,0.0,0.0,0.0,0.0,0.0,0.0,0.0,0.0,0.0,0.0,0.0,0.0,0.0,0.0,0.0,0.0,0.0,0.0,0.0,0.0,0.0,0.0,0.0,0.0,0.0,0.0,0.0,0.0,0.0,0.0,0.0,0.0,0.0,0.0,0.0,0.0,0.0,0.0,0.0,0.0,0.0,0.0,0.0,0.0,0.0,0.0,0.0,0.0,0.0,0.0,0.0,0.0,0.0,0.0,0.0,0.0,0.0,0.0,0.0,0.0,0.0,0.0,0.0,0.0,0.0,0.0,0.0,0.0,0.0,0.0,0.0,0.0,0.0,0.0,0.0,0.0,0.0,0.0,0.0,0.0,0.0,0.0,0.0,0.0,0.0,0.0,0.0,0.0,0.0,-1.6386,-1.7008,-1.725,-1.8302,-1.8945,-1.9136,-1.6378,-1.5433,-1.5758,-1.5028,0.0,0.0,0.0,0.0,0.0,0.0,0.0,0.0,0.0,0.0,0.0,0.0,0.0,0.0,0.0,0.0,0.0,0.0,0.0,0.0,0.0,0.0,0.0,0.0,0.0,0.0,0.0,0.0,0.0,0.0,0.0,0.0,0.0,0.0,0.0,0.0,0.0,0.0,-1.7578,-1.7578,-1.7401,-1.6991,0.0,0.0,0.0,0.0,0.0,0.0,0.0,0.0,0.0,0.0,0.0,0.0,0.0,0.0,0.0,0.0,0.0,0.0,0.0,0.0,0.0,0.0,0.0,0.0,0.0,0.0,0.0,0.0,0.0,0.0,0.0,0.0,0.0,0.0,0.0,0.0,0.0,0.0,0.0,0.0,0.0,0.0,0.0,0.0,-1.6009,-1.6724,0.0,0.0,0.0,0.0,0.0,0.0,0.0,0.0,0.0,0.0,0.0,0.0,0.0,-1.7293,-1.8021,-1.8891,-1.9093,-1.8649,-1.9677,-1.9738,-1.8976,-1.917,-1.9238,-1.9277,-1.8817,0.0,-1.6919,-1.6489,0.0,0.0,0.0,0.0,0.0,0.0,0.0,0.0,0.0,0.0,0.0,0.0,0.0,0.0,0.0,0.0,0.0,0.0,0.0,0.0,0.0,0.0,0.0,0.0,0.0,0.0,0.0,0.0,0.0,0.0,0.0,0.0,0.0,0.0,0.0,0.0,-1.7955,-1.8447,-1.8821,-1.8821,-1.8821,-1.8821,-1.8821,-1.8394,-1.7578,-1.7246,0.0,0.0,0.0,0.0,0.0,0.0,0.0,0.0,0.0,0.0,0.0,0.0,0.0,0.0,0.0,0.0,0.0,0.0,0.0,0.0,0.0,0.0,0.0,0.0,0.0,0.0,0.0,0.0,0.0,0.0,0.0,0.0,0.0,0.0,0.0,0.0,0.0,0.0,0.0,-1.6678,-1.7053,-1.692,-1.6937,-1.6868,0.0,0.0,0.0,0.0,0.0,0.0,0.0,0.0,0.0,-1.9647,-1.9969,-2.0096,-2.0186,-2.1242,-2.1478,-2.0944,-2.1376,-2.1512,-2.1322,-2.0668,-2.0518,-2.0732,-2.0488,-2.0033,-1.9402,-1.8493,-1.7541,-1.6736,0.0,0.0,0.0,0.0,-1.6736,-1.6808,0.0,0.0,0.0,0.0,0.0,0.0,0.0,0.0,0.0,0.0,0.0,0.0,0.0,0.0,0.0,-1.4926,0.0,0.0,0.0,0.0,0.0,0.0,0.0,0.0,0.0,0.0,0.0,0.0,-1.8992,-1.9433,-2.0309,-2.0309,-2.0386,-2.0526,-2.0526,-1.9658,-1.8167,-1.7961,-1.7468,0.0,0.0,0.0,0.0,0.0,0.0,0.0,0.0,0.0,0.0,0.0,0.0,0.0,0.0,0.0,0.0,0.0,0.0,0.0,0.0,0.0,0.0,0.0,0.0,0.0,0.0,0.0,0.0,0.0,0.0,0.0,0.0,0.0,0.0,0.0,0.0,0.0,0.0,-1.7843,-1.8216,-1.7551,-1.8207,-1.8406,0.0,0.0,0.0,0.0,0.0,0.0,-2.0026,-2.1163,-2.1835,-2.1835,-2.2377,-2.2522,-2.2209,-2.33,-2.3548,-2.3005,-2.3221,-2.3406,-2.3466,-2.2625,-2.2432,-2.2727,-2.2391,-2.2239,-2.2068,-2.0325,-1.9228,-1.861,-1.8424,-1.7911,-1.7348,-1.8035,-1.823,-1.8387,0.0,0.0,0.0,0.0,0.0,0.0,0.0,0.0,0.0,0.0,0.0,0.0,0.0,0.0,-1.6194,-1.5588,-1.5543,-1.532,0.0,0.0,0.0,0.0,0.0,0.0,0.0,0.0,0.0,-1.9747,-1.9747,0.0,-2.1716,-2.1716,-2.1956,-2.2485,-2.2485,-2.1406,-1.9631,-1.8927,-1.8232,-1.7512,0.0,0.0,0.0,0.0,0.0,0.0,0.0,0.0,0.0,0.0,0.0,0.0,0.0,0.0,0.0,0.0,0.0,0.0,0.0,0.0,0.0,0.0,0.0,0.0,0.0,0.0,0.0,0.0,0.0,0.0,0.0,0.0,0.0,0.0,0.0,0.0,0.0,0.0,0.0,-1.9548,-2.0095,0.0,0.0,0.0,0.0,-2.114,-2.1251,-2.1531,-2.2026,-2.2648,-2.2979,-2.2979,-2.3538,-2.3954,-2.4367,-2.5366,-2.5573,-2.5104,-2.599,-2.5925,-2.506,-2.506,-2.4993,-2.5015,-2.4993,-2.4982,-2.4748,-2.1778,-2.0498,-2.0459,-1.9963,-1.9798,-1.9674,-1.936,-1.9214,-1.9214,0.0,0.0,0.0,0.0,0.0,0.0,0.0,0.0,0.0,0.0,0.0,0.0,0.0,-1.6896,-1.6938,-1.6714,-1.6701,-1.6459,-1.5876,0.0,0.0,0.0,0.0,0.0,0.0,0.0,0.0,0.0,0.0,-2.2136,-2.3026,-2.3026,-2.3135,-2.3289,-2.3289,-2.2954,-2.224,-2.1002,-2.0084,-1.941,-1.931,-1.8401,0.0,0.0,0.0,0.0,0.0,0.0,0.0,0.0,0.0,0.0,0.0,0.0,0.0,0.0,0.0,0.0,0.0,0.0,0.0,0.0,0.0,0.0,0.0,0.0,0.0,0.0,0.0,0.0,0.0,0.0,0.0,0.0,0.0,0.0,0.0,0.0,0.0,-2.0812,-2.1479,0.0,-2.1643,-2.2143,-2.2278,-2.1913,-2.3246,-2.3922,-2.3546,-2.4953,-2.58,-2.58,-2.6311,-2.6538,-2.627,-2.7306,-2.7585,-2.7065,-2.738,-2.738,-2.7065,-2.6359,-2.6037,-2.6037,-2.6037,-2.6037,-2.5934,-2.4854,-2.4035,-2.3544,-2.3371,-2.2843,-2.22,-2.2045,-2.1547,-2.0957,0.0,0.0,0.0,0.0,0.0,0.0,0.0,0.0,0.0,0.0,0.0,-1.7394,-1.7544,-1.7585,-1.7585,-1.7585,-1.7585,-1.7432,-1.7076,0.0,0.0,0.0,0.0,0.0,0.0,0.0,0.0,0.0,0.0,0.0,0.0,0.0,-2.4902,-2.5311,-2.5311,-2.5026,-2.454,-2.3575,-2.2216,-2.0799,-2.0925,-1.9947,-1.8423,0.0,0.0,0.0,0.0,0.0,0.0,0.0,0.0,0.0,0.0,0.0,0.0,0.0,0.0,0.0,0.0,0.0,0.0,0.0,0.0,0.0,0.0,0.0,0.0,0.0,0.0,0.0,0.0,0.0,0.0,0.0,0.0,0.0,0.0,-2.162,-2.2138,-2.212,-2.3066,-2.358,-2.3367,-2.4054,-2.4314,-2.392,-2.5313,-2.6021,-2.5615,-2.7021,-2.7833,-2.7833,-2.8386,-2.8524,-2.8154,-2.8808,-2.8994,-2.8688,-2.8688,-2.8688,-2.8688,-2.7959,-2.7637,-2.7637,-2.7637,-2.7637,-2.7637,-2.7637,-2.724,-2.6687,-2.5722,-2.4935,-2.4266,-2.4115,-2.3594,-2.2981,0.0,0.0,0.0,0.0,0.0,0.0,0.0,0.0,0.0,0.0,-1.7353,-1.7544,-1.8066,-1.8145,-1.8145,-1.8145,-1.8145,-1.8167,-1.8213,-1.9282,0.0,0.0,0.0,0.0,-2.1771,0.0,0.0,0.0,0.0,0.0,0.0,0.0,-2.7335,-2.8452,-2.8452,-2.7726,-2.6509,-2.6509,-2.4619,-2.1746,-2.2072,-2.1122,-1.9511,0.0,0.0,0.0,0.0,0.0,0.0,0.0,0.0,0.0,0.0,0.0,0.0,0.0,0.0,0.0,0.0,0.0,0.0,0.0,0.0,0.0,0.0,0.0,0.0,0.0,0.0,0.0,0.0,0.0,0.0,0.0,0.0,0.0,-2.1618,-2.2232,-2.2965,-2.3556,-2.4834,-2.5649,-2.5674,-2.6189,-2.6798,-2.7268,-2.7318,-2.757,-2.8109,-2.8662,-2.895,-2.895,-2.9503,-2.9792,-2.9792,-2.9792,-2.9792,-2.9792,-2.9792,-2.9804,-2.9817,-2.9817,-2.9829,-2.9842,-2.9842,-2.9842,-2.9842,-2.9829,-2.9817,-2.9599,-2.693,-2.5915,-2.5859,-2.5464,-2.5294,-2.506,0.0,0.0,0.0,0.0,0.0,0.0,0.0,0.0,0.0,0.0,-1.8224,-1.8535,-1.865,-1.8688,-1.8688,-1.8688,-1.8688,-1.8725,-1.8851,0.0,0.0,0.0,0.0,0.0,-2.3155,0.0,0.0,0.0,0.0,0.0,0.0,0.0,0.0,-2.9262,-2.9262,-2.9049,-2.8723,-2.8723,-2.7602,-2.5757,-2.4859,-2.383,-2.2743,0.0,0.0,0.0,0.0,0.0,0.0,0.0,0.0,0.0,0.0,0.0,0.0,0.0,0.0,0.0,0.0,0.0,0.0,0.0,0.0,0.0,0.0,0.0,0.0,0.0,0.0,0.0,0.0,0.0,0.0,0.0,-2.4558,-2.4604,-2.3961,-2.4427,-2.5016,-2.5586,-2.6339,-2.6979,-2.7381,-2.7557,-2.772,-2.7871,-2.8247,-2.8536,-2.8699,-2.9239,-2.9553,-2.9553,-2.9704,-2.9792,-2.9792,-2.9792,-2.9792,-2.9792,-2.9792,-2.9993,-3.0394,-3.0394,-3.0595,-3.0947,-3.0947,-3.0947,-3.0922,-3.0545,-3.0394,-3.0253,-2.9118,-2.8234,-2.7449,-2.732,-2.6794,-2.608,0.0,0.0,0.0,0.0,0.0,0.0,0.0,0.0,0.0,0.0,-1.8864,-1.9214,-1.9244,-1.9413,-1.9434,-1.9244,-1.9507,-1.9686,-1.9766,0.0,0.0,0.0,0.0,-2.4236,-2.408,0.0,0.0,0.0,0.0,0.0,0.0,0.0,-3.0118,-3.0402,-3.0402,-3.0238,-2.9968,-2.9968,-2.9362,-2.833,-2.7501,-2.6148,-2.463,-2.4187,-2.3696,-2.3187,-2.2735,-2.2408,-2.2139,-2.2139,0.0,0.0,0.0,0.0,0.0,0.0,0.0,0.0,0.0,0.0,0.0,0.0,0.0,0.0,0.0,0.0,0.0,0.0,0.0,0.0,0.0,0.0,0.0,0.0,-2.6255,-2.6578,-2.6745,-2.6511,-2.6515,-2.708,-2.7632,-2.8097,-2.8411,-2.8662,-2.8812,-2.8812,-2.9114,-2.9289,-2.9289,-2.9616,-2.9792,-2.9792,-2.9792,-2.9792,-2.9792,-3.0018,-3.0143,-3.0143,-3.0357,-3.0633,-3.0947,-3.0947,-3.111,-3.1386,-3.1386,-3.1386,-3.1361,-3.106,-3.0947,-3.0871,0.0,0.0,0.0,0.0,-2.8108,-2.7209,0.0,0.0,0.0,0.0,0.0,0.0,0.0,0.0,0.0,0.0,0.0,-1.9707,-1.9839,-2.0158,-2.0227,-1.9889,-2.0488,-2.0923,0.0,0.0,0.0,-2.4471,-2.5155,-2.5318,-2.4897,-2.6703,0.0,0.0,0.0,0.0,0.0,0.0,-3.0998,-3.1482,-3.1582,-3.1252,-3.0612,-3.0612,-3.0253,-2.9684,-2.9684,-2.8134,-2.5716,-2.5661,-2.5578,-2.5508,-2.5453,-2.4951,-2.4408,-2.4408,0.0,0.0,0.0,0.0,0.0,0.0,0.0,0.0,0.0,0.0,0.0,0.0,0.0,0.0,0.0,0.0,0.0,0.0,0.0,0.0,0.0,0.0,0.0,0.0,-2.8107,-2.8518,-2.9608,-2.8698,-2.7982,-2.828,-2.8761,-2.9026,-2.9164,-2.9554,-2.9856,-2.9934,-2.9869,-2.9792,-2.9792,-2.9792,0.0,0.0,0.0,-2.988,-2.988,-3.0432,-3.0708,-3.0708,-3.1173,-3.1424,-3.1486,-3.1486,-3.1512,-3.1587,-3.1587,-3.1587,-3.1574,-3.1512,-3.1449,-3.1286,-3.0281,-2.988,-2.988,-2.9817,-2.9184,-2.8267,0.0,0.0,0.0,0.0,0.0,0.0,0.0,0.0,0.0,-1.9954,-2.0093,-2.0299,-2.0698,-2.0829,-2.0829,-2.078,-2.1397,-2.2315,0.0,0.0,-2.5357,-2.5067,-2.5687,-2.6281,-2.6794,-2.7856,0.0,0.0,0.0,0.0,0.0,0.0,-3.1926,-3.1524,-3.212,-3.1987,-3.1345,-3.1345,-3.0941,-3.0328,-3.0328,-2.9372,-2.7895,-2.7328,-2.678,-2.6229,-2.5618,-2.5287,-2.5175,-2.5175,-2.5063,-2.4951,-2.4951,0.0,0.0,0.0,0.0,0.0,0.0,0.0,0.0,0.0,0.0,0.0,0.0,0.0,0.0,0.0,0.0,0.0,0.0,0.0,0.0,-3.0262,-3.0732,-3.1117,-3.1351,-3.1498,-3.1182,-3.0086,-2.9781,-2.9897,-3.0664,-3.0139,-3.0139,-3.0908,-3.0203,-2.9792,-2.9792,-2.9792,-2.9792,-2.9792,-3.0218,-3.0457,-3.0457,-3.0984,-3.1248,-3.1248,-3.1336,0.0,-3.2051,-3.2051,-3.2303,-3.2754,-3.2754,-3.2754,-3.2717,-3.2252,-3.1788,-3.1336,-3.0696,-3.0457,-3.0407,-2.9955,-2.9624,-2.9456,0.0,0.0,0.0,0.0,0.0,0.0,0.0,0.0,0.0,0.0,-2.0516,-2.0748,-2.0959,-2.1181,-2.1213,-2.1023,-2.1984,0.0,0.0,-2.5655,-2.6052,-2.6135,-2.6772,-2.7365,-2.7833,-2.9271,0.0,0.0,0.0,0.0,0.0,-3.2761,-3.2879,-3.2571,-3.2933,-3.2879,-3.2555,-3.2555,-3.2354,-3.2028,-3.2028,-3.1297,-2.9939,-2.8589,-2.7827,-2.7451,-2.677,-2.6269,-2.596,-2.596,-2.5728,-2.5453,-2.5813,-2.591,-2.5964,0.0,0.0,0.0,0.0,0.0,0.0,0.0,0.0,0.0,0.0,0.0,0.0,0.0,0.0,-2.9734,-3.0475,0.0,-3.1288,-3.1924,-3.2291,-3.2588,-3.2885,-3.2765,-3.2354,-3.1581,-3.1303,-3.1415,-3.1888,-3.1476,-3.1415,-3.1888,-3.1044,-3.0482,-3.0482,-3.0341,-3.0416,-3.1009,-3.1026,-3.1238,-3.177,-3.1769,-3.18,-3.18,-3.2102,-3.2378,-3.2641,-3.2641,-3.2805,-3.3081,-3.3081,-3.3081,-3.3056,-3.2767,-3.2478,-3.2177,-3.1625,-3.1085,-3.0583,-3.0306,-3.003,-2.9792,0.0,0.0,0.0,0.0,0.0,0.0,0.0,0.0,0.0,0.0,0.0,-2.1055,-2.1229,-2.1538,-2.1713,0.0,0.0,0.0,0.0,-2.6156,-2.6488,-2.7181,-2.7795,-2.8305,-2.8744,-3.0609,0.0,0.0,0.0,0.0,0.0,-3.3735,-3.3735,-3.3582,-3.3735,-3.3735,-3.3582,-3.3582,-3.3582,-3.3582,-3.3582,-3.2875,-3.1581,-2.9822,-2.8943,-2.8502,-2.7814,-2.7203,-2.6721,-2.6721,-2.6422,-2.6104,-2.6666,-2.6905,-2.7116,-2.7577,-2.7687,0.0,0.0,0.0,0.0,0.0,0.0,0.0,0.0,-2.8958,-2.9485,-2.9624,-3.0242,-3.0899,-3.171,-3.23,-3.2817,-3.3485,-3.3601,-3.3761,-3.4254,-3.3602,-3.3185,-3.3185,-3.282,-3.2664,-3.289,-3.2749,-3.2664,-3.289,-3.2128,-3.171,-3.171,-3.1486,-3.1734,-3.2617,-3.2186,-3.2404,-3.3499,-3.2972,-3.2759,-3.2995,-3.3482,-3.37,-3.37,-3.37,-3.37,-3.3713,-3.3471,-3.3398,-3.3398,-3.3154,-3.3081,-3.3031,-3.2566,-3.1788,-3.0909,-3.0696,-3.0331,-2.9942,0.0,0.0,0.0,0.0,0.0,0.0,0.0,0.0,0.0,0.0,0.0,0.0,0.0,0.0,0.0,0.0,0.0,0.0,0.0,-2.6624,-2.6961,-2.7685,-2.7947,-2.8655,-2.9866,-3.1539,0.0,0.0,0.0,0.0,0.0,-3.4186,-3.4186,-3.3633,-3.4235,-3.4186,-3.3582,-3.3582,-3.3582,-3.3582,-3.3582,-3.3131,-3.2328,-3.1467,-3.008,-2.8502,-2.7814,-2.7575,-2.7458,-2.7458,-2.7824,-2.8278,-2.8352,-2.8768,-2.9237,-2.9103,0.0,-2.9052,-2.8927,-2.8906,-2.9108,-2.9813,-2.9504,-2.938,0.0,-3.0991,-3.1185,-3.1944,-3.2659,-3.3297,-3.4003,-3.4166,-3.445,-3.5135,-3.5255,-3.5285,-3.5344,-3.5213,-3.5213,-3.5213,-3.3616,-3.2961,-3.3739,-3.3101,-3.2961,-3.3808,-3.3535,-3.3321,-3.3321,-3.3853,-3.4197,-3.4347,-3.3831,-3.4059,-3.5091,-3.4674,-3.4872,-3.5785,-3.5853,-3.5894,-3.5894,-3.5894,-3.5894,-3.5814,-3.4897,-3.4511,-3.4428,-3.3471,-3.3081,-3.3068,-3.3006,-3.2591,-3.1926,-3.0972,-3.057,-3.0457,0.0,0.0,0.0,0.0,0.0,0.0,0.0,0.0,0.0,0.0,0.0,0.0,0.0,0.0,0.0,0.0,0.0,0.0,-2.659,-2.6691,-2.7029,-2.7755,-2.8317,-2.9089,-3.0091,-3.1614,-3.2378,0.0,0.0,0.0,0.0,-3.4851,-3.5052,-3.4752,-3.5052,-3.5005,-3.4752,-3.4752,-3.4752,-3.4719,-3.4289,-3.3691,-3.2966,-3.1873,-3.0466,-2.9068,-2.8828,-2.8485,0.0,0.0,-2.8936,-2.9235,-2.9594,-2.9894,-3.0182,-3.0497,-3.0558,0.0,-3.0451,-3.045,-3.045,-3.0329,-3.0664,-3.1061,-3.1304,-3.1924,-3.2655,-3.302,-3.3604,-3.4143,-3.4427,-3.4801,-3.5175,-3.5459,-3.5504,-3.5504,-3.5504,-3.5504,-3.5504,-3.5504,-3.4773,-3.4409,-3.4839,-3.4558,-3.4636,-3.5369,-3.4819,-3.4612,-3.4967,-3.4999,-3.5362,-3.5975,-3.5457,-3.5682,-3.6807,-3.5943,-3.5814,-3.6198,-3.6198,-3.6198,-3.6198,-3.6198,-3.6198,-3.6198,-3.5734,-3.5588,-3.5507,-3.5116,-3.487,-3.487,-3.487,-3.4724,-3.4324,-3.2294,-3.116,-3.0583,0.0,0.0,0.0,0.0,0.0,0.0,0.0,0.0,0.0,0.0,0.0,0.0,0.0,0.0,0.0,0.0,0.0,0.0,0.0,-2.659,-2.7029,-2.7755,-2.8366,0.0,-2.9786,-3.1224,-3.1985,-3.1985,0.0,0.0,-3.4201,-3.4742,-3.5013,-3.5013,-3.5013,-3.5013,-3.5013,-3.5013,-3.5013,-3.4962,-3.4404,-3.3772,-3.3056,-3.2038,-3.0977,-2.999,-2.9617,-2.9114,0.0,0.0,-2.9699,-2.9909,-3.0357,-3.0627,-3.0881,-3.139,-3.1482,-3.1482,-3.1482,-3.1601,-3.1618,-3.1041,-3.184,-3.2586,-3.1962,-3.2862,-3.3769,-3.3769,-3.4292,-3.4756,-3.4756,-3.5175,-3.5504,-3.5504,-3.5504,-3.5504,-3.5504,-3.5504,-3.5504,-3.5504,-3.5504,-3.5579,-3.5759,-3.5774,-3.5968,-3.6447,-3.6119,-3.6122,-3.666,-3.6556,-3.6839,-3.7623,-3.7025,-3.7175,-3.8234,-3.7175,-3.6774,-3.7084,-3.7084,-3.7084,-3.7084,-3.7084,-3.7084,-3.7084,-3.6774,-3.6604,-3.6604,-3.629,-3.6198,-3.6198,-3.6198,-3.6198,-3.5984,-3.3999,-3.2701,-3.1849,0.0,0.0,0.0,0.0,0.0,0.0,0.0,0.0,0.0,0.0,0.0,0.0,0.0,0.0,0.0,0.0,0.0,0.0,0.0,-2.6302,-2.7029,-2.7755,-2.7806,-2.8213,-2.9045,-3.0463,-3.1224,-3.1224,0.0,0.0,0.0,-3.3457,-3.3474,-3.3474,-3.3474,-3.3474,-3.3474,-3.3474,-3.3474,-3.3474,-3.344,-3.3,-3.2341,-3.229,-3.1909,-3.1172,-2.9942,0.0,0.0,0.0,-2.9983,-3.0477,-3.0492,-3.0971,0.0,-3.1467,-3.1482,-3.1482,-3.1482,-3.2003,-3.2482,-3.2422,-3.2976,-3.3455,-3.3469,-3.3978,-3.4442,-3.4442,-3.4996,-3.5474,-3.5474,-3.5489,-3.5504,-3.5504,-3.5504,-3.5504,-3.5504,-3.5504,-3.5504,-3.5504,-3.5504,-3.5759,-3.6402,-3.6462,-3.6462,-3.6492,-3.7629,-3.8332,-3.8362,-3.8934,-3.9307,-3.9322,-3.8294,-3.8308,-3.9337,-3.8308,-3.8308,-3.9337,-3.9337,-3.9337,-3.9337,-3.9337,-3.9337,-3.925,-3.8219,-3.7753,-3.7663,-3.6604,-3.6198,-3.6198,-3.6198,-3.6198,-3.6198,-3.6105,-3.5719,-3.512,0.0,0.0,0.0,0.0,0.0,0.0,0.0,0.0,0.0,0.0,0.0,0.0,0.0,0.0,0.0,0.0,0.0,0.0,0.0,-2.6285,-2.681,-2.7063,-2.7554,-2.7943,-2.8213,-2.9211,-2.9719,-2.9719,0.0,0.0,0.0,0.0,0.0,-3.3406,-3.3406,-3.3406,-3.3406,-3.3406,-3.3406,-3.3372,-3.2865,-3.251,-3.2263,-3.1749,-3.1224,-3.0741,0.0,0.0,0.0,0.0,-3.1016,-3.118,-3.118,-3.1287,-3.1482,-3.1482,-3.1482,-3.1571,-3.2063,-3.2347,-3.2617,-3.3051,-3.3664,-3.4143,-3.4143,-3.4666,-3.516,-3.516,-3.534,-3.5504,-3.5504,-3.5504,-3.5504,-3.5504,-3.5504,-3.5504,-3.5504,-3.5504,-3.5504,-3.5504,-3.5893,-3.6237,-3.6462,-3.6492,-3.6836,-3.7689,-3.8153,-3.8586,-3.905,-3.929,-3.9424,-3.9424,-3.9031,-3.9017,-3.9424,-3.9031,-3.9031,-3.9424,-3.9424,-3.9424,-3.9424,-3.9424,-3.9424,-3.9352,-3.9017,-3.887,-3.8855,-3.8457,-3.8294,-3.8294,-3.8294,-3.8294,-3.8294,-3.8294,-3.8237,-3.7709,0.0,0.0,0.0,0.0,0.0,0.0,0.0,0.0,0.0,0.0,0.0,0.0,0.0,0.0,0.0,0.0,0.0,0.0,0.0,0.0,-2.642,-2.6674,-2.7165,-2.7418,-2.7418,-2.818,-2.8569,-2.8569,0.0,0.0,0.0,0.0,0.0,0.0,-3.251,-3.2611,-3.2611,-3.2611,-3.2611,-3.2577,-3.2087,-3.1901,-3.185,-3.1376,-3.1149,0.0,0.0,0.0,0.0,-3.157,-3.1482,-3.1482,-3.1482,-3.1482,-3.1482,-3.1482,-3.1847,-3.2349,-3.2451,-3.3006,-3.3638,-3.38,-3.4352,-3.4846,-3.4846,-3.519,-3.5504,-3.5504,-3.5504,-3.5504,-3.5504,-3.5504,-3.5504,-3.5504,-3.5504,-3.5504,-3.5504,-3.5504,-3.5594,-3.5833,-3.6237,-3.6671,-3.712,-3.7165,-3.7509,-3.8332,-3.8616,-3.896,-3.9394,-3.9424,-3.9424,-3.9424,-3.9424,-3.9424,-3.9424,-3.9424,-3.9424,-3.9424,-3.9424,-3.9424,-3.9424,-3.9424,-3.9424,-3.9424,-3.9424,-3.9424,-3.9424,-3.9424,-3.9424,-3.9424,-3.9424,-3.9424,-3.9424,-3.9424,-3.9424,-3.9088,0.0,0.0,0.0,0.0,0.0,0.0,0.0,0.0,0.0,0.0,0.0,0.0,0.0,0.0,0.0,0.0,0.0,0.0,0.0,0.0,0.0,-2.6657,-2.6691,-2.6691,-2.6691,-2.7402,-2.7722,0.0,0.0,0.0,0.0,0.0,0.0,0.0,0.0,0.0,-3.119,-3.119,-3.119,-3.119,-3.119,-3.119,-3.119,-3.1151,0.0,0.0,0.0,0.0,0.0,-3.1779,-3.1582,-3.1582,-3.1582,-3.1582,-3.1582,-3.1582,-3.2634,-3.3593,-3.2881,-3.4163,-3.5488,-3.4863,-3.5138,-3.5554,-3.5554,-3.5504,-3.5504,-3.5504,-3.5504,-3.5504,-3.5504,-3.5504,-3.5504,-3.5504,-3.5504,-3.5504,-3.5504,-3.5504,-3.5744,-3.6417,-3.6507,-3.7015,-3.8272,-3.8422,-3.8437,-3.8437,-3.905,-3.9424,-3.9424,-3.9424,-3.9424,-3.9424,-3.9424,-3.9424,-3.9424,-3.9424,-3.9424,-3.9424,-3.9424,-3.9424,-3.9424,-3.9424,-3.9424,-3.9424,-3.9424,-3.9424,-3.9424,-3.9424,-3.9424,-3.9424,-3.9424,-3.9424,-3.9424,-3.9424,-3.9424,-3.9334,0.0,0.0,0.0,0.0,0.0,0.0,0.0,0.0,0.0,0.0,0.0,0.0,0.0,0.0,0.0,0.0,0.0,0.0,0.0,0.0,0.0,0.0,0.0,0.0,0.0,0.0,0.0,0.0,0.0,0.0,0.0,0.0,0.0,0.0,0.0,0.0,-3.119,-3.119,-3.119,-3.119,0.0,-3.119,-3.1151,0.0,0.0,0.0,0.0,0.0,0.0,0.0,-3.2327,-3.2437,-3.2933,-3.3077,-3.3077,-3.3077,-3.3725,-3.4498,-3.4802,-3.5672,-3.6578,-3.6884,-3.6628,-3.6337,-3.6337,-3.5894,-3.5504,-3.5504,-3.5504,-3.5504,-3.5504,-3.5504,-3.5504,-3.5504,-3.5504,-3.5504,-3.5504,-3.5504,-3.5744,-3.6417,-3.6896,-3.7494,-3.8302,-3.8856,-3.9155,-3.9155,-3.932,-3.9424,-3.9424,-3.9424,-3.9424,-3.9424,-3.9424,-3.9424,-3.9424,-3.9424,-3.9424,-3.9424,-3.9424,-3.9424,-3.9424,-3.9424,-3.9424,-3.9424,-3.9424,-3.9424,-3.9424,-3.9424,-3.9424,-3.9424,-3.9424,-3.9424,-3.9424,-3.9424,-3.9424,-3.9394,0.0,0.0,0.0,0.0,0.0,0.0,0.0,0.0,0.0,0.0,0.0,0.0,0.0,0.0,0.0,0.0,0.0,0.0,0.0,0.0,0.0,0.0,0.0,0.0,0.0,0.0,0.0,0.0,0.0,0.0,0.0,0.0,0.0,0.0,0.0,0.0,0.0,0.0,0.0,0.0,0.0,0.0,0.0,0.0,0.0,0.0,0.0,0.0,0.0,0.0,0.0,-3.3093,-3.3495,-3.3582,-3.3646,-3.3966,-3.4804,-3.5724,-3.6059,-3.6932,-3.7728,-3.7767,-3.7219,-3.6615,-3.6615,-3.6054,-3.5504,-3.5504,-3.5504,-3.5504,-3.5504,-3.5504,-3.5504,-3.5504,-3.5504,-3.5504,-3.5504,-3.5504,-3.5848,-3.6776,-3.7195,-3.7778,-3.8751,-3.9185,-3.9424,-3.9424,-3.9424,-3.9424,-3.9424,-3.9424,-3.9424,-3.9424,-3.9424,-3.9424,-3.9424,-3.9424,-3.9424,-3.9424,-3.9424,-3.9424,-3.9424,-3.9424,-3.9424,-3.9424,-3.9424,-3.9424,-3.9424,-3.9424,-3.9424,-3.9424,-3.9424,-3.9424,-3.9424,-3.9424,-3.9424,-3.9424,0.0,0.0,0.0,0.0,0.0,0.0,0.0,0.0,0.0,0.0,0.0,0.0,0.0,0.0,0.0,0.0,0.0,0.0,0.0,0.0,0.0,0.0,0.0,0.0,0.0,0.0,0.0,0.0,0.0,0.0,0.0,0.0,0.0,0.0,0.0,0.0,0.0,0.0,0.0,0.0,0.0,0.0,0.0,0.0,0.0,0.0,0.0,0.0,0.0,0.0,-3.4203,-3.3735,-3.3836,-3.3853,-3.4032,-3.4759,-3.5936,-3.6966,-3.7091,-3.8025,-3.8924,-3.8262,-3.7499,-3.6904,-3.6783,-3.6165,-3.5619,-3.5504,-3.5504,-3.5504,-3.5504,-3.5504,-3.5504,-3.5504,-3.5504,-3.5504,-3.5504,-3.5504,-3.5983,-3.7255,-3.7404,-3.7943,-3.929,-3.9424,-3.9424,-3.9424,-3.9424,-3.9424,-3.9424,-3.9424,-3.9424,-3.9424,-3.9424,-3.9424,-3.9424,-3.9424,-3.9424,-3.9424,-3.9424,-3.9481,-3.9538,-3.9481,-3.9481,-3.9538,-3.9409,-3.9424,-3.9424,-3.9424,-3.9424,-3.9424,-3.9424,-3.9424,-3.9424,-3.9424,-3.9424,-3.9424,0.0,0.0,0.0,0.0,0.0,0.0,0.0,0.0,0.0,0.0,0.0,0.0,0.0,0.0,0.0,0.0,0.0,0.0,0.0,0.0,0.0,0.0,0.0,0.0,0.0,0.0,0.0,0.0,0.0,0.0,0.0,0.0,0.0,0.0,0.0,0.0,0.0,0.0,0.0,0.0,0.0,0.0,0.0,0.0,0.0,0.0,0.0,0.0,0.0,0.0,-3.4489,-3.4528,-3.5068,-3.5253,-3.5421,-3.6175,-3.7043,-3.7831,-3.8455,-3.9228,-3.985,-3.9731,-3.9102,-3.8342,-3.7732,-3.698,-3.6228,-3.5619,-3.5504,-3.5504,-3.5504,-3.5504,-3.5504,-3.5504,-3.5504,-3.5504,-3.5504,-3.5504,-3.5983,-3.7255,-3.7404,-3.7943,-3.929,-3.9424,-3.9424,-3.9424,-3.9424,-3.9424,-3.9424,-3.9424,-3.9424,-3.9424,-3.9424,-3.9424,-3.9424,-3.9424,-3.9424,-3.9424,-3.9424,-3.9809,-4.0432,-3.9737,-3.9793,-4.0432,-3.9737,-3.9424,-3.9424,-3.9424,-3.9424,-3.9424,-3.9424,-3.9424,-3.9424,-3.9424,-3.9424,-3.9424,0.0,0.0,0.0,0.0,0.0,0.0,0.0,0.0,0.0,0.0,0.0,0.0,0.0,0.0,0.0,0.0,0.0,0.0,0.0,0.0,0.0,0.0,0.0,0.0,0.0,0.0,-2.6691,-2.6691,0.0,-2.6691,-2.6691,-2.6691,-2.6894,-2.7232,0.0,0.0,0.0,0.0,0.0,0.0,0.0,0.0,0.0,0.0,0.0,0.0,0.0,0.0,0.0,0.0,-3.4785,-3.5207,-3.5515,-3.5622,-3.5774,-3.6552,-3.7313,-3.8075,-3.8802,-3.9529,-4.007,-4.007,-3.9489,-3.869,-3.7978,-3.716,-3.6384,-3.5668,-3.5504,-3.5504,-3.5504,-3.5504,-3.5504,-3.5504,-3.5831,-3.6054,-3.6054,-3.6054,-3.642,-3.738,-3.7436,-3.7793,-3.8781,-3.9215,-3.961,-4.0045,-4.0045,-3.9864,-3.9409,-3.9864,-4.0309,-4.0774,-4.0774,-4.0774,-4.0774,-4.0774,-4.0774,-4.0774,-4.0774,-4.0961,-4.133,-4.0961,-4.0961,-4.1346,-4.0961,-4.0774,-4.0774,-4.0774,-4.0774,-4.0774,-4.0774,-4.0774,-4.0774,-4.0774,-4.0774,-4.0774,0.0,0.0,0.0,0.0,0.0,0.0,0.0,0.0,0.0,0.0,0.0,0.0,0.0,0.0,0.0,0.0,0.0,0.0,0.0,0.0,0.0,0.0,0.0,0.0,0.0,0.0,0.0,-2.6691,-2.6691,0.0,0.0,0.0,0.0,0.0,-2.6691,-2.7012,-2.7553,0.0,0.0,0.0,0.0,-3.0314,0.0,0.0,0.0,0.0,0.0,0.0,0.0,0.0,-3.4759,-3.5402,-3.5571,-3.5622,-3.5774,-3.6552,-3.7195,-3.7838,-3.8565,-3.9292,-3.9834,-3.9834,-3.9493,-3.8924,-3.8035,-3.7338,-3.6569,-3.5668,-3.5504,-3.5504,-3.5504,-3.5504,-3.5504,-3.5504,-3.6006,-3.6446,-3.6615,-3.6615,-3.6925,-3.7732,-3.7755,-3.7986,-3.8842,-3.94,-4.006,-4.0878,-4.1013,-4.069,-3.999,-4.0638,-4.128,-4.1997,-4.1997,-4.1997,-4.1997,-4.1997,-4.1997,-4.1997,-4.1997,-4.2125,-4.2252,-4.2062,-4.2125,-4.2252,-4.2062,-4.1997,-4.1997,-4.1997,-4.1997,-4.1997,-4.1997,-4.1997,-4.1997,-4.1997,-4.1997,-4.1997,0.0,0.0,0.0,0.0,0.0,0.0,0.0,0.0,0.0,0.0,0.0,0.0,0.0,0.0,0.0,0.0,0.0,0.0,0.0,0.0,0.0,0.0,0.0,0.0,0.0,0.0,0.0,-2.6691,-2.6691,0.0,0.0,0.0,0.0,0.0,0.0,-2.6725,-2.6843,-2.7537,0.0,0.0,0.0,0.0,0.0,0.0,0.0,0.0,0.0,0.0,0.0,0.0,0.0,-3.4726,-3.5402,-3.5622,-3.5774,-3.6552,0.0,0.0,-3.7804,-3.8531,-3.9089,-3.9089,-3.953,-3.9627,-3.8149,-3.7748,-3.7294,-3.5797,-3.5504,-3.5504,-3.5504,-3.5504,-3.5504,-3.5504,-3.5554,-3.5831,-3.6508,-3.6615,-3.7108,-3.8527,-3.8575,-3.9069,-4.0531,-4.0622,-4.0946,-4.1804,-4.1869,-4.1869,-4.1739,-4.1869,-4.1933,-4.1997,-4.1997,-4.1997,-4.1997,-4.1997,-4.1997,-4.1997,-4.1997,-4.2395,-4.3169,-4.2395,-4.2458,-4.3108,-4.2316,-4.1997,-4.1997,-4.1997,-4.1997,-4.1997,-4.1997,-4.1997,-4.1997,-4.1997,-4.1997,-4.1997,0.0,0.0,0.0,0.0,0.0,0.0,0.0,0.0,0.0,0.0,0.0,0.0,0.0,0.0,0.0,0.0,0.0,0.0,0.0,0.0,0.0,0.0,0.0,0.0,0.0,0.0,-2.5796,-2.6297,-2.6297,0.0,0.0,0.0,0.0,0.0,0.0,-2.6691,-2.6708,-2.7012,0.0,0.0,0.0,0.0,0.0,0.0,0.0,0.0,0.0,0.0,-3.2391,-3.3152,0.0,0.0,-3.5385,-3.5622,0.0,0.0,-3.6417,-3.684,-3.7144,-3.8091,-3.8988,-3.8988,-3.9529,-3.9782,-3.869,-3.8469,-3.8189,-3.7115,-3.6477,-3.6165,-3.6165,-3.5782,-3.5504,-3.5504,-3.5894,-3.6461,-3.7219,-3.7338,-3.7711,-3.8748,-3.9198,-3.9628,-4.0224,-4.1023,-4.1869,-4.2724,-4.329,-4.3545,-4.3545,-4.3092,-4.3031,-4.3545,-4.3545,-4.3545,-4.3545,-4.3545,-4.3545,-4.3545,-4.3545,-4.3739,-4.4064,-4.3739,-4.3739,-4.4064,-4.3739,-4.3545,-4.3545,-4.3545,-4.3545,-4.3545,-4.3545,-4.3545,-4.3545,-4.3545,-4.3545,-4.3545,0.0,0.0,0.0,0.0,0.0,0.0,0.0,0.0,0.0,0.0,0.0,0.0,0.0,0.0,0.0,0.0,0.0,0.0,0.0,0.0,0.0,0.0,0.0,0.0,0.0,0.0,-2.5259,-2.5683,-2.604,-2.6367,0.0,0.0,-2.6691,-2.6691,0.0,0.0,0.0,0.0,0.0,0.0,0.0,0.0,0.0,0.0,0.0,0.0,0.0,0.0,0.0,0.0,0.0,0.0,0.0,0.0,0.0,0.0,-3.6011,-3.6434,-3.6434,-3.7364,-3.8396,-3.8616,-3.9225,-3.9632,-3.9036,-3.8908,-3.869,-3.7921,-3.7338,-3.6904,-3.6661,-3.6352,-3.6085,0.0,0.0,-3.7203,-3.8019,-3.8149,-3.843,-3.9139,-3.9854,-4.0307,-4.0603,-4.1922,-4.3031,-4.3621,-4.4253,-4.4587,-4.4587,-4.4006,-4.3948,-4.457,-4.4587,-4.4587,-4.4587,-4.4587,-4.4587,-4.4587,-4.4587,-4.4587,-4.4587,-4.4587,-4.4587,-4.4587,-4.4587,-4.4587,-4.4587,-4.4587,-4.4587,-4.4587,-4.4587,-4.4587,-4.4587,-4.4587,-4.4587,-4.4587,0.0,0.0,0.0,0.0,0.0,0.0,0.0,0.0,0.0,0.0,0.0,0.0,0.0,0.0,0.0,0.0,0.0,0.0,0.0,0.0,0.0,0.0,0.0,0.0,0.0,0.0,0.0,-2.501,-2.6152,-2.6691,-2.6691,-2.6691,-2.6691,-2.6691,0.0,0.0,0.0,0.0,0.0,0.0,0.0,0.0,0.0,0.0,0.0,0.0,0.0,0.0,0.0,0.0,0.0,0.0,0.0,-3.5013,0.0,0.0,-3.5622,-3.5639,-3.5639,-3.6197,-3.6992,-3.7736,-3.8464,-3.8958,-3.892,-3.8908,-3.869,-3.7921,-3.7806,-3.7515,-3.6722,-3.7263,-3.7515,-3.6737,-3.7279,-3.8035,-3.8799,-3.8908,-3.9193,-4.0003,-4.0612,-4.1326,-4.2162,-4.3673,-4.457,-4.4587,-4.457,-4.4587,-4.4587,-4.457,-4.457,-4.4587,-4.4587,-4.4587,-4.4587,-4.4587,-4.4587,-4.4587,-4.4587,-4.4587,-4.4587,-4.4587,-4.4587,-4.4587,-4.4587,-4.4587,-4.4587,-4.4587,-4.4587,-4.4587,-4.4587,-4.4587,-4.4587,-4.4587,-4.4587,-4.4587,0.0,0.0,0.0,0.0,0.0,0.0,0.0,0.0,0.0,0.0,0.0,0.0,0.0,0.0,0.0,0.0,0.0,0.0,0.0,0.0,0.0,0.0,0.0,0.0,0.0,0.0,0.0,0.0,-2.4789,-2.5572,-2.6691,-2.6691,-2.6521,-2.6227,-2.6085,-2.5888,0.0,0.0,0.0,0.0,0.0,0.0,-2.9122,0.0,0.0,0.0,0.0,0.0,0.0,0.0,0.0,0.0,0.0,0.0,0.0,-3.5622,-3.5622,-3.5622,-3.5622,-3.618,-3.6958,-3.7719,-3.8447,-3.9125,-3.9614,-3.9731,-3.9662,-3.9401,-3.8924,-3.8453,-3.8213,-3.7962,-3.769,-3.7456,-3.7632,-3.8035,-3.8799,-3.8908,-3.9209,-4.002,-4.1146,-4.2404,-4.3741,-4.4299,-4.4587,-4.4587,-4.4587,-4.4587,-4.4587,-4.4587,-4.4587,-4.4587,-4.4587,-4.4587,-4.4587,-4.4587,-4.4587,-4.4587,-4.4587,-4.4587,-4.4587,-4.4587,-4.4587,-4.4587,-4.4587,-4.4587,-4.4587,-4.4587,-4.4587,-4.4587,-4.4587,-4.4587,-4.4587,-4.4587,-4.4587,-4.4587,0.0,0.0,0.0,0.0,0.0,0.0,0.0,0.0,0.0,0.0,0.0,0.0,0.0,0.0,0.0,0.0,0.0,0.0,0.0,0.0,0.0,0.0,0.0,0.0,0.0,0.0,0.0,0.0,0.0,0.0,-2.6691,-2.6691,-2.6436,-2.5997,-2.5779,-2.5486,0.0,0.0,0.0,0.0,0.0,0.0,-2.9025,0.0,0.0,0.0,0.0,0.0,0.0,0.0,0.0,0.0,0.0,0.0,0.0,0.0,-3.5622,-3.5622,-3.5622,-3.5977,-3.6603,-3.7652,-3.8261,0.0,-3.9851,-4.007,-4.007,-4.007,-3.9714,-3.9262,-3.8962,-3.8761,-3.8541,-3.8246,-3.8486,-3.8832,-3.9262,-3.9368,-3.9659,-4.0408,-4.1559,-4.2777,-4.4028,-4.4401,-4.4587,-4.4587,-4.4587,-4.4587,-4.4587,-4.4587,-4.4587,-4.4587,-4.4587,-4.4587,-4.4587,-4.4587,-4.4587,-4.4587,-4.4587,-4.4587,-4.4587,-4.4587,-4.4587,-4.4587,-4.4587,-4.4587,0.0,-4.4587,-4.4587,-4.4587,-4.4587,-4.4587,-4.4587,-4.4587,-4.4587,-4.4587,0.0,0.0,0.0,0.0,0.0,0.0,0.0,0.0,0.0,0.0,0.0,0.0,0.0,0.0,0.0,0.0,0.0,0.0,0.0,0.0,0.0,0.0,0.0,0.0,0.0,0.0,0.0,-2.3157,-2.429,-2.5496,-2.6657,0.0,-2.6401,-2.5924,-2.5373,-2.5144,-2.5144,-2.5144,-2.5182,-2.5297,-2.5815,-2.7164,0.0,0.0,0.0,0.0,0.0,0.0,0.0,0.0,0.0,0.0,0.0,0.0,0.0,0.0,0.0,0.0,0.0,-3.5622,-3.5977,-3.7466,-3.7872,-3.8278,-3.9681,0.0,0.0,-4.007,-4.007,-3.9885,-3.9139,-3.961,-3.985,-3.9086,-3.961,-4.007,-4.007,-4.007,-4.0358,-4.1119,-4.1847,-4.2591,-4.3352,-4.413,-4.4587,-4.4587,-4.4587,-4.4587,-4.4587,-4.4587,-4.4587,-4.4587,-4.4587,-4.4587,-4.4587,-4.4587,-4.4587,-4.4587,-4.4587,-4.4587,-4.4587,-4.4587,-4.4587,-4.4587,-4.4587,-4.4587,-4.4587,-4.4587,-4.4587,-4.4587,-4.4587,-4.4587,-4.4587,-4.4587,-4.4587,-4.4587,0.0,0.0,0.0,0.0,0.0,0.0,0.0,0.0,0.0,0.0,0.0,0.0,0.0,0.0,0.0,0.0,0.0,0.0,0.0,0.0,0.0,0.0,0.0,0.0,0.0,0.0,0.0,-2.2582,-2.3282,-2.4484,-2.6139,-2.6139,0.0,0.0,0.0,-2.4592,-2.4592,-2.4592,-2.5067,-2.5815,-2.5961,-2.6847,0.0,0.0,0.0,0.0,-3.1004,-3.119,0.0,0.0,0.0,0.0,0.0,0.0,0.0,0.0,-3.5622,-3.5622,-3.5622,0.0,-3.5842,-3.6806,-3.7483,-3.8142,0.0,0.0,0.0,0.0,0.0,0.0,0.0,-3.9952,-4.002,-3.985,-3.9952,-4.007,-4.007,-4.007,-4.0358,-4.1119,-4.1847,-4.2591,-4.3352,-4.413,-4.4587,-4.4587,-4.4587,-4.4587,-4.4587,-4.4587,-4.4587,-4.4587,-4.4587,-4.4587,-4.4587,-4.4587,-4.4587,-4.4587,-4.4587,-4.4587,-4.4587,-4.4587,-4.4587,-4.4587,-4.4587,-4.4587,-4.4587,-4.4587,-4.4587,-4.4587,-4.4587,-4.4587,-4.4587,-4.4587,-4.4587,-4.4587,0.0,0.0,0.0,0.0,0.0,0.0,0.0,0.0,0.0,0.0,0.0,0.0,0.0,0.0,0.0,0.0,0.0,0.0,0.0,0.0,0.0,0.0,0.0,0.0,0.0,0.0,0.0,0.0,0.0,-2.4165,0.0,0.0,0.0,0.0,0.0,-2.4158,-2.443,-2.4657,-2.5259,-2.6013,-2.6227,0.0,0.0,0.0,0.0,0.0,-3.0937,-3.119,0.0,-3.119,-3.1681,-3.2408,0.0,0.0,0.0,0.0,-3.5622,-3.5622,-3.5622,-3.5622,-3.5808,-3.6586,-3.7347,-3.8091,0.0,0.0,0.0,0.0,0.0,0.0,0.0,-4.007,-4.007,-4.007,-4.007,-4.007,-4.007,-4.007,-4.0358,-4.1119,-4.1847,-4.2591,-4.3352,-4.413,-4.4587,-4.4587,-4.4587,-4.4587,-4.4587,-4.4587,-4.4587,-4.4587,-4.4587,-4.4587,-4.4587,-4.4587,-4.4587,-4.4587,-4.4587,-4.4587,-4.4587,-4.4587,-4.4587,-4.4587,-4.4587,-4.4587,-4.4587,-4.4587,-4.4587,-4.4587,-4.4587,-4.435,-4.4045,-4.4045,-4.3826,-4.3521,0.0,0.0,0.0,0.0,0.0,0.0,0.0,0.0,0.0,0.0,0.0,0.0,0.0,0.0,0.0,0.0,0.0,0.0,0.0,0.0,0.0,0.0,0.0,0.0,0.0,0.0,0.0,0.0,0.0,0.0,0.0,0.0,-2.5297,0.0,-2.3879,-2.4032,-2.4552,-2.5105,-2.5615,-2.6156,-2.6556,0.0,0.0,0.0,0.0,0.0,0.0,0.0,0.0,-3.119,-3.1613,-3.2256,-3.3136,0.0,0.0,0.0,0.0,0.0,-3.5622,-3.5622,-3.5774,-3.6434,-3.7263,-3.8075,0.0,0.0,0.0,0.0,0.0,0.0,0.0,-4.007,-4.007,-4.007,-4.007,-4.007,-4.007,-4.007,-4.0358,-4.1119,-4.1847,-4.2591,-4.3352,-4.413,-4.4587,-4.4587,-4.4587,-4.4587,-4.4587,-4.4587,-4.4587,-4.4587,-4.4587,-4.4587,-4.4587,-4.4587,-4.4587,-4.4587,-4.4587,-4.4587,-4.4587,-4.4587,-4.4587,-4.4587,-4.4587,-4.4587,-4.4587,-4.4587,-4.4502,-4.4401,-4.4401,-4.3927,-4.325,-4.325,-4.2844,-4.2286,0.0,0.0,0.0,0.0,0.0,0.0,0.0,0.0,0.0,0.0,0.0,0.0,0.0,0.0,0.0,0.0,0.0,0.0,0.0,0.0,0.0,0.0,0.0,0.0,0.0,0.0,0.0,0.0,0.0,0.0,-2.5335,-2.5335,-2.4752,-2.3767,-2.4116,-2.4592,-2.5105,-2.5652,-2.6139,-2.659,-2.6657,0.0,0.0,0.0,0.0,0.0,0.0,0.0,0.0,-3.119,-3.1275,-3.1596,-3.2966,0.0,0.0,0.0,0.0,0.0,-3.5622,-3.5622,-3.5639,-3.5774,-3.6857,-3.7939,0.0,0.0,0.0,0.0,0.0,0.0,0.0,-4.007,-4.007,-4.007,-4.007,-4.007,-4.007,-4.007,-4.0358,-4.1119,-4.1847,-4.2591,-4.3352,-4.413,-4.4587,-4.4587,-4.4587,-4.4587,-4.4587,-4.4587,-4.4587,-4.4587,-4.4587,-4.4587,-4.4587,-4.4587,-4.4587,-4.4587,-4.4587,-4.4587,-4.4587,-4.4587,-4.4587,-4.4587,-4.4587,-4.4587,-4.4587,-4.4587,-4.4198,-4.3589,-4.3589,-4.3132,-4.2472,-4.2472,-4.2388,-4.2286,0.0,0.0,0.0,0.0,0.0,0.0,0.0,0.0,0.0,0.0,0.0,0.0,0.0,0.0,0.0,0.0,0.0,0.0,0.0,0.0,0.0,0.0,0.0,0.0,0.0,0.0,0.0,0.0,0.0,-2.3895,-2.4736,-2.4471,-2.4241,-2.4032,-2.4266,-2.4871,-2.5652,-2.5888,-2.6262,-2.6691,0.0,0.0,0.0,0.0,0.0,0.0,0.0,0.0,0.0,0.0,-3.119,-3.1461,-3.2933,0.0,0.0,0.0,0.0,0.0,-3.5622,-3.5622,-3.5622,-3.5622,-3.6772,-3.7905,0.0,0.0,0.0,0.0,0.0,0.0,0.0,-4.007,-4.007,-4.007,-4.007,-4.007,-4.007,-4.007,-4.0358,-4.1119,-4.1508,-4.2151,-4.3301,-4.3741,-4.413,-4.4553,-4.4587,-4.4587,-4.4587,-4.4587,-4.4587,-4.4587,-4.4587,-4.4587,-4.4587,-4.4587,-4.4587,-4.4587,-4.4587,-4.4587,-4.4587,-4.4587,-4.4587,-4.4587,-4.4587,-4.4587,-4.4553,-4.413,-4.3741,-4.3369,-4.2963,-4.2354,-4.166,-4.1255,-4.1102,-4.1102,0.0,0.0,0.0,0.0,0.0,0.0,0.0,0.0,0.0,0.0,0.0,0.0,0.0,0.0,0.0,0.0,0.0,0.0,0.0,0.0,0.0,0.0,0.0,0.0,0.0,0.0,-2.1587,-2.3119,-2.3369,-2.3819,-2.4389,-2.3991,-2.3991,-2.4389,-2.4552,-2.5105,-2.6013,-2.6013,-2.6262,-2.6691,0.0,0.0,0.0,0.0,0.0,0.0,0.0,0.0,0.0,0.0,0.0,0.0,0.0,0.0,0.0,-3.5182,-3.5622,-3.5622,-3.5622,-3.5622,-3.5622,-3.5622,-3.6637,0.0,0.0,0.0,0.0,0.0,0.0,0.0,-4.007,-4.007,-4.007,-4.007,-4.007,-4.007,-4.007,-4.007,-4.0358,-4.1119,-4.1204,-4.1711,-4.3031,-4.3149,-4.347,-4.4248,-4.4316,-4.4384,-4.457,-4.4587,-4.4587,-4.4587,-4.4587,-4.4587,-4.4587,-4.4587,-4.4587,-4.4587,-4.4587,-4.4587,-4.4587,-4.4587,-4.4587,-4.457,-4.4384,-4.4316,-4.4248,-4.347,-4.3047,-4.2844,-4.2252,-4.1593,-4.0865,-4.029,-4.007,-4.007,0.0,0.0,0.0,0.0,0.0,0.0,0.0,0.0,0.0,0.0,0.0,0.0,0.0,0.0,0.0,0.0,0.0,0.0,0.0,0.0,0.0,0.0,0.0,0.0,0.0,-2.1746,-2.272,-2.3119,-2.417,-2.4563,-2.4389,-2.4348,-2.4348,-2.443,-2.4934,-2.5449,-2.6013,-2.6013,-2.6262,-2.6691,-2.6691,0.0,0.0,0.0,0.0,0.0,0.0,0.0,0.0,0.0,0.0,0.0,0.0,0.0,-3.3694,-3.5182,-3.5622,-3.5622,-3.5622,-3.5622,-3.5622,-3.5622,-3.6248,0.0,-3.7736,-3.8514,0.0,-3.9935,0.0,-4.007,-4.007,-4.007,-4.007,-4.007,-4.007,-4.007,-4.007,-4.007,-4.0358,-4.1119,-4.1204,-4.1508,-4.2286,-4.2371,-4.2692,-4.3453,-4.3504,-4.3809,-4.4536,-4.4587,-4.4587,-4.4587,-4.4587,-4.4587,-4.4587,-4.4587,-4.4587,-4.4587,-4.4587,-4.4587,-4.4587,-4.4587,-4.4587,-4.4536,-4.3809,-4.3504,-4.3453,-4.2692,-4.1982,-4.1356,-4.1305,-4.0832,-4.0155,-4.0104,-4.007,-4.007,0.0,0.0,0.0,0.0,0.0,0.0,0.0,0.0,0.0,0.0,0.0,0.0,0.0,0.0,0.0,0.0,0.0,0.0,0.0,0.0,0.0,0.0,0.0,-2.1415,-2.1118,-2.2147,-2.2818,-2.3064,-2.3732,-2.4166,-2.4389,-2.4389,0.0,0.0,-2.5615,-2.5961,-2.6453,-2.6453,-2.6556,-2.6742,-2.7199,-2.7858,0.0,0.0,0.0,0.0,0.0,0.0,0.0,0.0,-3.119,-3.1461,-3.2933,-3.3406,-3.3694,-3.5182,-3.5622,-3.5622,-3.5622,-3.5622,-3.5622,-3.5622,-3.5842,0.0,0.0,-3.8975,-3.9807,-4.092,-4.0844,-4.0497,-4.0171,-4.007,-4.007,-4.007,-4.007,-4.0204,-4.0528,-4.0336,-4.0306,-4.0923,-4.0712,-4.0798,-4.1542,-4.1627,-4.1914,-4.2658,-4.2726,-4.2844,-4.3132,-4.3149,-4.3149,-4.3149,-4.3149,-4.3149,-4.3149,-4.3623,-4.3623,-4.3166,-4.4113,-4.4587,-4.4587,-4.4587,-4.4316,-4.3842,-4.3538,-4.3149,-4.2658,-4.1914,-4.1457,-4.1153,-4.0696,-4.0542,-4.0577,-4.0204,-4.007,-4.007,0.0,0.0,0.0,0.0,0.0,0.0,0.0,0.0,0.0,0.0,0.0,0.0,0.0,0.0,0.0,0.0,0.0,0.0,0.0,0.0,0.0,0.0,0.0,-2.1811,-2.1582,-2.2706,-2.3243,-2.3208,-2.3659,-2.4032,-2.4389,0.0,0.0,0.0,-2.5815,-2.6104,-2.6691,-2.6556,-2.6539,-2.6759,-2.752,-2.8281,0.0,0.0,0.0,0.0,0.0,0.0,0.0,0.0,-3.119,-3.1461,-3.2933,-3.3406,-3.3694,-3.5182,-3.5622,-3.5622,-3.5622,-3.5622,-3.5667,-3.5827,0.0,0.0,-3.8695,-3.9338,-3.9886,-4.147,-4.1313,-4.078,-4.0417,-4.0368,-4.0368,-4.0368,-4.0497,-4.072,-4.0874,-4.075,-4.0767,-4.1133,-4.0844,-4.0848,-4.1332,-4.1203,-4.1409,-4.2176,-4.2036,-4.2049,-4.2286,-4.2286,-4.2286,-4.2286,-4.2286,-4.2286,-4.2286,-4.2811,-4.2811,-4.2303,-4.3552,-4.4062,-4.3859,-4.3859,-4.3555,-4.3047,-4.2828,-4.2528,-4.2176,-4.1409,-4.1203,-4.1332,-4.0622,-4.0703,-4.1133,-4.0546,-4.0466,-4.0611,0.0,0.0,0.0,0.0,0.0,0.0,0.0,0.0,0.0,0.0,0.0,0.0,0.0,0.0,0.0,0.0,0.0,0.0,0.0,0.0,0.0,0.0,0.0,-2.1181,-2.1598,-2.3516,-2.424,-2.3703,-2.4176,-2.4389,-2.4389,-2.443,0.0,0.0,-2.5449,-2.5783,-2.6657,-2.6191,-2.6262,-2.6776,-2.752,-2.8298,-2.9076,0.0,0.0,0.0,0.0,0.0,0.0,0.0,-3.119,-3.1461,-3.2933,-3.3406,-3.3694,-3.5182,-3.5622,-3.5622,-3.5622,-3.5622,-3.5739,-3.6266,0.0,0.0,-3.9714,-3.9496,-3.9286,-4.1389,-4.1358,-4.0903,-4.0903,-4.0903,-4.0903,-4.0903,-4.1402,-4.1578,-4.0995,-4.1446,-4.181,-4.181,-4.1793,-4.181,-4.181,-4.1268,-4.1249,-4.2064,-4.1561,-4.1508,-4.2289,-4.2323,-4.2323,-4.2323,-4.2269,-4.2269,-4.2323,-4.2269,-4.2269,-4.2323,-4.2893,-4.291,-4.2286,-4.2286,-4.2286,-4.2236,-4.1508,-4.1579,-4.2064,-4.1232,-4.1251,-4.175,-4.1133,-4.1268,-4.1707,-4.1133,-4.1268,-4.1639,0.0,0.0,0.0,0.0,0.0,0.0,0.0,0.0,0.0,0.0,0.0,0.0,0.0,0.0,0.0,0.0,0.0,0.0,0.0,0.0,0.0,0.0,0.0,0.0,0.0,0.0,-2.4405,-2.4781,-2.4532,-2.4576,0.0,0.0,0.0,-2.6487,0.0,0.0,-2.6691,-2.6539,-2.6859,-2.7554,-2.8332,-2.9093,-2.9854,0.0,0.0,0.0,0.0,0.0,0.0,0.0,0.0,0.0,-3.2933,-3.3406,-3.3694,-3.5182,-3.5622,-3.5622,-3.5622,-3.5622,-3.5739,-3.6266,0.0,0.0,0.0,-4.0055,0.0,0.0,-4.2302,-4.2038,-4.1621,-4.1534,-4.1534,-4.1534,-4.1664,-4.1895,-4.2121,-4.1937,-4.1937,-4.2382,-4.208,-4.181,-4.181,-4.1621,-4.164,-4.1886,-4.1726,-4.174,-4.195,-4.1967,-4.1967,-4.1967,-4.1549,-4.1501,-4.1967,-4.2071,-4.2071,-4.1967,-4.2647,-4.2736,-4.2339,-4.3108,-4.3027,-4.2169,-4.231,-4.2216,-4.1886,-4.164,-4.1895,-4.2382,-4.175,-4.1895,-4.2302,-4.1268,-4.1268,-4.1664,0.0,0.0,0.0,0.0,0.0,0.0,0.0,0.0,0.0,0.0,0.0,0.0,0.0,0.0,0.0,0.0,0.0,0.0,0.0,0.0,0.0,0.0,0.0,0.0,0.0,-2.3638,-2.4344,0.0,0.0,0.0,0.0,0.0,0.0,-2.6691,0.0,-2.6521,-2.6708,-2.7012,-2.7402,-2.7891,-2.8991,-2.9702,-3.0192,0.0,0.0,0.0,0.0,0.0,0.0,0.0,0.0,0.0,-3.3034,0.0,-3.4066,-3.5267,-3.5622,-3.5622,-3.5622,-3.5739,-3.6054,-3.6563,-3.6865,-3.7638,-4.0075,-4.1123,-4.1778,-4.2533,-4.2711,-4.2577,-4.2203,-4.2162,-4.2162,-4.2162,-4.2324,-4.2541,-4.2693,-4.258,-4.2619,-4.2976,-4.2696,-4.2483,-4.2483,-4.2284,-4.2162,-4.2162,-4.1937,-4.181,-4.181,-4.181,-4.181,-4.181,-4.1446,-4.1446,-4.181,-4.1938,-4.1938,-4.181,-4.2501,-4.2573,-4.213,-4.2787,-4.2695,-4.2002,-4.2562,-4.2549,-4.2162,-4.2162,-4.2501,-4.2976,-4.2382,-4.2501,-4.2884,-4.1979,-4.1961,-4.2346,0.0,0.0,0.0,0.0,0.0,0.0,0.0,0.0,0.0,0.0,-2.23,0.0,0.0,0.0,0.0,0.0,0.0,0.0,0.0,0.0,0.0,0.0,0.0,0.0,0.0,0.0,0.0,0.0,0.0,0.0,0.0,0.0,-2.5819,-2.6691,0.0,-2.633,-2.6843,-2.7537,-2.7874,-2.811,-2.955,-3.0142,-3.0277,-3.0937,0.0,0.0,0.0,0.0,0.0,0.0,0.0,0.0,-3.3169,-3.3914,-3.4641,-3.5402,-3.5622,-3.5622,-3.565,-3.6011,-3.6539,-3.7097,-3.7667,-3.8606,-4.0646,-4.2286,-4.3283,-4.2846,-4.2788,-4.2788,-4.2788,-4.2788,-4.2788,-4.2788,-4.3178,-4.3321,-4.2864,-4.3178,-4.3497,-4.3497,-4.3497,-4.3497,-4.3497,-4.305,-4.2788,-4.2788,-4.2244,-4.1961,-4.1961,-4.1961,-4.1961,-4.1961,-4.1895,-4.1895,-4.1961,-4.1895,-4.1895,-4.1979,-4.2519,-4.248,-4.1961,-4.1961,-4.1961,-4.1979,-4.2519,-4.2788,-4.2788,-4.2788,-4.305,-4.3444,-4.2976,-4.305,-4.3444,-4.2902,-4.305,-4.3356,0.0,0.0,0.0,0.0,0.0,0.0,0.0,0.0,0.0,0.0,0.0,0.0,0.0,0.0,0.0,0.0,0.0,0.0,0.0,0.0,0.0,0.0,0.0,0.0,0.0,0.0,0.0,0.0,0.0,0.0,0.0,0.0,0.0,-2.6691,0.0,-2.691,-2.7553,-2.7722,-2.8518,-2.9651,-2.9973,-3.0446,-3.097,-3.114,-3.119,0.0,0.0,0.0,0.0,0.0,0.0,0.0,-3.3169,-3.3914,-3.4641,-3.5402,-3.5622,-3.5694,-3.6097,-3.6291,0.0,-3.7524,-3.8622,-3.9768,-4.084,-4.1864,-4.2693,-4.3211,-4.3339,-4.3339,-4.3339,-4.3339,-4.3339,-4.3339,-4.341,-4.3444,-4.3321,-4.341,-4.3497,-4.3497,-4.3497,-4.3497,-4.3497,-4.341,-4.3339,-4.3339,-4.3196,-4.3142,-4.3142,-4.3142,-4.3142,-4.3142,-4.2732,-4.2714,-4.3142,-4.2714,-4.2714,-4.3142,-4.3286,-4.325,-4.3142,-4.3142,-4.3142,-4.3142,-4.3286,-4.3339,-4.3339,-4.3339,-4.341,-4.3497,-4.3375,-4.341,-4.3444,-4.2902,-4.305,-4.341,0.0,0.0,0.0,0.0,0.0,0.0,0.0,0.0,0.0,0.0,0.0,0.0,0.0,0.0,0.0,0.0,0.0,0.0,0.0,0.0,0.0,0.0,0.0,0.0,0.0,0.0,0.0,0.0,0.0,0.0,0.0,0.0,0.0,-2.6708,0.0,-2.7452,-2.784,-2.8566,-2.9381,-3.0142,-3.048,-3.0852,-3.119,-3.119,-3.119,-3.119,-3.119,0.0,0.0,0.0,0.0,0.0,0.0,0.0,-3.5115,-3.5504,-3.5622,-3.5694,-3.6249,-3.658,0.0,-3.8032,-3.8807,-3.9643,-4.0836,-4.1423,-4.2066,-4.324,-4.3497,-4.3497,-4.3497,-4.3497,-4.3497,-4.3497,-4.3497,-4.3497,-4.3497,-4.3497,-4.3497,-4.3497,-4.3497,-4.3497,-4.3497,-4.3497,-4.3497,-4.3497,-4.3497,-4.3497,-4.3497,-4.3497,-4.3497,-4.3497,-4.3214,-4.3214,-4.3497,-4.3214,-4.3214,-4.3497,-4.3497,-4.3497,-4.3497,-4.3497,-4.3497,-4.3497,-4.3497,-4.3497,-4.3497,-4.3497,-4.3497,-4.3497,-4.3497,-4.3497,-4.3463,-4.3178,-4.325,-4.3444,0.0,0.0,0.0,0.0,0.0,0.0,0.0,0.0,0.0,0.0,0.0,0.0,0.0,0.0,0.0,0.0,0.0,0.0,0.0,0.0,0.0,0.0,0.0,0.0,0.0,0.0,0.0,0.0,0.0,0.0,0.0,0.0,0.0,-2.6911,0.0,-2.7941,-2.8262,-2.9567,-3.0176,-3.0345,-3.0954,-3.119,-3.119,-3.119,-3.119,-3.119,-3.119,-3.119,-3.1309,-3.2036,0.0,0.0,0.0,0.0,-3.5622,-3.5622,-3.5622,-3.5694,-3.6249,-3.6825,-3.756,-3.8483,-3.8707,-3.9129,-4.0744,-4.1111,-4.157,-4.3167,-4.3497,-4.3497,-4.3497,-4.3497,-4.3497,-4.3497,-4.3497,-4.3497,-4.3497,-4.3497,-4.3497,-4.3497,-4.3497,-4.3497,-4.3497,-4.3497,-4.3497,-4.3497,-4.3497,-4.3497,-4.3497,-4.3497,-4.3497,-4.3497,-4.3497,-4.3497,-4.3497,-4.3497,-4.3497,-4.3497,-4.3497,-4.3497,-4.3497,-4.3497,-4.3497,-4.3497,-4.3497,-4.3497,-4.3497,-4.3497,-4.3497,-4.3497,-4.3497,-4.3497,-4.3497,-4.3497,-4.3497,-4.3497,0.0,0.0,0.0,0.0,0.0,0.0,0.0,0.0,0.0,0.0,-2.2825,0.0,0.0,0.0,0.0,0.0,0.0,0.0,0.0,0.0,0.0,0.0,0.0,0.0,0.0,0.0,0.0,0.0,0.0,0.0,0.0,0.0,0.0,-2.7637,0.0,0.0,-2.982,-3.0023,-3.048,-3.1055,-3.1157,-3.119,-3.119,-3.119,-3.119,-3.119,-3.119,-3.119,-3.1309,-3.2036,-3.278,0.0,0.0,0.0,-3.5622,-3.5622,-3.5622,-3.5694,-3.6249,0.0,-3.7946,-3.8546,-3.8707,-3.9129,-4.0744,-4.1111,-4.157,-4.3167,-4.3497,-4.3497,-4.3497,-4.3497,-4.3497,-4.3497,-4.3497,-4.3497,-4.3497,-4.3497,-4.3497,-4.3497,-4.3497,-4.3497,-4.3497,-4.3497,-4.3497,-4.3497,-4.3497,-4.3497,-4.3497,-4.3497,-4.3497,-4.3497,-4.3497,-4.3497,-4.3497,-4.3497,-4.3497,-4.3497,-4.3497,-4.3497,-4.3497,-4.3497,-4.3497,-4.3497,-4.3497,-4.3497,-4.3497,-4.3497,-4.3497,-4.3497,-4.3497,-4.3497,-4.3497,-4.3497,-4.3497,-4.3497,0.0,0.0,0.0,0.0,0.0,0.0,0.0,0.0,0.0,0.0,0.0,-2.2695,0.0,0.0,0.0,0.0,0.0,0.0,0.0,0.0,0.0,0.0,0.0,0.0,0.0,0.0,0.0,0.0,0.0,0.0,0.0,-2.7131,-2.7503,0.0,0.0,0.0,0.0,-3.0548,-3.0903,-3.119,-3.119,-3.1351,-3.1545,-3.1545,-3.1545,-3.1545,-3.1545,-3.1645,-3.1918,-3.2662,-3.3406,-3.415,-3.4878,0.0,0.0,0.0,-3.5622,-3.5766,-3.6603,-3.7342,-3.8013,-3.8578,-3.8707,-3.9001,-4.0157,-4.0781,-4.1442,-4.2598,-4.3185,-4.3497,-4.3497,-4.3497,-4.3497,-4.3497,-4.3497,-4.3497,-4.3497,-4.3497,-4.3497,-4.3497,-4.3497,-4.3497,-4.3497,-4.3497,-4.3497,-4.3497,-4.3497,-4.3497,-4.3497,-4.3497,-4.3497,-4.3497,-4.3497,-4.3497,-4.3497,-4.3497,-4.3497,-4.3497,-4.3497,-4.3497,-4.3497,-4.3497,-4.3497,-4.3497,-4.3497,-4.3497,-4.3497,-4.3497,-4.3497,-4.3497,-4.3497,-4.3497,-4.3497,-4.3497,-4.3497,-4.3497,0.0,0.0,0.0,0.0,0.0,0.0,0.0,0.0,0.0,0.0,0.0,0.0,0.0,0.0,0.0,0.0,0.0,0.0,0.0,0.0,0.0,0.0,0.0,0.0,0.0,0.0,0.0,0.0,0.0,0.0,-2.6996,-2.7757,-2.8213,0.0,-2.96,-3.0209,0.0,0.0,0.0,-3.119,-3.1329,-3.1528,-3.1808,-3.1915,-3.1986,-3.2021,-3.2213,-3.2389,-3.261,-3.3546,-3.416,-3.4624,-3.5385,-3.5622,0.0,0.0,0.0,-3.581,-3.6746,-3.736,-3.7843,-3.8382,-3.8596,-3.8909,-3.9717,-4.0524,-4.135,-4.2139,-4.2928,-4.3497,-4.3497,-4.3497,-4.3497,-4.3497,-4.3497,-4.3497,-4.3497,-4.3497,-4.3497,-4.3497,-4.3497,-4.3497,-4.3497,-4.3497,-4.3497,-4.3497,-4.3497,-4.3497,-4.3497,-4.3497,-4.3497,-4.3497,-4.3497,-4.3497,-4.3497,-4.3497,-4.3497,-4.3497,-4.3497,-4.3497,-4.3497,-4.3497,-4.3497,-4.3497,-4.3497,-4.3497,-4.3497,-4.3497,-4.3497,-4.3497,-4.3497,-4.3497,-4.3497,-4.3497,-4.3497,-4.3497,0.0,0.0,0.0,0.0,0.0,0.0,0.0,0.0,0.0,0.0,0.0,0.0,0.0,0.0,-2.231,-2.231,-2.2936,-2.3646,-2.4404,-2.5118,-2.5558,-2.5609,0.0,0.0,-2.6691,0.0,0.0,0.0,0.0,0.0,-2.7739,-2.8552,-2.9313,-2.9989,-3.0074,-3.0497,-3.114,0.0,0.0,-3.123,-3.164,-3.1789,-3.1861,-3.2298,-3.2451,-3.2573,-3.3332,-3.3336,-3.319,-3.4718,-3.4888,-3.4624,-3.5385,-3.5622,-3.5622,0.0,0.0,0.0,-3.6308,-3.6843,-3.736,-3.7825,-3.8332,-3.8909,-3.9717,-4.0524,-4.135,-4.2139,-4.2928,-4.3497,-4.3497,-4.3497,-4.3497,-4.3497,-4.3497,-4.3497,-4.3497,-4.3497,-4.3497,-4.3497,-4.3497,-4.3497,-4.3497,-4.3497,-4.3497,-4.3497,-4.3497,-4.3497,-4.3497,-4.3497,-4.3497,-4.3497,-4.3497,-4.3497,-4.3497,-4.3497,-4.3497,-4.3497,-4.3497,-4.3497,-4.3497,-4.3497,-4.3497,-4.3497,-4.3497,-4.3497,-4.3497,-4.3497,-4.3497,-4.3497,-4.3497,-4.3497,-4.3497,-4.3497,-4.3497,-4.3497,0.0,0.0,0.0,0.0,0.0,0.0,0.0,0.0,0.0,0.0,0.0,0.0,0.0,-2.301,-2.3004,-2.3004,-2.412,-2.4932,-2.5186,-2.5896,-2.6302,-2.6302,-2.6556,-2.6691,-2.6691,0.0,0.0,0.0,0.0,-2.7554,-2.7823,-2.911,-2.9854,-3.0125,-3.0598,-3.0954,-3.119,-3.119,0.0,0.0,-3.164,-3.1986,-3.2298,-3.2777,-3.2952,-3.3042,-3.388,-3.4157,-3.4284,-3.5027,-3.5705,-3.6237,-3.6121,-3.6097,-3.6071,-3.5694,-3.5622,-3.5694,-3.6249,-3.6539,-3.6865,-3.7685,-3.8047,-3.834,-3.8993,-3.9753,-4.0561,-4.1368,-4.2176,-4.2892,-4.3387,-4.3497,-4.3497,-4.3497,-4.3497,-4.3497,-4.3497,-4.3497,-4.3497,-4.3497,-4.3497,-4.3497,-4.3497,-4.3497,-4.3497,-4.3497,-4.3497,-4.3497,-4.3497,-4.3497,-4.3497,-4.3497,-4.3497,-4.3497,-4.3497,-4.3497,-4.3497,-4.3497,-4.3497,-4.3497,-4.3497,-4.3497,-4.3497,-4.3497,-4.3497,-4.3497,-4.3497,-4.3497,-4.3497,-4.3497,-4.3497,-4.3497,-4.3497,-4.3497,-4.3497,-4.3497,0.0,0.0,0.0,0.0,0.0,0.0,0.0,0.0,0.0,0.0,0.0,0.0,0.0,0.0,-2.4253,-2.4528,-2.5429,-2.6055,-2.6156,-2.6633,-2.6841,-2.6691,-2.6691,-2.6691,-2.6691,-2.6691,0.0,0.0,0.0,0.0,0.0,-2.9634,-3.0243,-3.0497,-3.097,-3.119,0.0,0.0,-3.119,-3.1269,-3.1806,-3.2196,-3.2619,-3.3473,-3.3807,-3.3953,-3.5072,-3.5429,-3.5492,-3.6017,-3.6635,-3.7152,-3.6764,-3.6684,-3.6563,-3.6011,-3.5854,-3.5898,-3.6097,0.0,-3.6843,-3.7506,-3.7911,-3.8267,-3.8627,-3.9313,-4.012,-4.0946,-4.1754,-4.2543,-4.3332,-4.3497,-4.3497,-4.3497,-4.3497,-4.3497,-4.3497,-4.3497,-4.3497,-4.3497,-4.3497,-4.3497,-4.3497,-4.3497,-4.3497,-4.3497,-4.3497,-4.3497,-4.3497,-4.3497,-4.3497,-4.3497,-4.3497,-4.3497,-4.3497,-4.3497,-4.3497,-4.3497,-4.3497,-4.3497,-4.3497,-4.3497,-4.3497,-4.3497,-4.3497,-4.3497,-4.3497,-4.3497,-4.3497,-4.3497,-4.3497,-4.3497,-4.3497,-4.3497,-4.3497,-4.3497,0.0,0.0,0.0,0.0,0.0,0.0,0.0,0.0,0.0,0.0,0.0,0.0,0.0,0.0,0.0,-2.6756,-2.6827,-2.6961,-2.7282,-2.7303,-2.7115,-2.6725,-2.6691,-2.6708,-2.6759,-2.6725,0.0,0.0,0.0,0.0,0.0,0.0,-3.0514,-3.119,-3.119,-3.119,-3.123,-3.119,-3.119,-3.1291,-3.2144,-3.2484,-3.2687,-3.4338,-3.499,-3.521,-3.689,-3.7179,-3.6847,-3.7641,-3.7614,-3.7248,-3.7228,-3.721,-3.7097,-3.658,-3.6374,-3.6308,0.0,0.0,0.0,-3.721,-3.7948,-3.8676,-3.8707,-3.9294,-4.0084,-4.091,-4.1699,-4.2506,-4.3314,-4.3461,-4.3497,-4.3497,-4.3497,-4.3497,-4.3497,-4.3497,-4.3497,-4.3497,-4.3497,-4.3497,-4.3497,-4.3497,-4.3497,-4.3497,-4.3497,-4.3497,-4.3497,-4.3497,-4.3497,-4.3497,-4.3497,-4.3497,-4.3497,-4.3497,-4.3497,-4.3497,-4.3497,-4.3497,-4.3497,-4.3497,-4.3497,-4.3497,-4.3497,-4.3497,-4.3497,-4.3497,-4.3497,-4.3497,-4.3497,-4.3497,-4.3497,-4.3497,-4.3497,-4.3497,0.0,0.0,0.0,0.0,0.0,0.0,0.0,0.0,0.0,0.0,0.0,0.0,0.0,0.0,-2.6756,-2.7536,-2.7607,-2.7525,-2.7317,-2.7303,-2.7241,-2.7147,-2.6841,-2.708,-2.7891,-2.7624,0.0,0.0,0.0,0.0,0.0,0.0,0.0,0.0,-3.119,-3.1351,-3.1585,-3.1312,-3.1389,-3.1696,-3.2282,-3.2484,-3.2687,-3.4338,-3.499,-3.521,-3.689,-3.7399,-3.7338,-3.776,-3.8065,-3.8201,-3.7843,-3.772,-3.7524,-3.6643,-3.6374,-3.6374,-3.6224,0.0,0.0,0.0,0.0,0.0,-3.8627,-3.8872,-3.9258,-4.0065,-4.0873,-4.168,-4.2488,-4.3112,-4.3497,-4.3497,-4.3497,-4.3497,-4.3497,-4.3497,-4.3497,-4.3497,-4.3497,-4.3497,-4.3497,-4.3497,-4.3497,-4.3497,-4.3497,-4.3497,-4.3497,-4.3497,-4.3497,-4.3497,-4.3497,-4.3497,-4.3497,-4.3497,-4.3497,-4.3497,-4.3497,-4.3497,-4.3497,-4.3497,-4.3497,-4.3497,-4.3497,-4.3497,-4.3497,-4.3497,-4.3497,-4.3497,-4.3497,-4.3497,-4.3497,-4.3497,-4.3497,-4.3497,0.0,0.0,0.0,0.0,0.0,0.0,0.0,0.0,0.0,0.0,0.0,0.0,0.0,0.0,0.0,-2.8324,-2.8378,-2.8147,-2.7589,-2.753,-2.7626,-2.7785,-2.7384,-2.7709,-2.8864,-2.8527,0.0,0.0,0.0,0.0,0.0,0.0,0.0,0.0,0.0,0.0,0.0,-3.1842,-3.1878,-3.2144,-3.2384,-3.2811,-3.3462,-3.4973,-3.5752,-3.6211,-3.7533,-3.7991,-3.8016,-3.8186,-3.8433,-3.8658,-3.8332,-3.8216,-3.8065,-3.7268,-3.702,0.0,0.0,0.0,0.0,-3.7755,0.0,0.0,-3.8627,-3.8707,-3.8927,-3.9717,-4.0267,-4.0946,-4.2084,-4.2671,-4.3112,-4.3442,-4.3497,-4.3497,-4.3497,-4.3497,-4.3497,-4.3497,-4.3497,-4.3497,-4.3497,-4.3497,-4.3497,-4.3497,-4.3497,-4.3497,-4.3497,-4.3497,-4.3497,-4.3497,-4.3497,-4.3497,-4.3497,-4.3497,-4.3497,-4.3497,-4.3497,-4.3497,-4.3497,-4.3497,-4.3497,-4.3497,-4.3497,-4.3497,-4.3497,-4.3497,-4.3497,-4.3497,-4.3497,-4.3497,-4.3497,-4.3497,-4.3497,-4.3497,0.0,0.0,0.0,0.0,0.0,0.0,0.0,0.0,0.0,0.0,0.0,0.0,0.0,0.0,0.0,0.0,-2.9067,-2.8846,-2.8134,-2.8195,-2.8405,-2.8757,-2.8288,-2.8562,-2.976,-2.9348,0.0,0.0,0.0,0.0,0.0,0.0,0.0,0.0,0.0,0.0,0.0,-3.2517,-3.2603,-3.2773,-3.2707,-3.3448,-3.4672,-3.5937,-3.6872,-3.7617,-3.8414,-3.8707,-3.8707,-3.8707,-3.8707,-3.8707,-3.8707,-3.8707,-3.8578,-3.8065,-3.7893,0.0,0.0,0.0,0.0,-3.798,-3.835,0.0,-3.8707,-3.8707,-3.8909,-3.9625,-3.9827,-4.0341,-4.1772,-4.2176,-4.2525,-4.324,-4.3424,-4.3497,-4.3497,-4.3497,-4.3497,-4.3497,-4.3497,-4.3497,-4.3497,-4.3497,-4.3497,-4.3497,-4.3497,-4.3497,-4.3497,-4.3497,-4.3497,-4.3497,-4.3497,-4.3497,-4.3497,-4.3497,-4.3497,-4.3497,-4.3497,-4.3497,-4.3497,-4.3497,-4.3497,-4.3497,-4.3497,-4.3497,-4.3497,-4.3497,-4.3497,-4.3497,-4.3497,-4.3497,-4.3497,-4.3497,-4.3497,-4.3497,-2.419,0.0,0.0,0.0,0.0,0.0,0.0,0.0,0.0,0.0,0.0,0.0,0.0,0.0,0.0,0.0,-2.9604,-2.9764,-2.9305,-2.9926,-3.0348,-3.0435,-2.9656,-2.9795,-3.0941,-3.0261,0.0,0.0,0.0,0.0,0.0,0.0,0.0,0.0,0.0,0.0,0.0,-3.2648,-3.3279,-3.4488,-3.4171,-3.4578,-3.5498,-3.679,-3.7379,-3.7617,-3.8414,-3.8707,-3.8707,-3.8707,-3.8707,-3.8707,-3.8707,-3.8707,-3.8578,-3.8065,-3.7893,-3.7859,-3.779,-3.7825,-3.8013,-3.8433,-3.8627,0.0,-3.8707,-3.8707,-3.8744,-3.8909,-3.9441,-3.9992,-4.0304,-4.1423,-4.2359,-4.2506,-4.3075,-4.3497,-4.3497,-4.3497,-4.3497,-4.3497,-4.3497,-4.3497,-4.3497,-4.3497,-4.3497,-4.3497,-4.3497,-4.3497,-4.3497,-4.3497,-4.3497,-4.3497,-4.3497,-4.3497,-4.3497,-4.3497,-4.3497,-4.3497,-4.3497,-4.3497,-4.3497,-4.3497,-4.3497,-4.3497,-4.3497,-4.3497,-4.3497,-4.3497,-4.3497,-4.3497,-4.3497,-4.3497,-4.3497,-4.3497,-4.3497,-4.3497,-2.4704,0.0,0.0,0.0,0.0,0.0,0.0,0.0,0.0,0.0,0.0,0.0,0.0,0.0,0.0,0.0,0.0,0.0,0.0,0.0,-3.1064,-3.149,-3.0845,-3.0944,-3.1883,-3.1271,0.0,0.0,0.0,0.0,0.0,0.0,0.0,0.0,0.0,0.0,0.0,-3.3599,-3.4491,-3.5595,-3.474,-3.5253,-3.6614,-3.7253,-3.7734,-3.8138,-3.856,-3.8707,-3.8707,-3.8707,-3.8707,-3.8707,-3.8707,-3.8707,-3.8658,-3.8382,-3.83,-3.83,-3.83,-3.83,-3.8382,-3.8627,-3.8707,0.0,0.0,-3.8707,-3.8707,-3.8707,-3.9019,-3.9423,-3.9827,-4.0561,-4.1368,-4.2176,-4.2635,-4.3039,-4.3424,-4.3497,-4.3497,-4.3497,-4.3497,-4.3497,-4.3497,-4.3497,-4.3497,-4.3497,-4.3497,-4.3497,-4.3497,-4.3497,-4.3497,-4.3497,-4.3497,-4.3497,-4.3497,-4.3497,-4.3497,-4.3497,-4.3497,-4.3497,-4.3497,-4.3497,-4.3497,-4.3497,-4.3497,-4.3497,-4.3497,-4.3497,-4.3497,-4.3497,-4.3497,-4.3497,-4.3497,-4.3497,-4.3497,-4.3497,-2.5104,0.0,0.0,0.0,0.0,0.0,0.0,0.0,0.0,0.0,0.0,0.0,0.0,0.0,0.0,0.0,0.0,0.0,-3.1328,-3.1447,-3.1801,-3.2399,-3.2002,-3.204,-3.2631,-3.2092,0.0,0.0,0.0,0.0,0.0,0.0,0.0,0.0,0.0,0.0,0.0,-3.4585,-3.5605,-3.6421,-3.5412,-3.6091,-3.7716,-3.7716,-3.812,-3.8707,-3.8707,-3.8707,-3.8707,-3.8707,-3.8707,-3.8707,-3.8707,-3.8707,-3.8707,-3.8707,-3.8707,-3.8707,-3.8707,-3.8707,-3.8707,-3.8707,-3.8707,-3.8707,0.0,0.0,0.0,-3.8707,-3.8707,-3.8909,-3.9551,-3.979,-4.0322,-4.1625,-4.2103,-4.2525,-4.3167,-4.3387,-4.3497,-4.3497,-4.3497,-4.3497,-4.3497,-4.3497,-4.3497,-4.3497,-4.3497,-4.3497,-4.3497,-4.3497,-4.3497,-4.3497,-4.3497,-4.3497,-4.3497,-4.3497,-4.3497,-4.3497,-4.3497,-4.3497,-4.3497,-4.3497,-4.3497,-4.3497,-4.3497,-4.3497,-4.3497,-4.3497,-4.3497,-4.3497,-4.3497,-4.3497,-4.3497,-4.3497,-4.3497,-4.3497,-2.4608,-2.5424,0.0,0.0,0.0,0.0,0.0,0.0,0.0,0.0,0.0,0.0,0.0,-3.0714,-3.1205,-3.1902,-3.2712,-3.306,-3.279,-3.3436,-3.3753,-3.3615,-3.3216,-3.3015,-3.3105,-3.2264,-3.1986,0.0,0.0,0.0,0.0,0.0,0.0,0.0,-3.355,0.0,0.0,-3.4954,-3.5917,-3.7331,-3.7209,-3.7723,-3.856,-3.856,-3.8615,-3.8707,-3.8707,-3.8707,-3.8707,-3.8707,-3.8707,-3.8707,-3.8707,-3.8707,-3.8707,-3.8707,-3.8707,-3.8707,-3.8707,-3.8707,-3.8707,-3.8707,-3.8707,-3.8707,-3.8707,0.0,-3.8707,-3.8707,0.0,-3.8726,-3.8817,0.0,0.0,-4.0139,-4.1368,-4.2323,-4.2415,-4.3039,-4.3497,-4.3497,-4.3497,-4.3497,-4.3497,-4.3497,-4.3497,-4.3497,-4.3497,-4.3497,-4.3497,-4.3497,-4.3497,-4.3497,-4.3497,-4.3497,-4.3497,-4.3497,-4.3497,-4.3497,-4.3497,-4.3497,-4.3497,-4.3497,-4.3497,-4.3497,-4.3497,-4.3497,-4.3497,-4.3497,-4.3497,-4.3497,-4.3497,-4.3497,-4.3497,-4.3497,-4.3497,-4.3497,-2.6228,-2.6359,0.0,0.0,0.0,0.0,0.0,0.0,0.0,0.0,0.0,0.0,-3.103,-3.1589,-3.2132,-3.2625,-3.3393,-3.3814,-3.3697,-3.4013,0.0,-3.3815,-3.3652,-3.3437,-3.3214,-3.2809,-3.2583,0.0,-3.2298,0.0,0.0,0.0,0.0,0.0,-3.4962,-3.544,-3.5789,-3.6248,-3.6853,-3.7533,-3.801,-3.8395,-3.8707,-3.8707,-3.8707,-3.8707,-3.8707,-3.8707,-3.8707,-3.8707,-3.8707,-3.8707,-3.8707,-3.8707,-3.8707,-3.8707,-3.8707,-3.8707,-3.8707,-3.8707,-3.8707,-3.8707,-3.8707,-3.8707,-3.8707,-3.8707,-3.8707,-3.8707,0.0,0.0,0.0,0.0,0.0,0.0,-4.0469,-4.1222,-4.2176,-4.2598,-4.2983,-4.3424,-4.3497,-4.3497,-4.3497,-4.3497,-4.3497,-4.3497,-4.3497,-4.3497,-4.3497,-4.3497,-4.3497,-4.3497,-4.3497,-4.3497,-4.3497,-4.3497,-4.3497,-4.3497,-4.3497,-4.3497,-4.3497,-4.3497,-4.3597,-4.3804,-4.3804,-4.3912,-4.4154,-4.4154,-4.4154,-4.4154,-4.4154,-4.3868,-4.3497,-4.3497,-4.3497,-4.3497,-2.7893,0.0,0.0,0.0,0.0,0.0,0.0,0.0,-3.0283,-3.0503,-3.109,-3.1605,-3.1808,-3.2487,-3.3101,-3.3527,-3.4175,-3.4534,-3.4449,-3.4379,-3.4242,-3.4055,-3.3895,-3.3689,-3.3468,-3.3284,-3.3075,0.0,0.0,0.0,0.0,0.0,0.0,0.0,-3.6028,-3.6413,-3.667,-3.7239,-3.7606,-3.7863,-3.8469,-3.8707,-3.8707,-3.8707,-3.8707,-3.8707,-3.8707,-3.8707,-3.8707,-3.8707,-3.8707,-3.8707,-3.8707,-3.8707,-3.8707,-3.8707,-3.8707,-3.8707,-3.8707,-3.8707,-3.8707,-3.8707,-3.8707,-3.8707,-3.8707,-3.8707,-3.8707,-3.8707,-3.8707,0.0,0.0,0.0,-3.8891,-3.9478,0.0,-4.0304,-4.1479,-4.1827,-4.2359,-4.3369,-4.3497,-4.3497,-4.3497,-4.3497,-4.3497,-4.3497,-4.3497,-4.3497,-4.3497,-4.3497,-4.3497,-4.3497,-4.3497,-4.3497,-4.3497,-4.3597,-4.3646,-4.3646,-4.3744,-4.3791,-4.3791,-4.3791,-4.3912,-4.4146,-4.4146,-4.4318,-4.458,-4.458,-4.458,-4.458,-4.458,-4.428,-4.3791,-4.3679,-4.3563,-4.3497,-2.8938,-2.892,0.0,0.0,-2.8994,0.0,0.0,-3.0173,-3.0485,-3.1256,-3.1612,-3.2091,-3.2854,-3.345,-3.4099,-3.4973,-3.5285,-3.5354,-3.5088,-3.4813,-3.4674,-3.4674,-3.4111,-3.3928,-3.4152,-3.3533,-3.339,-3.3762,0.0,0.0,0.0,0.0,0.0,0.0,-3.6285,-3.6725,-3.7441,-3.7477,-3.7936,-3.867,-3.8689,-3.8707,-3.8707,-3.8707,-3.8707,-3.8707,-3.8707,-3.8707,-3.8707,-3.8707,-3.8707,-3.8707,-3.8707,-3.8707,-3.8707,-3.8707,-3.8707,-3.8707,-3.8707,-3.8707,-3.8707,-3.8707,-3.8707,-3.8707,-3.8707,-3.8707,-3.8707,-3.8707,-3.8707,-3.8707,-3.8707,-3.8707,-3.8707,-3.8726,-3.9386,0.0,0.0,-4.0653,-4.1735,-4.3296,-4.3497,-4.3497,-4.3497,-4.3497,-4.3497,-4.3497,-4.3497,-4.3497,-4.3497,-4.3497,-4.3497,-4.3497,-4.3497,-4.3497,-4.3497,-4.3836,-4.3967,-4.3986,-4.4392,-4.4553,-4.4553,-4.4553,-4.4553,-4.458,-4.458,-4.458,-4.458,-4.458,-4.458,-4.458,-4.458,-4.4599,-4.4527,-4.4136,-4.3772,-4.3497,0.0,0.0,0.0,-2.9811,-3.029,-3.0686,-3.0968,-3.1597,-3.2164,-3.24,-3.3194,-3.3815,-3.4097,-3.428,-3.4585,-3.5069,-3.519,-3.5207,-3.5105,-3.4851,-3.4694,-3.4694,-3.4111,-3.3928,-3.42,-3.3787,-3.3908,-3.4596,-3.4457,0.0,0.0,0.0,0.0,0.0,0.0,-3.8046,-3.8285,-3.8285,-3.845,-3.8707,-3.8707,-3.8707,-3.8719,-3.8894,-3.8855,-3.875,-3.9154,-3.9036,-3.8719,-3.8894,-3.8844,-3.8707,-3.8707,-3.8707,-3.8707,-3.8707,-3.8707,-3.8707,-3.8707,-3.8707,-3.8707,-3.8707,-3.8707,-3.8707,-3.8707,-3.8707,-3.8707,-3.8707,-3.8707,-3.8707,-3.8707,-3.8707,-3.8707,-3.8707,-3.8927,-3.9294,0.0,-4.0598,-4.1313,-4.1864,-4.2837,-4.3497,-4.3497,-4.3497,-4.3497,-4.3497,-4.3497,-4.3497,-4.3497,-4.3497,-4.3497,-4.3497,-4.3726,-4.3818,-4.3818,-4.4223,-4.4392,-4.4419,-4.4527,-4.458,-4.458,-4.458,-4.4707,-4.4919,-4.4919,-4.5074,-4.5263,-4.5263,-4.5263,-4.5263,-4.5263,-4.5118,-4.4896,-4.4527,-4.4337,-4.4242,-2.9015,-2.9289,-2.9764,-3.0611,-3.1098,-3.1544,-3.1906,-3.2558,-3.3146,-3.3556,-3.4252,-3.4694,-3.4694,-3.4793,-3.4908,-3.5088,-3.519,-3.5239,-3.5239,-3.4981,-3.487,-3.4981,-3.442,-3.4237,-3.4513,-3.4439,-3.4655,-3.519,-3.5368,-3.5899,0.0,0.0,0.0,0.0,0.0,-3.8707,-3.8707,-3.8707,-3.8707,-3.8707,-3.8707,-3.8707,-3.875,-3.9117,-3.9109,-3.8913,-3.9408,-3.9275,-3.8884,-3.9178,-3.9017,-3.8738,-3.8833,-3.8792,-3.8707,-3.8707,-3.8707,-3.8707,-3.8707,-3.8707,-3.8707,-3.8707,-3.8707,-3.8707,-3.8707,-3.8707,-3.8707,-3.8707,-3.8707,-3.8707,-3.8707,-3.8707,-3.8707,-3.8707,-3.8707,-3.8891,0.0,-4.0175,-4.0671,-4.0671,-4.1846,-4.2763,-4.3039,-4.3057,-4.3185,-4.3461,-4.3497,-4.3497,-4.3497,-4.3497,-4.3529,-4.366,-4.3881,-4.4058,-4.4204,-4.4606,-4.4776,-4.4776,-4.4896,-4.4966,-4.4966,-4.4966,-4.5055,-4.5282,-4.5282,-4.54,-4.5586,-4.5586,-4.5586,-4.5586,-4.5586,-4.5476,-4.5243,-4.4896,-4.4682,-4.458,-2.8994,-2.9891,-3.0856,-3.1493,-3.1566,-3.1874,-3.291,-3.3109,-3.3499,-3.4579,-3.4734,-3.4734,-3.4734,-3.4963,-3.5122,-3.5122,-3.5354,-3.5493,-3.5493,-3.5239,-3.5223,-3.5493,-3.4981,-3.4832,-3.5088,-3.5356,-3.5522,-3.5559,-3.6113,-3.6762,0.0,0.0,0.0,0.0,-3.8707,-3.8707,-3.8707,-3.8719,-3.8719,-3.875,-3.8719,-3.8719,-3.8822,-3.9402,-3.9432,-3.9186,-3.9529,-3.9414,-3.9178,-3.951,-3.9242,-3.8792,-3.9036,-3.8933,-3.875,-3.875,-3.875,-3.875,-3.8719,-3.8719,-3.8738,-3.8707,-3.8707,-3.8707,-3.8707,-3.8707,-3.8707,-3.8707,-3.8707,-3.8707,-3.8707,-3.8707,-3.8707,-3.8707,-3.8707,-3.8707,-3.8707,-3.935,-3.9827,-3.9827,-4.0524,-4.1313,-4.2158,-4.2286,-4.2616,-4.3369,-4.3461,-4.3497,-4.3497,-4.3513,-4.3679,-4.3986,-4.4028,-4.4233,-4.4606,-4.4943,-4.5118,-4.5118,-4.5438,-4.5586,-4.5586,-4.5586,-4.5586,-4.5586,-4.5586,-4.5586,-4.5586,-4.5586,-4.5586,-4.5586,-4.5586,-4.5586,-4.5568,-4.5243,-4.4919,-4.4631,-2.9211,-3.1803,-3.4258,-3.4413,-3.3752,-3.3431,-3.4141,-3.4414,-3.466,-3.4962,-3.5174,-3.5289,-3.5289,-3.5354,-3.5403,-3.5403,-3.546,-3.5493,-3.5493,-3.5239,-3.5223,-3.5493,-3.4981,-3.4832,-3.5088,-3.5356,-3.5802,-3.6391,-3.6915,-3.7588,-3.8395,0.0,0.0,0.0,0.0,-3.8707,-3.8719,-3.8923,-3.9144,-3.9352,-3.909,-3.9144,-3.9427,-3.9816,-3.9922,-3.9882,-4.0157,-3.9925,-3.951,-3.9859,-3.9709,-3.9377,-3.9457,-3.9432,-3.9377,-3.9377,-3.9377,-3.9327,-3.9082,-3.8999,-3.8961,-3.8732,-3.8707,-3.8707,-3.8707,-3.8707,-3.8707,-3.8707,-3.8707,-3.8707,-3.8707,-3.8707,-3.8707,-3.8707,-3.8707,-3.8707,-3.8707,-3.8891,-3.9019,-3.9019,-3.9203,-3.9882,-4.1277,-4.1956,-4.2396,-4.2598,-4.3149,-4.3497,-4.3497,-4.3758,-4.3893,-4.4016,-4.4516,-4.4853,-4.4966,-4.5283,-4.5476,-4.5457,-4.5568,-4.5586,-4.5586,-4.5586,-4.5586,-4.5586,-4.5586,-4.5586,-4.5586,-4.5586,-4.5586,-4.5586,-4.5586,-4.5586,-4.5586,-4.5495,-4.5419,-4.5342,-3.0536,-3.3154,-3.5496,-3.5503,-3.4963,-3.4617,-3.485,-3.4999,-3.5138,-3.5273,-3.5417,-3.5493,-3.5493,-3.5493,-3.5493,-3.5493,-3.5493,-3.5493,-3.5493,-3.5369,-3.5335,-3.5493,-3.5207,-3.5293,-3.579,-3.6178,-3.6712,-3.7392,-3.7941,-3.8372,-3.8707,0.0,0.0,0.0,0.0,-3.8707,-3.8719,-3.8971,-3.9212,-3.9364,-3.9358,-3.9414,0.0,-3.9982,-4.0101,-4.0139,-4.0406,-4.0212,-3.988,-4.0157,-3.9964,-3.9622,-3.9775,-3.9731,-3.9599,-3.9599,-3.9599,-3.9552,-3.9364,-3.9314,-3.9257,-3.8952,-3.8884,-3.8826,-3.8719,-3.8707,-3.8707,-3.8707,-3.8707,-3.8707,-3.8707,-3.8707,-3.8707,-3.8707,-3.8707,-3.8707,-3.8707,-3.8707,-3.8707,-3.8707,-3.8707,-3.9056,-3.9974,-4.0781,-4.1405,-4.1754,-4.2525,-4.3048,-4.319,-4.3708,-4.4146,-4.4463,-4.4877,-4.518,-4.5322,-4.5513,-4.5586,-4.5586,-4.5586,-4.5586,-4.5586,-4.5586,-4.5586,-4.5586,-4.5586,-4.5586,-4.5586,-4.5586,-4.5586,-4.5586,-4.5586,-4.5586,-4.5586,-4.5586,-4.5586,-4.5586,-3.2541,-3.4181,-3.5506,-3.5498,-3.5493,-3.5432,-3.519,-3.5138,-3.5223,-3.5479,-3.5493,-3.5493,-3.5493,-3.5493,-3.5493,-3.5493,-3.5493,-3.5493,-3.5493,-3.5493,-3.5493,-3.5493,-3.5603,-3.5988,-3.668,-3.7345,-3.7869,-3.829,-3.8845,-3.8961,-3.8707,0.0,0.0,0.0,0.0,-3.875,-3.8833,-3.9027,-3.916,-3.9314,-3.9557,-3.969,-3.9757,-4.0042,-4.0158,-4.0177,-4.0425,-4.0356,-4.0177,-4.0406,-4.0157,-3.9757,-4.0062,-3.9963,-3.9712,-3.9712,-3.9712,-3.9712,-3.9668,-3.9668,-3.9599,-3.9238,-3.9178,-3.9099,-3.8873,-3.8792,-3.8762,-3.8762,-3.8719,-3.8707,-3.8707,-3.8707,-3.8707,-3.8707,-3.8707,-3.8707,-3.8707,-3.8707,-3.8707,-3.8707,-3.8707,0.0,-3.8707,-3.9423,-4.0194,-4.0891,-4.1699,-4.2336,-4.2768,-4.3498,-4.4269,-4.5074,-4.514,-4.5302,-4.5586,-4.5586,-4.5586,-4.5586,-4.5586,-4.5586,-4.5586,-4.5586,-4.5586,-4.5586,-4.5586,-4.5586,-4.5586,-4.5586,-4.5586,-4.5586,-4.5586,-4.5586,-4.5586,-4.5586,-4.5586,-4.5586,-3.4717,-3.5244,-3.5504,-3.5493,-3.5493,-3.5493,-3.5432,-3.5432,-3.5446,-3.5493,-3.5493,-3.5493,-3.5493,-3.5493,-3.5493,-3.5493,-3.5493,-3.5493,-3.5493,-3.5493,-3.5493,-3.5493,-3.6142,-3.6565,-3.6699,-3.7938,-3.8477,-3.829,-3.8845,-3.8961,-3.8707,-3.8707,0.0,0.0,0.0,-3.897,-3.9427,-3.9205,-3.9561,-4.0229,-4.0081,-4.0139,-4.0353,-4.0406,-4.0441,-4.0441,-4.0489,-4.0473,-4.0441,-4.0489,-4.0422,-4.0353,-4.0406,-4.0389,-4.0336,-4.0336,-4.0336,-4.0283,-4.0081,-4.0002,-3.9922,-3.9599,-3.951,-3.9505,-3.9457,-3.9249,-3.9036,-3.9036,-3.8855,-3.8707,-3.8707,-3.8707,-3.8707,-3.8707,-3.8707,-3.8707,-3.8707,-3.8707,-3.8707,-3.8707,-3.8707,-3.8707,-3.8707,-3.9423,-3.9955,-4.0102,-4.0873,-4.1746,-4.275,-4.3192,-4.3926,-4.5077,-4.5362,-4.5531,-4.5586,-4.5586,-4.5586,-4.5586,-4.5586,-4.5586,-4.5586,-4.5586,-4.5586,-4.5586,-4.5586,-4.5586,-4.5586,-4.5586,-4.5586,-4.5586,-4.5586,-4.5586,-4.5586,-4.5586,-4.5586,-4.5586,-3.5378,-3.5493,-3.5526,-3.5565,-3.5565,-3.5565,-3.5603,-3.5584,-3.5545,-3.5493,-3.5493,-3.5493,-3.5493,-3.5493,-3.5493,-3.5493,-3.5493,-3.5493,-3.5493,-3.5493,-3.5699,-3.6103,-3.6488,-3.7123,-3.8027,-3.8706,-3.9033,-3.8954,-3.9226,-3.9136,-3.8707,-3.8707,-3.8707,-3.8707,-3.8844,-3.9163,-3.9599,-3.9622,-3.9882,-4.0285,-4.0285,-4.0389,-4.0489,-4.0489,-4.0489,-4.0489,-4.0489,-4.0489,-4.0489,-4.0489,-4.0489,-4.0489,-4.0489,-4.0489,-4.0489,-4.0489,-4.0489,-4.0473,-4.0339,-4.0321,-4.0232,-3.9943,-3.9859,-3.9819,-3.9645,-3.9481,-3.9314,-3.9152,-3.8999,-3.8855,-3.8719,-3.8707,-3.8707,-3.8707,-3.8707,-3.8707,-3.8707,-3.8707,-3.8732,-3.8894,-3.8894,-3.8894,-3.8894,-3.9246,-3.9446,-3.9307,-4.0029,-4.0861,-4.1758,-4.2354,-4.3293,-4.4652,-4.4841,-4.5143,-4.5586,-4.5586,-4.5586,-4.5586,-4.5586,-4.5586,-4.5586,-4.5586,-4.5586,-4.5586,-4.5586,-4.5586,-4.5586,-4.5586,-4.5586,-4.5586,-4.5586,-4.5586,-4.5586,-4.5586,-4.5586,-4.5586,-3.5493,-3.5526,-3.5565,-3.5603,-3.5599,-3.563,-3.5688,-3.5637,-3.5579,-3.5526,-3.5526,-3.5493,-3.5493,-3.5493,-3.5493,-3.5493,-3.5493,-3.5493,-3.5493,-3.5661,-3.6045,-3.668,-3.7046,-3.7892,-3.9258,-3.9469,-3.9599,-3.9709,-3.9622,-3.9327,-3.8792,-3.8792,-3.8833,-3.8902,-3.9117,-3.9389,-3.9712,-3.9982,-4.0139,-4.0195,-4.0406,-4.0489,-4.0489,-4.0489,-4.0489,-4.0489,-4.0489,-4.0489,-4.0489,-4.0489,-4.0489,-4.0489,-4.0489,-4.0489,-4.0489,-4.0489,-4.0489,-4.0489,-4.0489,-4.0489,-4.0457,-4.0232,-4.0177,-4.012,-3.9842,-3.9735,-3.9622,-3.9364,-3.9257,-3.9117,-3.8844,-3.8792,-3.8762,-3.8707,-3.8707,-3.8707,-3.8707,-3.8707,-3.8803,-3.9072,-3.9063,-3.9063,-3.9186,-3.909,-3.8961,-3.8803,-3.9338,-4.0007,-4.0863,-4.151,-4.2481,-4.3901,-4.4165,-4.4607,-4.5244,-4.5472,-4.5586,-4.5586,-4.5586,-4.5586,-4.5586,-4.5586,-4.5586,-4.5586,-4.5586,-4.5586,-4.5586,-4.5586,-4.5586,-4.5586,-4.5586,-4.5586,-4.5586,-4.5586,-4.5586,-4.5586,-3.5493,-3.5603,-3.5661,-3.5622,-3.5649,-3.5694,-3.5694,-3.5638,-3.5609,-3.5592,-3.5545,-3.5493,-3.5493,-3.5493,-3.5493,-3.5493,-3.5493,-3.5493,-3.5493,-3.618,-3.6622,-3.6699,-3.82,-3.9123,-3.9296,-4.0008,-4.0279,-4.0042,-3.9754,-3.9432,-3.9044,-3.9044,-3.9231,-3.9505,-3.9552,-3.9754,-4.0061,-4.0081,-4.0232,-4.0473,-4.0489,-4.0489,-4.0489,-4.0489,-4.0489,-4.0489,-4.0489,-4.0489,-4.0489,-4.0489,-4.0489,-4.0489,-4.0489,-4.0489,-4.0489,-4.0489,-4.0489,-4.0489,-4.0489,-4.0489,-4.0489,-4.0473,-4.0473,-4.0438,-4.0422,-4.0232,-4.0042,-4.0002,-3.9775,-3.9438,-3.9125,-3.9044,-3.8971,-3.875,-3.8707,-3.8707,-3.8707,-3.8707,-3.8803,-3.9072,-3.8884,-3.8942,-3.9505,-3.9064,-3.8815,-3.9063,-3.8918,-3.9415,-4.0825,-4.0986,-4.1541,-4.2717,-4.375,-4.4228,-4.4055,-4.5073,-4.5586,-4.5586,-4.5586,-4.5586,-4.5586,-4.5586,-4.5586,-4.5586,-4.5586,-4.5586,-4.5586,-4.5586,-4.5586,-4.5586,-4.5586,-4.5586,-4.5586,-4.5586,-4.5586,-4.5586,-3.5603,-3.5767,-3.5852,-3.5797,-3.5797,-3.5824,-3.5864,-3.5818,-3.5785,-3.5784,-3.5622,-3.5526,-3.5565,-3.5526,-3.5493,-3.5493,-3.5493,-3.5699,-3.6199,-3.6526,-3.718,-3.82,-3.8931,-3.9527,-4.0008,-4.0335,-4.0372,-4.0101,-3.9775,-3.9529,-3.9389,-3.9186,-3.9408,-3.9901,-3.9901,-4.0062,-4.0339,-4.0339,-4.0389,-4.0489,-4.0489,-4.0489,-4.0489,-4.0489,-4.0489,-4.0489,-4.0489,-4.0489,-4.0489,-4.0489,-4.0489,-4.0489,-4.0489,-4.0489,-4.0489,-4.0489,-4.0489,-4.0489,-4.0489,-4.0489,-4.0489,-4.0489,-4.0489,-4.0489,-4.0489,-4.0425,-4.0285,-4.0139,-3.9819,-3.9552,-3.9414,-3.9257,-3.9044,-3.8961,-3.8933,-3.8933,-3.8933,-3.9109,-3.9352,-3.9645,-3.9614,-3.9637,-3.988,-3.95,-3.9197,-3.9125,-3.8855,-3.9118,-4.0066,-4.0132,-4.0734,-4.2083,-4.2554,-4.3013,-4.3425,-4.4359,-4.4816,-4.4816,-4.5336,-4.5586,-4.5586,-4.5586,-4.5586,-4.5586,-4.5586,-4.5586,-4.5586,-4.5586,-4.5586,-4.5586,-4.5586,-4.5586,-4.5586,-4.5586,-4.5586,-4.5586,-3.5784,-3.5897,-3.5997,-3.5941,-3.5941,-3.5957,-3.5992,-3.5942,-3.5915,-3.5926,-3.5695,-3.5554,-3.5584,-3.5545,-3.5493,-3.5493,-3.5493,-3.5853,-3.6661,-3.6949,-3.7757,-3.9238,-3.9527,-3.9912,-4.0489,-4.0489,-4.0406,-4.0213,-3.9903,-3.9754,-3.9754,-3.9486,-3.969,-4.0213,-4.0213,-4.0321,-4.0489,-4.0489,-4.0489,-4.0489,-4.0489,-4.0489,-4.0489,-4.0489,-4.0489,-4.0489,-4.0489,-4.0489,-4.0489,-4.0489,-4.0489,-4.0489,-4.0489,-4.0489,-4.0489,-4.0489,-4.0489,-4.0489,-4.0489,-4.0489,-4.0489,-4.0489,-4.0489,-4.0489,-4.0489,-4.0489,-4.0457,-4.0269,-4.0043,-3.9842,-3.9757,-3.9552,-3.9364,-3.9264,-3.9238,-3.9238,-3.9238,-3.9438,-3.9712,-4.0061,-4.0002,-4.0022,-4.0195,-3.984,-3.9534,-3.9389,-3.9127,-3.9154,-3.9576,-3.969,-4.0229,-4.1257,-4.1629,-4.2052,-4.256,-4.3494,-4.4066,-4.4316,-4.4913,-4.5336,-4.5586,-4.5586,-4.5586,-4.5586,-4.5586,-4.5586,-4.5586,-4.5586,-4.5586,-4.5586,-4.5586,-4.5586,-4.5586,-4.5586,-4.5586,-4.5586,-3.601,-3.6001,-3.6005,-3.6007,-3.5996,-3.5996,-3.5996,-3.5937,-3.5923,-3.5984,-3.577,-3.56,-3.5611,-3.5545,-3.5493,-3.5493,-3.5493,-3.5853,-3.6661,-3.7507,-3.8373,-3.9258,-4.0046,-4.0489,-4.0489,-4.0489,-4.0489,-4.0489,-4.0213,-4.0101,-4.0101,-4.0081,-4.0232,-4.0489,-4.0489,-4.0489,-4.0489,-4.0489,-4.0489,-4.0489,-4.0489,-4.0489,-4.0489,-4.0489,-4.0489,-4.0489,-4.0489,-4.0489,-4.0489,-4.0489,-4.0489,-4.0489,-4.0489,-4.0489,-4.0489,-4.0489,-4.0489,-4.0489,-4.0489,-4.0489,-4.0489,-4.0489,-4.0489,-4.0489,-4.0489,-4.0489,-4.0489,-4.0489,-4.0489,-4.0406,-4.0139,-4.0101,-3.9982,-3.9645,-3.9599,-3.9599,-3.9599,-3.9599,-3.9712,-4.0061,-3.9797,-3.9842,-4.0438,-3.9945,-3.9731,-4.0042,-3.9775,-3.9599,-3.9599,-3.9922,-4.0101,-4.012,-4.1219,-4.1658,-4.1322,-4.2522,-4.3508,-4.4297,-4.4316,-4.4759,-4.5586,-4.5586,-4.5586,-4.5586,-4.5586,-4.5586,-4.5586,-4.5586,-4.5586,-4.5586,-4.5586,-4.5586,-4.5586,-4.5586,-4.5586,-4.5586,-3.6005,-3.5997,-3.6001,-3.5995,-3.5996,-3.5996,-3.5996,-3.5976,-3.5973,-3.6009,-3.5884,-3.5766,-3.5688,-3.5584,-3.5493,-3.5493,-3.5493,-3.6103,-3.7488,-3.7853,-3.8623,-4.0046,-4.0354,-4.0489,-4.0489,-4.0489,-4.0489,-4.0489,-4.0232,-4.0101,-4.0101,-4.0304,-4.0425,-4.0489,-4.0489,-4.0489,-4.0489,-4.0489,-4.0489,-4.0489,-4.0489,-4.0489,-4.0489,-4.0489,-4.0489,-4.0489,-4.0489,-4.0489,-4.0489,-4.0489,-4.0489,-4.0489,-4.0489,-4.0489,-4.0489,-4.0489,-4.0489,-4.0489,-4.0489,-4.0489,-4.0489,-4.0489,-4.0489,-4.0489,-4.0489,-4.0489,-4.0489,-4.0489,-4.0489,-4.0473,-4.0389,-4.0213,-4.0081,-3.9962,-3.9943,-3.9943,-3.9943,-4.0101,-4.0248,-4.0356,-4.0285,-4.0283,-4.0489,-4.0157,-3.9982,-4.0101,-4.0002,-3.9943,-3.9943,-4.0042,-4.0177,-4.0372,-4.0726,-4.0861,-4.0756,-4.1726,-4.2335,-4.2604,-4.3201,-4.3912,-4.472,-4.5316,-4.5586,-4.5586,-4.5586,-4.5586,-4.5586,-4.5586,-4.5586,-4.5586,-4.5586,-4.5586,-4.5586,-4.5586,-4.5586,-4.5586,-3.5996,-3.5996,-3.5996,-3.5996,-3.5996,-3.5996,-3.5996,-3.5996,-3.5996,-3.5996,-3.5942,-3.5881,-3.5778,-3.5661,-3.5565,-3.5493,-3.5493,-3.6219,-3.7892,-3.8007,-3.8738,-4.0431,-4.0489,-4.0489,-4.0489,-4.0489,-4.0489,-4.0489,-4.0339,-4.025,-4.025,-4.0406,-4.0489,-4.0489,-4.0489,-4.0489,-4.0489,-4.0489,-4.0489,-4.0489,-4.0489,-4.0489,-4.0489,-4.0489,-4.0489,-4.0489,-4.0489,-4.0489,-4.0489,-4.0489,-4.0489,-4.0489,-4.0489,-4.0489,-4.0489,-4.0489,-4.0489,-4.0489,-4.0489,-4.0489,-4.0489,-4.0489,-4.0489,-4.0489,-4.0489,-4.0489,-4.0489,-4.0489,-4.0489,-4.0489,-4.0489,-4.0356,-4.025,-4.025,-4.025,-4.025,-4.025,-4.0389,-4.0489,-4.0489,-4.0489,-4.0489,-4.0489,-4.0356,-4.025,-4.025,-4.025,-4.025,-4.025,-4.025,-4.0339,-4.0489,-4.0489,-4.0489,-4.0489,-4.1046,-4.1489,-4.1816,-4.2681,-4.3528,-4.4316,-4.4855,-4.5278,-4.5586,-4.5586,-4.5586,-4.5586,-4.5586,-4.5586,-4.5586,-4.5586,-4.5586,-4.5586,-4.5586,-4.5586,-4.5586,-3.5996,-3.5996,-3.5996,-3.5996,-3.5996,-3.5996,-3.5996,-3.5996,-3.5996,-3.5996,-3.5957,-3.5907,-3.5898,-3.5784,-3.5674,-3.5534,-3.552,-3.6219,-3.7892,-3.8007,-3.8738,-4.0431,-4.0489,-4.0489,-4.0489,-4.0489,-4.0489,-4.0489,-4.0489,-4.0489,-4.0489,-4.0489,-4.0489,-4.0489,-4.0489,-4.0489,-4.0489,-4.0489,-4.0489,-4.0489,-4.0489,-4.0489,-4.0489,-4.0489,-4.0489,-4.0489,-4.0489,-4.0489,-4.0489,-4.0489,-4.0489,-4.0489,-4.0489,-4.0489,-4.0489,-4.0489,-4.0489,-4.0489,-4.0489,-4.0489,-4.0489,-4.0489,-4.0489,-4.0489,-4.0489,-4.0489,-4.0489,-4.0489,-4.0489,-4.0489,-4.0489,-4.0489,-4.0489,-4.0489,-4.0489,-4.0489,-4.0489,-4.0489,-4.0489,-4.0489,-4.0489,-4.0489,-4.0489,-4.0489,-4.0489,-4.0489,-4.0489,-4.0489,-4.0489,-4.0489,-4.0489,-4.0489,-4.0489,-4.0489,-4.0489,-4.0489,-4.0912,-4.172,-4.2585,-4.3393,-4.4124,-4.4182,-4.4662,-4.5432,-4.549,-4.5509,-4.5509,-4.5566,-4.5586,-4.5586,-4.5586,-4.5586,-4.5586,-4.5586,-4.5586,-4.5586,-3.5996,-3.5996,-3.5996,-3.5996,-3.5996,-3.5996,-3.5996,-3.5996,-3.5996,-3.5996,-3.5996,-3.5955,-3.591,-3.5863,-3.5804,-3.5657,-3.562,-3.6276,-3.7892,-3.8007,-3.8738,-4.0431,-4.0489,-4.0489,-4.0489,-4.0489,-4.0489,-4.0489,-4.0489,-4.0489,-4.0489,-4.0489,-4.0489,-4.0489,-4.0489,-4.0489,-4.0489,-4.0489,-4.0489,-4.0489,-4.0489,-4.0489,-4.0489,-4.0489,-4.0489,-4.0489,-4.0489,-4.0489,-4.0489,-4.0489,-4.0489,-4.0489,-4.0489,-4.0489,-4.0489,-4.0489,-4.0489,-4.0489,-4.0489,-4.0489,-4.0489,-4.0489,-4.0489,-4.0489,-4.0489,-4.0489,-4.0489,-4.0489,-4.0489,-4.0489,-4.0489,-4.0489,-4.0489,-4.0489,-4.0489,-4.0489,-4.0489,-4.0489,-4.0489,-4.0489,-4.0489,-4.0489,-4.0489,-4.0489,-4.0489,-4.0489,-4.0489,-4.0489,-4.0489,-4.0489,-4.0489,-4.0489,-4.0489,-4.0489,-4.0489,-4.0489,-4.0585,-4.0816,-4.17,-4.222,-4.2412,-4.3085,-4.3508,-4.372,-4.4335,-4.4605,-4.4662,-4.5316,-4.5586,-4.5586,-4.5586,-4.5586,-4.5586,-4.5586,-4.5586,-4.5586,-3.5996,-3.5996,-3.5996,-3.5996,-3.5996,-3.5996,-3.5996,-3.5996,-3.5996,-3.5996,-3.5996,-3.5996,-3.5957,-3.5958,-3.5903,-3.5801,-3.5693,-3.6334,-3.7945,-3.8046,-3.8777,-4.0431,-4.0489,-4.0489,-4.0489,-4.0489,-4.0489,-4.0489,-4.0489,-4.0489,-4.0489,-4.0489,-4.0489,-4.0489,-4.0489,-4.0489,-4.0489,-4.0489,-4.0489,-4.0489,-4.0489,-4.0489,-4.0489,-4.0489,-4.0489,-4.0489,-4.0489,-4.0489,-4.0489,-4.0489,-4.0489,-4.0489,-4.0489,-4.0489,-4.0489,-4.0489,-4.0489,-4.0489,-4.0489,-4.0489,-4.0489,-4.0489,-4.0489,-4.0489,-4.0489,-4.0489,-4.0489,-4.0489,-4.0489,-4.0489,-4.0489,-4.0489,-4.0489,-4.0489,-4.0489,-4.0489,-4.0489,-4.0489,-4.0489,-4.0489,-4.0489,-4.0489,-4.0489,-4.0489,-4.0489,-4.0489,-4.0489,-4.0489,-4.0489,-4.0489,-4.0489,-4.0489,-4.0489,-4.0489,-4.0489,-4.0489,-4.0489,-4.0508,-4.0969,-4.1412,-4.1816,-4.2297,-4.272,-4.3124,-4.3566,-4.3758,-4.3816,-4.4662,-4.5009,-4.5047,-4.5432,-4.5586,-4.5586,-4.5586,-4.5586,-4.5586,-3.5996,-3.5996,-3.5996,-3.5996,-3.5996,-3.5996,-3.5996,-3.5996,-3.5996,-3.5996,-3.5996,-3.5996,-3.5996,-3.5996,-3.5989,-3.5908,-3.5815,-3.6419,-3.8041,-3.8113,-3.8834,-4.045,-4.0508,-4.0489,-4.0489,-4.0489,-4.0489,-4.0489,-4.0489,-4.0489,-4.0489,-4.0489,-4.0489,-4.0489,-4.0489,-4.0489,-4.0489,-4.0489,-4.0489,-4.0489,-4.0489,-4.0489,-4.0489,-4.0489,-4.0489,-4.0489,-4.0489,-4.0489,-4.0489,-4.0489,-4.0489,-4.0489,-4.0489,-4.0489,-4.0489,-4.0489,-4.0489,-4.0489,-4.0489,-4.0489,-4.0489,-4.0489,-4.0489,-4.0489,-4.0489,-4.0489,-4.0489,-4.0489,-4.0489,-4.0489,-4.0489,-4.0489,-4.0489,-4.0489,-4.0489,-4.0489,-4.0489,-4.0489,-4.0489,-4.0489,-4.0489,-4.0489,-4.0489,-4.0489,-4.0489,-4.0489,-4.0489,-4.0489,-4.0489,-4.0489,-4.0489,-4.0489,-4.0489,-4.0489,-4.0489,-4.0489,-4.0489,-4.0489,-4.0489,-4.0893,-4.1604,-4.1604,-4.2008,-4.2701,-4.2854,-4.2893,-4.297,-4.3778,-4.4124,-4.4182,-4.4932,-4.522,-4.524,-4.5355,-4.5393,-4.5413,-3.5996,-3.5996,-3.5996,-3.5996,-3.5996,-3.5996,-3.5996,-3.5996,-3.5996,-3.5996,-3.5996,-3.5996,-3.5996,-3.5996,-3.5996,-3.5993,-3.5968,-3.6618,-3.8179,-3.8163,-3.8873,-4.06,-4.0562,-4.0489,-4.0489,-4.0489,-4.0489,-4.0489,-4.0489,-4.0489,-4.0489,-4.0489,-4.0489,-4.0489,-4.0489,-4.0489,-4.0489,-4.0489,-4.0489,-4.0489,-4.0489,-4.0489,-4.0489,-4.0489,-4.0489,-4.0489,-4.0489,-4.0489,-4.0489,-4.0489,-4.0489,-4.0489,-4.0489,-4.0489,-4.0489,-4.0489,-4.0489,-4.0489,-4.0489,-4.0489,-4.0489,-4.0489,-4.0489,-4.0489,-4.0489,-4.0489,-4.0489,-4.0489,-4.0489,-4.0489,-4.0489,-4.0489,-4.0489,-4.0489,-4.0489,-4.0489,-4.0489,-4.0489,-4.0489,-4.0489,-4.0489,-4.0489,-4.0489,-4.0489,-4.0489,-4.0489,-4.0489,-4.0489,-4.0489,-4.0489,-4.0489,-4.0489,-4.0489,-4.0489,-4.0489,-4.0489,-4.0489,-4.0489,-4.0489,-4.0566,-4.07,-4.07,-4.0777,-4.0931,-4.1681,-4.2008,-4.2066,-4.2931,-4.3297,-4.3297,-4.3431,-4.3489,-4.3566,-4.4239,-4.4489,-4.4605,-3.5996,-3.5996,-3.5996,-3.5996,-3.5996,-3.5996,-3.5996,-3.5996,-3.5996,-3.5996,-3.5996,-3.5996,-3.5996,-3.5996,-3.5996,-3.5996,-3.5996,-3.6502,-3.7669,-3.8039,-3.8742,-3.995,-4.0315,-4.0489,-4.0489,-4.0489,-4.0489,-4.0489,-4.0489,-4.0489,-4.0489,-4.0489,-4.0489,-4.0489,-4.0489,-4.0489,-4.0489,-4.0489,-4.0489,-4.0489,-4.0489,-4.0489,-4.0489,-4.0489,-4.0489,-4.0489,-4.0489,-4.0489,-4.0489,-4.0489,-4.0489,-4.0489,-4.0489,-4.0489,-4.0489,-4.0489,-4.0489,-4.0489,-4.0489,-4.0489,-4.0489,-4.0489,-4.0489,-4.0489,-4.0489,-4.0489,-4.0489,-4.0489,-4.0489,-4.0489,-4.0489,-4.0489,-4.0489,-4.0489,-4.0489,-4.0489,-4.0489,-4.0489,-4.0489,-4.0489,-4.0489,-4.0489,-4.0489,-4.0489,-4.0489,-4.0489,-4.0489,-4.0489,-4.0489,-4.0489,-4.0489,-4.0489,-4.0489,-4.0489,-4.0489,-4.0489,-4.0489,-4.0489,-4.0489,-4.0489,-4.0489,-4.0489,-4.0489,-4.0508,-4.0931,-4.1104,-4.1162,-4.2047,-4.2412,-4.245,-4.2912,-4.3104,-4.3143,-4.3528,-4.3643,-4.3701,-3.5996,-3.5996,-3.5996,-3.5996,-3.5996,-3.5996,-3.5996,-3.5996,-3.5996,-3.5996,-3.5996,-3.5996,-3.5996,-3.5996,-3.5996,-3.5996,-3.5996,-3.6289,-3.6953,-3.7825,-3.8678,-3.9435,-4.0162,-4.0562,-4.0562,-4.0508,-4.0489,-4.0489,-4.0489,-4.0489,-4.0489,-4.0489,-4.0489,-4.0489,-4.0489,-4.0489,-4.0489,-4.0489,-4.0489,-4.0489,-4.0489,-4.0489,-4.0489,-4.0489,-4.0489,-4.0489,-4.0489,-4.0489,-4.0489,-4.0489,-4.0489,-4.0489,-4.0489,-4.0489,-4.0489,-4.0489,-4.0489,-4.0489,-4.0489,-4.0489,-4.0489,-4.0489,-4.0489,-4.0489,-4.0489,-4.0489,-4.0489,-4.0489,-4.0489,-4.0489,-4.0489,-4.0489,-4.0489,-4.0489,-4.0489,-4.0489,-4.0489,-4.0489,-4.0489,-4.0489,-4.0489,-4.0489,-4.0489,-4.0489,-4.0489,-4.0489,-4.0489,-4.0489,-4.0489,-4.0489,-4.0489,-4.0489,-4.0489,-4.0489,-4.0489,-4.0489,-4.0489,-4.0489,-4.0489,-4.0489,-4.0489,-4.0489,-4.0489,-4.0489,-4.0489,-4.0489,-4.0546,-4.1219,-4.1508,-4.1566,-4.2239,-4.2489,-4.2527,-4.272,-4.2797,-4.2835,-3.5996,-3.5996,-3.5996,-3.5996,-3.5996,-3.5996,-3.5996,-3.5996,-3.5996,-3.5996,-3.5996,-3.5996,-3.5996,-3.5996,-3.5996,-3.5996,-3.5996,-3.6035,-3.6094,-3.755,-3.8781,-3.9646,-4.0315,-4.0696,-4.0696,-4.0562,-4.0489,-4.0489,-4.0489,-4.0489,-4.0489,-4.0489,-4.0489,-4.0489,-4.0489,-4.0489,-4.0489,-4.0489,-4.0489,-4.0489,-4.0489,-4.0489,-4.0489,-4.0489,-4.0489,-4.0489,-4.0489,-4.0489,-4.0489,-4.0489,-4.0489,-4.0489,-4.0489,-4.0489,-4.0489,-4.0489,-4.0489,-4.0489,-4.0489,-4.0489,-4.0489,-4.0489,-4.0489,-4.0489,-4.0489,-4.0489,-4.0489,-4.0489,-4.0489,-4.0489,-4.0489,-4.0489,-4.0489,-4.0489,-4.0489,-4.0489,-4.0489,-4.0489,-4.0489,-4.0489,-4.0489,-4.0489,-4.0489,-4.0489,-4.0489,-4.0489,-4.0489,-4.0489,-4.0489,-4.0489,-4.0489,-4.0489,-4.0489,-4.0489,-4.0489,-4.0489,-4.0489,-4.0489,-4.0489,-4.0489,-4.0489,-4.0489,-4.0489,-4.0489,-4.0489,-4.0489,-4.0489,-4.0566,-4.0585,-4.0585,-4.0662,-4.0681,-4.0777,-4.1604,-4.1912,-4.2008,-3.5996,-3.5996,-3.5996,-3.5996,-3.5996,-3.5996,-3.5996,-3.5996,-3.5996,-3.5996,-3.5996,-3.5996,-3.5996,-3.5996,-3.5996,-3.5996,-3.5996,-3.5996,-3.5996,-3.707,-3.8525,-4.0294,-4.0595,-4.07,-4.0696,-4.0581,-4.0489,-4.0489,-4.0489,-4.0489,-4.0489,-4.0489,-4.0489,-4.0489,-4.0489,-4.0489,-4.0489,-4.0489,-4.0489,-4.0489,-4.0489,-4.0489,-4.0489,-4.0489,-4.0489,-4.0489,-4.0489,-4.0489,-4.0489,-4.0489,-4.0489,-4.0489,-4.0489,-4.0489,-4.0489,-4.0489,-4.0489,-4.0489,-4.0489,-4.0489,-4.0489,-4.0489,-4.0489,-4.0489,-4.0489,-4.0489,-4.0489,-4.0489,-4.0489,-4.0489,-4.0489,-4.0489,-4.0489,-4.0489,-4.0489,-4.0489,-4.0489,-4.0489,-4.0489,-4.0489,-4.0489,-4.0489,-4.0489,-4.0489,-4.0489,-4.0489,-4.0489,-4.0489,-4.0489,-4.0489,-4.0489,-4.0489,-4.0489,-4.0489,-4.0489,-4.0489,-4.0489,-4.0489,-4.0489,-4.0489,-4.0489,-4.0489,-4.0489,-4.0489,-4.0489,-4.0489,-4.0489,-4.0489,-4.0489,-4.0489,-4.0489,-4.0489,-4.0527,-4.0873,-4.0989,-4.1046,-3.5996,-3.5996,-3.5996,-3.5996,-3.5996,-3.5996,-3.5996,-3.5996,-3.5996,-3.5996,-3.5996,-3.5996,-3.5996,-3.5996,-3.5996,-3.5996,-3.5996,-3.5996,-3.5996,-3.707,-3.8528,-4.0364,-4.0626,-4.0715,-4.0696,-4.0581,-4.0489,-4.0489,-4.0489,-4.0489,-4.0489,-4.0489,-4.0489,-4.0489,-4.0489,-4.0489,-4.0489,-4.0489,-4.0489,-4.0489,-4.0489,-4.0489,-4.0489,-4.0489,-4.0489,-4.0489,-4.0489,-4.0489,-4.0489,-4.0489,-4.0489,-4.0489,-4.0489,-4.0489,-4.0489,-4.0489,-4.0489,-4.0489,-4.0489,-4.0489,-4.0489,-4.0489,-4.0489,-4.0489,-4.0489,-4.0489,-4.0489,-4.0489,-4.0489,-4.0489,-4.0489,-4.0489,-4.0489,-4.0489,-4.0489,-4.0489,-4.0489,-4.0489,-4.0489,-4.0489,-4.0489,-4.0489,-4.0489,-4.0489,-4.0489,-4.0489,-4.0489,-4.0489,-4.0489,-4.0489,-4.0489,-4.0489,-4.0489,-4.0489,-4.0489,-4.0489,-4.0489,-4.0489,-4.0489,-4.0489,-4.0489,-4.0489,-4.0489,-4.0489,-4.0489,-4.0489,-4.0489,-4.0489,-4.0489,-4.0489,-4.0489,-4.0489,-4.0489,-4.0489,-4.0489,-4.0489,-3.5996,-3.5996,-3.5996,-3.5996,-3.5996,-3.5996,-3.5996,-3.5996,-3.5996,-3.5996,-3.5996,-3.5996,-3.5996,-3.5996,-3.5996,-3.5996,-3.5996,-3.5996,-3.5996,-3.7637,-3.8926,-3.9672,-4.0391,-4.0761,-4.0696,-4.0581,-4.0489,-4.0489,-4.0489,-4.0489,-4.0489,-4.0489,-4.0489,-4.0489,-4.0489,-4.0489,-4.0489,-4.0489,-4.0489,-4.0489,-4.0489,-4.0489,-4.0489,-4.0489,-4.0489,-4.0489,-4.0489,-4.0489,-4.0489,-4.0489,-4.0489,-4.0489,-4.0489,-4.0489,-4.0489,-4.0489,-4.0489,-4.0489,-4.0489,-4.0489,-4.0489,-4.0489,-4.0489,-4.0489,-4.0489,-4.0489,-4.0489,-4.0489,-4.0489,-4.0489,-4.0489,-4.0489,-4.0489,-4.0489,-4.0489,-4.0489,-4.0489,-4.0489,-4.0489,-4.0489,-4.0489,-4.0489,-4.0489,-4.0489,-4.0489,-4.0489,-4.0489,-4.0489,-4.0489,-4.0489,-4.0489,-4.0489,-4.0489,-4.0489,-4.0489,-4.0489,-4.0489,-4.0489,-4.0489,-4.0489,-4.0489,-4.0489,-4.0489,-4.0489,-4.0489,-4.0489,-4.0489,-4.0489,-4.0489,-4.0489,-4.0489,-4.0489,-4.0489,-4.0489,-4.0489,-4.0489,-3.5996,-3.5996,-3.5996,-3.5996,-3.5996,-3.5996,-3.5996,-3.5996,-3.5996,-3.5996,-3.5996,-3.5996,-3.5996,-3.5996,-3.5996,-3.5996,-3.5996,-3.5996,-3.5996,-3.7051,-3.8021,-3.8755,-4.016,-4.0891,-4.0773,-4.0677,-4.06,-4.0489,-4.0489,-4.0489,-4.0489,-4.0489,-4.0489,-4.0489,-4.0489,-4.0489,-4.0489,-4.0489,-4.0489,-4.0489,-4.0489,-4.0489,-4.0489,-4.0489,-4.0489,-4.0489,-4.0489,-4.0489,-4.0489,-4.0489,-4.0489,-4.0489,-4.0489,-4.0489,-4.0489,-4.0489,-4.0489,-4.0489,-4.0489,-4.0489,-4.0489,-4.0489,-4.0489,-4.0489,-4.0489,-4.0489,-4.0489,-4.0489,-4.0489,-4.0489,-4.0489,-4.0489,-4.0489,-4.0489,-4.0489,-4.0489,-4.0489,-4.0489,-4.0489,-4.0489,-4.0489,-4.0489,-4.0489,-4.0489,-4.0489,-4.0489,-4.0489,-4.0489,-4.0489,-4.0489,-4.0489,-4.0489,-4.0489,-4.0489,-4.0489,-4.0489,-4.0489,-4.0489,-4.0489,-4.0489,-4.0489,-4.0489,-4.0489,-4.0489,-4.0489,-4.0489,-4.0489,-4.0489,-4.0489,-4.0489,-4.0489,-4.0489,-4.0489,-4.0489,-4.0489,-4.0489,-3.5996,-3.5996,-3.5996,-3.5996,-3.5996,-3.5996,-3.5996,-3.5996,-3.5996,-3.5996,-3.5996,-3.5996,-3.5996,-3.5996,-3.5996,-3.5996,-3.5996,-3.5996,-3.5996,-3.6816,-3.7656,-3.8437,-3.9825,-4.0645,-4.079,-4.0752,-4.0696,-4.062,-4.06,-4.0581,-4.0581,-4.0508,-4.0489,-4.0489,-4.0489,-4.0489,-4.0489,-4.0489,-4.0489,-4.0489,-4.0489,-4.0489,-4.0489,-4.0489,-4.0489,-4.0489,-4.0489,-4.0489,-4.0489,-4.0489,-4.0489,-4.0489,-4.0489,-4.0489,-4.0489,-4.0489,-4.0489,-4.0489,-4.0489,-4.0489,-4.0489,-4.0489,-4.0489,-4.0489,-4.0489,-4.0489,-4.0489,-4.0489,-4.0489,-4.0489,-4.0489,-4.0489,-4.0489,-4.0489,-4.0489,-4.0489,-4.0489,-4.0489,-4.0489,-4.0489,-4.0489,-4.0489,-4.0489,-4.0489,-4.0489,-4.0489,-4.0489,-4.0489,-4.0489,-4.0489,-4.0489,-4.0489,-4.0489,-4.0489,-4.0489,-4.0489,-4.0489,-4.0489,-4.0489,-4.0489,-4.0489,-4.0489,-4.0489,-4.0489,-4.0489,-4.0489,-4.0489,-4.0489,-4.0489,-4.0489,-4.0489,-4.0489,-4.0489,-4.0489,-4.0489,-4.0489,-3.5996,-3.5996,-3.5996,-3.5996,-3.5996,-3.5996,-3.5996,-3.5996,-3.5996,-3.5996,-3.5996,-3.5996,-3.5996,-3.5996,-3.5996,-3.5996,-3.5996,-3.5996,-3.5996,-3.6738,-3.7578,-3.8457,-3.9316,-4.0084,-4.0714,-4.0781,-4.0805,-4.08,-4.0742,-4.0693,-4.0696,-4.0562,-4.0489,-4.0489,-4.0489,-4.0489,-4.0489,-4.0489,-4.0489,-4.0489,-4.0489,-4.0489,-4.0489,-4.0489,-4.0489,-4.0489,-4.0489,-4.0489,-4.0489,-4.0489,-4.0489,-4.0489,-4.0489,-4.0489,-4.0489,-4.0489,-4.0489,-4.0489,-4.0489,-4.0489,-4.0489,-4.0489,-4.0489,-4.0489,-4.0489,-4.0489,-4.0489,-4.0489,-4.0489,-4.0489,-4.0489,-4.0489,-4.0489,-4.0489,-4.0489,-4.0489,-4.0489,-4.0489,-4.0489,-4.0489,-4.0489,-4.0489,-4.0489,-4.0489,-4.0489,-4.0489,-4.0489,-4.0489,-4.0489,-4.0489,-4.0489,-4.0489,-4.0489,-4.0489,-4.0489,-4.0489,-4.0489,-4.0489,-4.0489,-4.0489,-4.0489,-4.0489,-4.0489,-4.0489,-4.0489,-4.0489,-4.0489,-4.0489,-4.0489,-4.0489,-4.0489,-4.0489,-4.0489,-4.0473,-4.0473,-4.0457,-3.5996,-3.5996,-3.5996,-3.5996,-3.5996,-3.5996,-3.5996,-3.5996,-3.5996,-3.5996,-3.5996,-3.5996,-3.5996,-3.5996,-3.5996,-3.5996,-3.5996,-3.5996,-3.5996,-3.6172,-3.668,-3.7539,-3.8418,-3.9257,-4.007,-4.0665,-4.09,-4.0801,-4.0729,-4.0707,-4.0696,-4.0562,-4.0489,-4.0489,-4.0489,-4.0489,-4.0489,-4.0489,-4.0489,-4.0489,-4.0489,-4.0489,-4.0489,-4.0489,-4.0489,-4.0489,-4.0489,-4.0489,-4.0489,-4.0489,-4.0489,-4.0489,-4.0489,-4.0489,-4.0489,-4.0489,-4.0489,-4.0489,-4.0489,-4.0489,-4.0489,-4.0489,-4.0489,-4.0489,-4.0489,-4.0489,-4.0489,-4.0489,-4.0489,-4.0489,-4.0489,-4.0489,-4.0489,-4.0489,-4.0489,-4.0489,-4.0489,-4.0489,-4.0489,-4.0489,-4.0489,-4.0489,-4.0489,-4.0489,-4.0489,-4.0489,-4.0489,-4.0489,-4.0489,-4.0489,-4.0489,-4.0489,-4.0489,-4.0489,-4.0489,-4.0489,-4.0489,-4.0489,-4.0489,-4.0489,-4.0489,-4.0489,-4.0489,-4.0489,-4.0489,-4.0489,-4.0489,-4.0489,-4.0489,-4.0489,-4.0489,-4.0489,-4.0473,-4.025,-4.0177,-4.0158,-3.5996,-3.5996,-3.5996,-3.5996,-3.5996,-3.5996,-3.5996,-3.5996,-3.5996,-3.5996,-3.5996,-3.5996,-3.5996,-3.5996,-3.5996,-3.5996,-3.5996,-3.5996,-3.5996,-3.5996,-3.6387,-3.7266,-3.8125,-3.9004,-3.9883,-4.0684,-4.1069,-4.0992,-4.0891,-4.0809,-4.0754,-4.0639,-4.0562,-4.0489,-4.0489,-4.0489,-4.0489,-4.0489,-4.0489,-4.0489,-4.0489,-4.0489,-4.0489,-4.0489,-4.0489,-4.0489,-4.0489,-4.0489,-4.0489,-4.0489,-4.0489,-4.0489,-4.0489,-4.0489,-4.0489,-4.0489,-4.0489,-4.0489,-4.0489,-4.0489,-4.0412,-4.0008,-3.9931,-4.0027,-4.0412,-4.02,-3.9931,-3.9931,-3.9604,-3.9315,-3.9315,-3.9642,-3.9931,-3.9931,-4.0239,-4.0489,-4.0489,-4.0489,-4.0489,-4.0489,-4.0489,-4.0489,-4.0489,-4.0489,-4.0489,-4.0489,-4.0489,-4.0489,-4.0489,-4.0489,-4.0489,-4.0489,-4.0489,-4.0489,-4.0489,-4.0489,-4.0489,-4.0489,-4.0489,-4.0489,-4.0489,-4.0489,-4.0489,-4.0489,-4.0489,-4.0489,-4.0489,-4.0489,-4.0489,-4.0489,-4.0489,-4.0406,-4.0285,-4.0158,-4.0002,-3.9838,-3.5996,-3.5996,-3.5996,-3.5996,-3.5996,-3.5996,-3.5996,-3.5996,-3.5996,-3.5996,-3.5996,-3.5996,-3.5996,-3.5996,-3.5996,-3.5996,-3.5996,-3.5996,-3.5996,-3.5996,-3.6328,-3.7051,-3.8066,-3.8945,-3.9668,-4.0684,-4.1191,-4.1191,-4.1074,-4.0935,-4.0786,-4.0727,-4.0639,-4.0489,-4.0489,-4.0489,-4.0489,-4.0489,-4.0489,-4.0489,-4.0489,-4.0489,-4.0489,-4.0489,-4.0489,-4.0489,-4.0489,-4.0489,-4.0489,-4.0489,-4.0489,-4.0489,-4.0489,-4.0489,-4.0489,-4.0489,-4.0489,-4.0469,-4.0315,-4.0277,-4.0085,-3.9277,-3.9084,-3.9238,-3.9912,-3.9546,-3.9084,-3.9084,-3.8507,-3.8007,-3.8007,-3.8584,-3.9084,-3.9084,-3.9642,-4.0123,-4.0258,-4.0277,-4.0335,-4.0469,-4.0489,-4.0489,-4.0489,-4.0489,-4.0489,-4.0489,-4.0489,-4.0489,-4.0489,-4.0489,-4.0489,-4.0489,-4.0489,-4.0489,-4.0489,-4.0489,-4.0489,-4.0489,-4.0489,-4.0489,-4.0489,-4.0489,-4.0489,-4.0489,-4.0489,-4.0489,-4.0489,-4.0489,-4.0489,-4.0489,-4.0457,-4.0304,-4.0081,-3.9982,-3.9731,-3.9451,-3.5996,-3.5996,-3.5996,-3.5996,-3.5996,-3.5996,-3.5996,-3.5996,-3.5996,-3.5996,-3.5996,-3.5996,-3.5996,-3.5996,-3.5996,-3.5996,-3.5996,-3.5996,-3.5996,-3.5996,-3.6055,-3.6172,-3.7734,-3.8652,-3.8769,-4.0371,-4.1191,-4.1191,-4.1074,-4.0932,-4.0809,-4.0725,-4.0639,-4.0489,-4.0489,-4.0489,-4.0489,-4.0489,-4.0489,-4.0489,-4.0489,-4.0489,-4.0489,-4.0489,-4.0489,-4.0489,-4.0489,-4.0489,-4.0489,-4.0489,-4.0489,-4.0489,-4.0489,-4.0489,-4.0489,-4.0489,-4.0489,-4.0335,-3.9642,-3.945,-3.9258,-3.8392,-3.818,-3.82,-3.8315,-3.8257,-3.818,-3.818,-3.8084,-3.8007,-3.8007,-3.8104,-3.818,-3.818,-3.8277,-3.8604,-3.9354,-3.945,-3.9719,-4.0412,-4.0489,-4.0489,-4.0489,-4.0489,-4.0489,-4.0489,-4.0489,-4.0489,-4.0489,-4.0489,-4.0489,-4.0489,-4.0489,-4.0489,-4.0489,-4.0489,-4.0489,-4.0489,-4.0489,-4.0489,-4.0489,-4.0489,-4.0489,-4.0489,-4.0489,-4.0489,-4.0489,-4.0489,-4.0489,-4.0473,-4.0232,-4.0139,-4.0022,-3.9438,-3.9054,-3.8822,-3.5996,-3.5996,-3.5996,-3.5996,-3.5996,-3.5996,-3.5996,-3.5996,-3.5996,-3.5996,-3.5996,-3.5996,-3.5996,-3.5996,-3.5996,-3.5996,-3.5996,-3.5996,-3.5996,-3.5996,-3.5996,-3.5996,-3.7207,-3.8105,-3.8594,-3.9824,-4.0703,-4.1191,-4.1133,-4.0996,-4.0793,-4.0771,-4.0658,-4.0489,-4.0489,-4.0489,-4.0489,-4.0489,-4.0489,-4.0489,-4.0489,-4.0489,-4.0489,-4.0489,-4.0489,-4.0489,-4.0489,-4.0489,-4.0489,-4.0489,-4.0489,-4.0489,-4.0489,-4.0489,-4.0412,-3.995,-3.9815,-3.9642,-3.8796,-3.8565,-3.8354,-3.7488,-3.7276,-3.7161,-3.6719,-3.6603,-3.6738,-3.718,-3.693,-3.6603,-3.6603,-3.6969,-3.7276,-3.7276,-3.768,-3.8123,-3.8527,-3.8565,-3.8892,-3.9719,-4.0219,-4.0489,-4.0489,-4.0489,-4.0489,-4.0489,-4.0489,-4.0489,-4.0489,-4.0489,-4.0489,-4.0489,-4.0489,-4.0489,-4.0489,-4.0489,-4.0489,-4.0489,-4.0489,-4.0489,-4.0489,-4.0489,-4.0489,-4.0489,-4.0489,-4.0489,-4.0489,-4.0489,-4.0406,-4.025,-4.0139,-3.988,-3.9481,-3.9045,-3.8803,-3.8707]}]]